[[{"header":{"parameterUnit":"m.s-1","parameterCategory":1,"la1":30.6,"la2":28.766,"lo1":-90.7593,"lo2":-88.6598,"dy":0.0162,"dx":0.0183,"nx":116,"ny":114,"refTime":"2024-07-01T00:00:00:Z","depth":0,"parameterNumber":2,"parameterNumberName":"U-component_of_WINDS"},"data":[0.0,0.0,0.0,0.0,0.0,0.0,0.0,0.0,0.0,0.0,0.0,0.0,0.0,0.0,0.0,0.0,0.0,0.0,0.0,0.0,0.0,0.0,0.0,0.0,0.0,0.0,0.0,0.0,0.0,0.0,0.0,0.0,0.0,0.0,0.0,0.0,0.0,0.0,0.0,0.0,0.0,0.0,0.0,0.0,0.0,0.0,0.0,0.0,0.0,0.0,0.0,0.0,0.0,0.0,0.0,0.0,0.0,0.0,0.0,0.0,0.0,0.0,0.0,0.0,0.0,0.0,0.0,0.0,0.0,0.0,0.0,0.0,0.0,0.0,0.0,0.0,0.0,0.0,0.0,0.0,0.0,0.0,0.0,0.0,0.0,0.0,0.0,0.0,0.0,0.0,0.0,0.0,0.0,0.0,0.0,0.0,0.0,0.0,0.0,0.0,0.0,0.0,0.0,0.0,0.0,0.0,0.0,0.0,0.0,0.0,0.0,0.0,0.0,0.0,0.0,0.0,0.0,0.0,0.0,0.0,0.0,0.0,0.0,0.0,0.0,0.0,0.0,0.0,0.0,0.0,0.0,0.0,0.0,0.0,0.0,0.0,0.0,0.0,0.0,0.0,0.0,0.0,0.0,0.0,0.0,0.0,0.0,0.0,0.0,0.0,0.0,0.0,0.0,0.0,0.0,0.0,0.0,0.0,0.0,0.0,0.0,0.0,0.0,0.0,0.0,0.0,0.0,0.0,0.0,0.0,0.0,0.0,0.0,0.0,0.0,0.0,0.0,0.0,0.0,0.0,0.0,0.0,0.0,0.0,0.0,0.0,0.0,0.0,0.0,0.0,0.0,0.0,0.0,0.0,0.0,0.0,0.0,0.0,0.0,0.0,0.0,0.0,0.0,0.0,0.0,0.0,0.0,0.0,0.0,0.0,0.0,0.0,0.0,0.0,0.0,0.0,0.0,0.0,0.0,0.0,0.0,0.0,0.0,0.0,0.0,0.0,0.0,0.0,0.0,0.0,0.0,0.0,0.0,0.0,0.0,0.0,0.0,0.0,0.0,0.0,0.0,0.0,0.0,0.0,0.0,0.0,0.0,0.0,0.0,0.0,0.0,0.0,0.0,0.0,0.0,0.0,0.0,0.0,0.0,0.0,0.0,0.0,0.0,0.0,0.0,0.0,0.0,0.0,0.0,0.0,0.0,0.0,0.0,0.0,0.0,0.0,0.0,0.0,0.0,0.0,0.0,0.0,0.0,0.0,0.0,0.0,0.0,0.0,0.0,0.0,0.0,0.0,0.0,0.0,0.0,0.0,0.0,0.0,0.0,0.0,0.0,0.0,0.0,0.0,0.0,0.0,0.0,0.0,0.0,0.0,0.0,0.0,0.0,0.0,0.0,0.0,0.0,0.0,0.0,0.0,0.0,0.0,0.0,0.0,0.0,0.0,0.0,0.0,0.0,0.0,0.0,0.0,0.0,0.0,0.0,0.0,0.0,0.0,0.0,0.0,0.0,0.0,0.0,0.0,0.0,0.0,0.0,0.0,0.0,0.0,0.0,0.0,0.0,0.0,0.0,0.0,0.0,0.0,0.0,0.0,0.0,0.0,0.0,0.0,0.0,0.0,0.0,0.0,0.0,0.0,0.0,0.0,0.0,0.0,0.0,0.0,0.0,0.0,0.0,0.0,0.0,0.0,0.0,0.0,0.0,0.0,0.0,0.0,0.0,0.0,0.0,0.0,0.0,0.0,0.0,0.0,0.0,0.0,0.0,0.0,0.0,0.0,0.0,0.0,0.0,0.0,0.0,0.0,0.0,0.0,0.0,0.0,0.0,0.0,0.0,0.0,0.0,0.0,0.0,0.0,0.0,0.0,0.0,0.0,0.0,0.0,0.0,0.0,0.0,0.0,0.0,0.0,0.0,0.0,0.0,0.0,0.0,0.0,0.0,0.0,0.0,0.0,0.0,0.0,0.0,0.0,0.0,0.0,0.0,0.0,0.0,0.0,0.0,0.0,0.0,0.0,0.0,0.0,0.0,0.0,0.0,0.0,0.0,0.0,0.0,0.0,0.0,0.0,0.0,0.0,0.0,0.0,0.0,0.0,0.0,0.0,0.0,0.0,0.0,0.0,0.0,0.0,0.0,0.0,0.0,0.0,0.0,0.0,0.0,0.0,0.0,0.0,0.0,0.0,0.0,0.0,0.0,0.0,0.0,0.0,0.0,0.0,0.0,0.0,0.0,0.0,0.0,0.0,0.0,0.0,0.0,0.0,0.0,0.0,0.0,0.0,0.0,0.0,0.0,0.0,0.0,0.0,0.0,0.0,0.0,0.0,0.0,0.0,0.0,0.0,0.0,0.0,0.0,0.0,0.0,0.0,0.0,0.0,0.0,0.0,0.0,0.0,0.0,0.0,0.0,0.0,0.0,0.0,0.0,0.0,0.0,0.0,0.0,0.0,0.0,0.0,0.0,0.0,0.0,0.0,0.0,0.0,0.0,0.0,0.0,0.0,0.0,0.0,0.0,0.0,0.0,0.0,0.0,0.0,0.0,0.0,0.0,0.0,0.0,0.0,0.0,0.0,0.0,0.0,0.0,0.0,0.0,0.0,0.0,0.0,0.0,0.0,0.0,0.0,0.0,0.0,0.0,0.0,0.0,0.0,0.0,0.0,0.0,0.0,0.0,0.0,0.0,0.0,0.0,0.0,0.0,0.0,0.0,0.0,0.0,0.0,0.0,0.0,0.0,0.0,0.0,0.0,0.0,0.0,0.0,0.0,0.0,0.0,0.0,0.0,0.0,0.0,0.0,0.0,0.0,0.0,0.0,0.0,0.0,0.0,0.0,0.0,0.0,0.0,0.0,0.0,0.0,0.0,0.0,0.0,0.0,0.0,0.0,0.0,0.0,0.0,0.0,0.0,0.0,0.0,0.0,0.0,0.0,0.0,0.0,0.0,0.0,0.0,0.0,0.0,0.0,0.0,0.0,0.0,0.0,0.0,0.0,0.0,0.0,0.0,0.0,0.0,0.0,0.0,0.0,0.0,0.0,0.0,0.0,0.0,0.0,0.0,0.0,0.0,0.0,0.0,0.0,0.0,0.0,0.0,0.0,0.0,0.0,0.0,0.0,0.0,0.0,0.0,0.0,0.0,0.0,0.0,0.0,0.0,0.0,0.0,0.0,0.0,0.0,0.0,0.0,0.0,0.0,0.0,0.0,0.0,0.0,0.0,0.0,0.0,0.0,0.0,0.0,0.0,0.0,0.0,0.0,0.0,0.0,0.0,0.0,0.0,0.0,0.0,0.0,0.0,0.0,0.0,0.0,0.0,0.0,0.0,0.0,0.0,0.0,0.0,0.0,0.0,0.0,0.0,0.0,0.0,0.0,0.0,0.0,0.0,0.0,0.0,0.0,0.0,0.0,0.0,0.0,0.0,0.0,0.0,0.0,0.0,0.0,0.0,0.0,0.0,0.0,0.0,0.0,0.0,0.0,0.0,0.0,0.0,0.0,0.0,0.0,0.0,0.0,0.0,0.0,0.0,0.0,0.0,0.0,0.0,0.0,0.0,0.0,0.0,0.0,0.0,0.0,0.0,0.0,0.0,0.0,0.0,0.0,0.0,0.0,0.0,0.0,0.0,0.0,0.0,0.0,0.0,0.0,0.0,0.0,0.0,0.0,0.0,0.0,0.0,0.0,0.0,0.0,0.0,0.0,0.0,0.0,0.0,0.0,0.0,0.0,0.0,0.0,0.0,0.0,0.0,0.0,0.0,0.0,0.0,0.0,0.0,0.0,0.0,0.0,0.0,0.0,0.0,0.0,0.0,0.0,0.0,0.0,0.0,0.0,0.0,0.0,0.0,0.0,0.0,0.0,0.0,0.0,0.0,0.0,0.0,0.0,0.0,0.0,0.0,0.0,0.0,0.0,0.0,0.0,0.0,0.0,0.0,0.0,0.0,0.0,0.0,0.0,0.0,0.0,0.0,0.0,0.0,0.0,0.0,0.0,0.0,0.0,0.0,0.0,0.0,0.0,0.0,0.0,0.0,0.0,0.0,0.0,0.0,0.0,0.0,0.0,0.0,0.0,0.0,0.0,0.0,0.0,0.0,0.0,0.0,0.0,0.0,0.0,0.0,0.0,0.0,0.0,0.0,0.0,0.0,0.0,0.0,0.0,0.0,0.0,0.0,0.0,0.0,0.0,0.0,0.0,0.0,0.0,0.0,0.0,0.0,0.0,0.0,0.0,0.0,0.0,0.0,0.0,0.0,0.0,0.0,0.0,0.0,0.0,0.0,0.0,0.0,0.0,0.0,0.0,0.0,0.0,0.0,0.0,0.0,0.0,0.0,0.0,0.0,0.0,0.0,0.0,0.0,0.0,0.0,0.0,0.0,0.0,0.0,0.0,0.0,0.0,0.0,0.0,0.0,0.0,0.0,0.0,0.0,0.0,0.0,0.0,0.0,0.0,0.0,0.0,0.0,0.0,0.0,0.0,0.0,0.0,0.0,0.0,0.0,0.0,0.0,0.0,0.0,0.0,0.0,0.0,0.0,0.0,0.0,0.0,0.0,0.0,0.0,0.0,0.0,0.0,0.0,0.0,0.0,0.0,0.0,0.0,0.0,0.0,0.0,0.0,0.0,0.0,0.0,0.0,0.0,0.0,0.0,0.0,0.0,0.0,0.0,0.0,0.0,0.0,0.0,0.0,0.0,0.0,0.0,0.0,0.0,0.0,0.0,0.0,0.0,0.0,0.0,0.0,0.0,0.0,0.0,0.0,0.0,0.0,0.0,0.0,0.0,0.0,0.0,0.0,0.0,0.0,0.0,0.0,0.0,0.0,0.0,0.0,0.0,0.0,0.0,0.0,0.0,0.0,0.0,0.0,0.0,0.0,0.0,0.0,0.0,0.0,0.0,0.0,0.0,0.0,0.0,0.0,0.0,0.0,0.0,0.0,0.0,0.0,0.0,0.0,0.0,0.0,0.0,0.0,0.0,0.0,0.0,0.0,0.0,0.0,0.0,0.0,0.0,0.0,0.0,0.0,0.0,0.0,0.0,0.0,0.0,0.0,0.0,0.0,0.0,0.0,0.0,0.0,0.0,0.0,0.0,0.0,0.0,0.0,0.0,0.0,0.0,0.0,0.0,0.0,0.0,0.0,0.0,0.0,0.0,0.0,0.0,0.0,0.0,0.0,0.0,0.0,0.0,0.0,0.0,0.0,0.0,0.0,0.0,0.0,0.0,0.0,0.0,0.0,0.0,0.0,0.0,0.0,0.0,0.0,0.0,0.0,0.0,0.0,0.0,0.0,0.0,0.0,0.0,0.0,0.0,0.0,0.0,0.0,0.0,0.0,0.0,0.0,0.0,0.0,0.0,0.0,0.0,0.0,0.0,0.0,0.0,0.0,0.0,0.0,0.0,0.0,0.0,0.0,0.0,0.0,0.0,0.0,0.0,0.0,0.0,0.0,0.0,0.0,0.0,0.0,0.0,0.0,0.0,0.0,0.0,0.0,0.0,0.0,0.0,0.0,0.0,0.0,0.0,0.0,0.0,0.0,0.0,0.0,0.0,0.0,0.0,0.0,0.0,0.0,0.0,0.0,0.0,0.0,0.0,0.0,0.0,0.0,0.0,0.0,0.0,0.0,0.0,0.0,0.0,0.0,0.0,0.0,0.0,0.0,0.0,0.0,0.0,0.0,0.0,0.0,0.0,0.0,0.0,0.0,0.0,0.0,0.0,0.0,0.0,0.0,0.0,0.0,0.0,0.0,0.0,0.0,0.0,0.0,0.0,0.0,0.0,0.0,0.0,0.0,0.0,0.0,0.0,0.0,0.0,0.0,0.0,0.0,0.0,0.0,0.0,0.0,0.0,0.0,0.0,0.0,0.0,0.0,0.0,0.0,0.0,0.0,0.0,0.0,0.0,0.0,0.0,0.0,0.0,0.0,0.0,0.0,0.0,0.0,0.0,0.0,0.0,0.0,0.0,0.0,0.0,0.0,0.0,0.0,0.0,0.0,0.0,0.0,0.0,0.0,0.0,0.0,0.0,0.0,0.0,0.0,0.0,0.0,0.0,0.0,0.0,0.0,0.0,0.0,0.0,0.0,0.0,0.0,0.0,2.2175,0.0,0.0,0.0,0.0,0.0,0.0,0.0,0.0,0.0,0.0,0.0,0.0,0.0,0.0,0.0,0.0,0.0,0.0,0.0,0.0,0.0,0.0,0.0,0.0,2.4937,2.5709,2.5693,2.5709,2.5664,2.5595,0.0,0.0,0.0,0.0,0.0,2.4833,2.3918,2.3427,2.3423,2.2983,2.2949,2.3323,2.3247,2.3793,2.4856,0.0,0.0,0.0,0.0,0.0,0.0,0.0,0.0,0.0,0.0,0.0,0.0,0.0,0.0,0.0,0.0,0.0,0.0,0.0,0.0,0.0,0.0,0.0,0.0,0.0,0.0,0.0,0.0,0.0,0.0,0.0,0.0,0.0,0.0,0.0,0.0,0.0,0.0,0.0,0.0,0.0,0.0,0.0,0.0,0.0,0.0,0.0,0.0,0.0,0.0,0.0,0.0,0.0,0.0,0.0,0.0,0.0,0.0,0.0,0.0,0.0,0.0,0.0,0.0,0.0,0.0,0.0,0.0,0.0,0.0,0.0,2.1079,0.0,0.0,0.0,0.0,0.0,0.0,0.0,0.0,0.0,0.0,0.0,0.0,0.0,0.0,0.0,0.0,0.0,0.0,0.0,0.0,0.0,2.3105,2.3096,2.4641,2.5683,2.5673,2.5642,2.5619,2.5574,0.0,0.0,0.0,0.0,2.5291,2.513,2.4149,2.3679,2.3757,2.2993,2.3064,2.3871,2.3656,2.3895,0.0,2.4945,0.0,0.0,0.0,0.0,0.0,0.0,0.0,0.0,0.0,0.0,0.0,0.0,0.0,0.0,0.0,0.0,0.0,0.0,0.0,0.0,0.0,0.0,0.0,0.0,0.0,0.0,0.0,0.0,0.0,0.0,0.0,0.0,0.0,0.0,0.0,0.0,0.0,0.0,0.0,0.0,0.0,0.0,0.0,0.0,0.0,0.0,0.0,0.0,0.0,0.0,0.0,0.0,0.0,0.0,0.0,0.0,0.0,0.0,0.0,0.0,0.0,0.0,0.0,2.3082,2.3044,2.2357,2.0983,1.9188,1.7209,1.7382,1.7612,1.7833,0.0,0.0,0.0,0.0,0.0,0.0,0.0,0.0,0.0,0.0,0.0,0.0,0.0,0.0,0.0,0.0,0.0,0.0,0.0,0.0,2.31,2.3093,2.4588,2.5581,2.5534,2.5481,2.5434,2.544,0.0,0.0,0.0,2.5109,2.462,2.4018,2.3083,2.279,2.3217,2.2914,2.2997,2.3379,0.0,0.0,0.0,2.4534,2.5279,0.0,0.0,0.0,0.0,0.0,0.0,0.0,0.0,0.0,0.0,0.0,0.0,0.0,0.0,0.0,0.0,0.0,0.0,0.0,0.0,0.0,0.0,0.0,0.0,0.0,0.0,0.0,0.0,0.0,0.0,0.0,0.0,0.0,0.0,0.0,0.0,0.0,0.0,0.0,0.0,0.0,0.0,1.8252,1.8053,0.0,0.0,0.0,0.0,0.0,0.0,0.0,0.0,0.0,0.0,0.0,0.0,0.0,0.4489,0.6969,0.8562,1.2027,1.7305,2.0074,2.0771,1.9579,1.8061,1.5273,1.1482,0.8522,0.0,1.2559,1.0858,0.0,0.0,0.0,0.0,0.0,0.0,0.0,0.0,0.0,0.0,0.0,0.0,0.0,0.0,0.0,0.0,0.0,0.0,0.0,0.0,0.0,2.41,2.4755,2.4354,2.4195,2.416,0.0,0.0,0.0,2.4926,2.3695,2.1615,1.8646,1.6075,1.3882,1.2079,1.2946,1.4359,0.0,0.0,0.0,0.0,2.022,2.2125,0.0,0.0,0.0,0.0,0.0,0.0,0.0,0.0,0.0,0.0,0.0,0.0,0.0,0.0,0.0,0.0,0.0,0.0,0.0,0.0,0.0,0.0,0.0,0.0,0.0,0.0,0.0,0.0,0.0,0.0,0.0,0.0,0.0,0.0,0.0,0.0,0.0,0.0,0.0,0.0,0.0,1.4775,1.3956,1.3139,1.3557,1.407,0.0,0.0,0.0,0.0,0.0,0.0,0.0,0.0,0.0,-0.0287,-0.1866,-0.1639,0.0614,0.2761,0.5928,1.0065,1.0885,1.0956,1.0255,0.8061,0.5723,0.3242,0.0432,-0.0565,-0.0126,0.1891,0.1912,0.0576,0.0,0.0,0.0,0.0,-0.1523,-0.1369,0.0,0.0,0.0,0.0,0.0,0.0,0.0,0.0,0.0,0.0,0.0,0.0,2.2155,2.279,2.2811,2.1801,0.0,0.0,0.0,0.0,0.0,2.3574,2.1139,1.7577,1.2893,0.8593,0.5196,0.2677,0.4355,0.0,0.0,0.0,0.0,0.0,0.0,0.0,0.0,0.0,0.0,0.0,0.0,0.0,0.0,0.0,0.0,0.0,0.0,0.0,0.0,0.0,0.0,0.0,0.0,0.0,0.0,0.0,0.0,0.0,0.0,0.0,0.0,0.0,0.0,0.0,0.0,0.0,0.0,0.0,0.0,0.0,0.0,0.0,0.0,0.0,0.0,0.0,0.0,1.0171,0.8745,0.7416,0.7655,0.8189,0.0,0.0,0.0,0.0,0.0,0.0,0.0611,-0.2294,-0.5095,-0.7739,-0.8949,-0.852,-0.635,-0.4074,-0.1139,0.2407,0.2291,0.1992,0.1445,-0.0895,-0.2929,-0.4749,-0.7004,-0.9485,-1.1577,-0.6872,-0.5903,-0.7355,-0.7886,-0.8505,-0.9126,-0.9398,-0.9585,-0.951,0.0,0.0,0.0,0.0,0.0,0.0,0.0,0.0,0.0,0.0,0.0,2.1297,0.0,0.0,0.0,0.0,0.0,0.0,0.0,0.0,0.0,2.1054,1.7086,1.2756,0.8241,0.2768,0.0,0.0,0.0,0.0,0.0,0.0,0.0,0.0,0.0,0.0,0.0,0.0,0.0,0.0,0.0,0.0,0.0,0.0,0.0,0.0,0.0,0.0,0.0,0.0,0.0,0.0,0.0,0.0,0.0,0.0,0.0,0.0,0.0,0.0,0.0,0.0,0.0,0.0,0.0,0.0,0.0,0.0,0.0,0.0,0.0,0.0,0.0,0.0,0.0,0.0,0.0,0.0,0.0,0.1073,0.1008,0.0,0.0,0.0,0.0,0.0,-0.2056,-0.4342,-0.672,-0.9597,-1.2479,-1.5352,-1.8059,-1.8152,-1.5367,-1.3831,-1.0416,-0.5114,-0.2807,-0.2443,-0.3867,-0.5267,-0.7827,-1.1246,-1.368,-1.6064,-1.7969,-1.4262,-1.3689,-1.5211,-1.5938,-1.6711,-1.7455,-1.784,-1.8039,-1.7801,0.0,0.0,0.0,1.9078,1.9192,1.9421,2.0067,2.026,2.0363,2.0428,2.0865,0.0,0.0,0.0,0.0,0.0,0.0,0.0,0.0,0.0,0.0,1.7132,1.3277,0.5504,-0.6553,-1.1039,-1.2647,0.0,0.0,0.0,0.0,0.0,0.0,0.0,0.0,0.0,0.0,0.0,0.0,0.0,0.0,0.0,0.0,0.0,0.0,0.0,0.0,0.0,0.0,0.0,0.0,0.0,0.0,0.0,0.0,0.0,0.0,0.0,0.0,0.0,0.0,0.0,0.0,0.0,0.0,0.0,0.0,0.0,0.0,0.0,0.0,0.0,0.0,0.0,0.0,0.0,0.0,0.0,0.0,-0.5634,-0.6008,0.0,-0.5199,-0.5392,-0.5954,-0.6944,-0.9025,-1.1155,-1.3257,-1.5745,-1.8065,-2.0185,-2.1674,-2.1675,-2.0059,-1.8417,-1.6312,-1.3827,-1.3799,-1.4055,-1.4615,-1.6256,-1.7574,-1.8591,-1.9135,-2.0102,-2.1195,-2.0295,-2.0134,-2.0516,-2.1084,-2.17,-2.2281,-2.2526,-2.2661,-2.2601,1.7727,1.7598,0.0,1.8046,1.841,1.8877,1.9561,2.0019,2.0308,2.0327,2.0311,0.0,0.0,0.0,0.0,0.0,0.0,0.0,0.0,0.0,1.5071,1.3225,0.6113,-0.377,-1.6519,-1.9113,0.0,0.0,0.0,0.0,0.0,0.0,0.0,0.0,0.0,0.0,0.0,0.0,0.0,0.0,0.0,0.0,0.7274,0.0,0.0,0.0,0.0,0.0,0.0,0.0,0.0,0.0,0.0,0.0,0.0,0.0,0.0,0.0,0.0,0.0,0.0,0.0,0.0,0.0,0.0,0.0,0.0,0.0,0.0,0.0,0.0,0.0,0.0,0.0,0.0,0.0,0.0,0.0,-0.9337,-1.1637,-1.2302,-1.2362,-1.1855,-1.2017,-1.2505,-1.331,-1.5099,-1.6906,-1.8601,-2.042,-2.1998,-2.3275,-2.373,-2.3534,-2.2603,-2.1228,-2.0194,-1.9481,-2.0636,-2.131,-2.1547,-2.2945,-2.3438,-2.315,-2.2694,-2.2775,-2.3254,-2.3697,-2.3823,-2.3803,-2.4129,-2.4531,-2.4945,-2.5046,-2.5124,-2.5063,1.7489,1.7439,1.7283,1.7165,1.7869,1.8535,1.8768,1.9658,2.0272,2.0207,0.0,0.0,0.0,0.0,0.0,0.0,0.0,0.0,0.0,0.0,1.2285,0.925,-0.4405,-1.4628,-2.039,0.0,0.0,0.0,0.0,0.0,0.0,0.0,0.0,0.0,0.0,0.0,0.0,0.0,0.0,0.0,0.0,0.0,0.1219,0.0,0.0,0.0,0.0,0.0,0.0,0.0,0.0,0.0,0.0,0.0,0.0,0.0,0.0,0.0,0.0,0.0,0.0,0.0,0.0,0.0,0.0,0.0,0.0,0.0,0.0,0.0,0.0,0.0,0.0,0.0,0.0,0.0,-0.7921,-1.1123,-1.4441,-1.6771,-1.7618,-1.7941,-1.7653,-1.7826,-1.8235,-1.889,-2.0169,-2.1418,-2.2612,-2.3536,-2.423,-2.4706,-2.4568,-2.4077,-2.3205,-2.2538,-2.2057,-2.1811,-2.2544,-2.325,-2.3923,-2.4469,-2.4702,-2.47,-2.4293,-2.4154,-2.4229,-2.4373,-2.467,-2.5113,-2.5178,-2.5376,-2.5606,-2.5604,-2.5607,-2.54,1.5735,1.554,1.5511,1.5956,1.6805,1.769,1.8522,1.9513,2.014,0.0,0.0,0.0,0.0,0.0,0.0,0.0,0.0,0.0,0.0,0.0,0.8578,0.0978,-0.9342,0.0,0.0,0.0,0.0,0.0,0.0,0.0,0.0,0.0,0.0,0.0,0.0,0.0,0.0,0.0,0.0,0.0,0.0,0.0,-0.6327,0.0,0.0,0.0,0.0,0.0,0.0,0.0,0.0,0.0,0.0,0.0,0.0,0.0,0.0,0.0,0.0,0.0,0.0,0.0,0.0,0.0,0.0,0.0,0.0,0.0,0.0,0.0,0.0,0.0,0.0,0.0,-1.3171,-1.4657,-1.3071,-1.5491,-1.8019,-1.976,-2.0539,-2.0957,-2.0969,-2.1349,-2.1739,-2.2184,-2.296,-2.3667,-2.4312,-2.4685,-2.4882,-2.4924,-2.4495,-2.3852,-2.2975,-2.2409,-2.2022,-2.1882,-2.2588,-2.3299,-2.4066,-2.4642,-2.4937,-2.4973,-2.4674,-2.4548,-2.4561,-2.4604,-2.4839,-2.5178,-2.5252,-2.541,-2.5582,-2.5551,-2.5507,-2.5351,1.5002,1.4765,1.4796,1.5444,1.6366,1.7343,1.8402,1.9446,2.0072,1.9972,0.0,0.0,0.0,0.0,0.0,0.0,0.0,0.0,0.8911,0.7864,0.3423,0.0,0.0,0.0,0.0,0.0,0.0,0.0,0.0,0.0,0.0,0.0,0.0,0.0,0.0,0.0,0.0,0.0,0.0,0.0,0.0,0.0,-1.1785,-1.0983,-0.9698,-0.7966,-0.5775,-0.4008,-0.2457,-0.019,0.0,0.0,0.0,0.0,0.0,0.0,0.0,0.0,0.0,0.0,0.0,0.0,0.0,0.0,0.0,0.0,0.0,0.0,0.0,0.0,0.0,0.0,0.0,0.0,-1.8221,-1.9501,-1.8804,-1.9648,-2.0772,-2.1888,-2.2519,-2.2912,-2.3071,-2.3442,-2.3802,-2.4114,-2.4555,-2.4948,-2.5233,-2.5271,-2.5172,-2.4918,-2.4365,-2.3672,-2.2814,-2.2262,-2.1969,-2.1911,-2.2556,-2.3283,-2.408,-2.4667,-2.5056,0.0,-2.4995,-2.4898,-2.491,-2.4905,-2.5048,0.0,0.0,0.0,0.0,0.0,-2.5282,-2.5271,1.5201,1.5,1.5028,1.5564,1.6481,1.7472,1.8372,1.943,2.0058,1.994,0.0,0.0,0.0,0.0,0.0,0.0,0.0,0.0,0.0,0.0,0.0,0.0,0.0,0.0,0.0,0.0,0.0,0.0,0.0,0.0,0.0,0.0,0.0,0.0,0.0,0.0,0.0,0.0,0.0,0.0,0.0,0.0,-1.5489,-1.5573,-1.4894,-1.3694,-1.2073,-1.0504,-0.8845,-0.6481,0.0,0.0,0.0,0.0,0.0,0.0,0.0,0.0,0.0,0.0,0.0,0.0,0.0,0.0,0.0,0.0,0.0,0.0,0.0,0.0,0.0,0.0,0.0,0.0,-2.2389,-2.354,-2.4077,-2.327,-2.2812,-2.3358,-2.3751,-2.4061,-2.4264,-2.452,-2.4765,-2.5024,-2.5277,-2.5473,-2.5572,0.0,0.0,0.0,0.0,-2.3415,-2.2634,-2.2102,-2.1853,-2.1882,-2.2505,-2.3221,-2.4004,-2.463,-2.5086,-2.5391,-2.5278,-2.5222,-2.5226,-2.5226,-2.5265,-2.5368,-2.5356,-2.5389,-2.5351,-2.4979,-2.4955,0.0,1.6885,1.6675,1.654,1.6556,1.737,1.8161,1.8533,1.9497,2.0134,1.9995,1.9252,0.0,0.0,0.0,0.0,0.0,0.0,0.0,0.0,0.0,0.0,0.0,0.0,0.0,0.0,0.0,0.0,0.0,0.0,0.0,0.0,0.0,0.0,0.0,0.0,0.0,0.0,0.0,0.0,0.0,0.0,0.0,-1.7192,-1.6951,-1.6637,-1.62,-1.5101,-1.3952,-1.2622,-1.062,-0.9439,-0.8167,-0.4019,0.0,0.0,0.0,0.0,0.0,0.0,0.0,0.0,0.0,0.0,0.0,0.0,0.0,0.0,0.0,0.0,0.0,0.0,0.0,0.0,-2.3741,-2.4464,-2.4919,-2.5103,-2.4809,-2.4478,-2.4222,-2.4352,-2.4545,-2.4749,-2.4949,-2.5159,-2.5305,-2.5476,-2.5544,-2.5522,-2.5337,-2.4969,-2.442,-2.3706,-2.2941,-2.2135,-2.1744,-2.1598,-2.1688,0.0,0.0,-2.3948,-2.4656,-2.5135,-2.5409,-2.5428,-2.5407,-2.536,-2.5369,-2.5258,-2.5072,-2.5143,-2.5031,-2.4809,-2.4463,-2.4507,-2.4707,1.9192,1.8119,1.733,1.8069,1.867,1.9393,2.0392,2.0714,2.0814,2.0706,1.9812,0.0,0.0,0.0,0.0,0.0,0.0,0.0,0.0,0.0,0.0,0.0,0.0,0.0,0.0,0.0,0.0,0.0,0.0,0.0,0.0,0.0,0.0,0.0,0.0,0.0,0.0,0.0,0.0,0.0,0.0,0.0,-1.8219,-1.7797,-1.7466,-1.7131,-1.6151,-1.5062,-1.3799,-1.2025,-1.0919,-0.9726,-0.6744,-0.4003,-0.1283,0.0,0.0,0.0,0.0,0.0,0.0,0.0,0.0,0.0,0.0,0.0,0.0,0.0,0.0,-2.0765,-2.2498,0.0,-2.4588,-2.5063,-2.5315,-2.5447,-2.5457,-2.5248,-2.4985,-2.4633,-2.4604,-2.4657,-2.4837,-2.503,-2.5215,-2.539,-2.5514,-2.5551,-2.5465,-2.5206,-2.4758,-2.4116,-2.3372,-2.2625,-2.1874,-2.1538,-2.1493,-2.1705,-2.239,-2.3173,-2.397,-2.4645,-2.5124,-2.5456,-2.5526,-2.5554,-2.5524,-2.5331,-2.5031,-2.4676,-2.4372,-2.4231,-2.4157,-2.382,-2.3876,-2.4163,2.109,1.9675,1.8666,1.9918,2.0245,2.0838,2.2317,2.2103,2.171,2.1483,2.0596,1.9591,1.8568,1.7954,1.7587,0.0,0.0,0.0,0.0,0.0,0.0,0.0,0.0,0.0,0.0,0.0,0.0,0.0,0.0,0.0,0.0,0.0,0.0,0.0,0.0,0.0,0.0,0.0,0.0,0.0,0.0,0.0,-1.8991,-1.8324,-1.7833,-1.7284,-1.6225,-1.4994,-1.3564,-1.2064,-1.068,-0.9277,-0.7887,-0.6153,-0.4113,-0.1427,0.1358,0.0,0.0,0.0,0.0,0.0,0.0,0.0,0.0,0.0,-2.0011,-2.2191,-2.3179,-2.3971,-2.5017,-2.5329,-2.5475,-2.557,-2.559,-2.5515,-2.5286,-2.5024,-2.4706,-2.4293,-2.441,-2.4572,-2.4678,-2.4905,-2.512,-2.5346,-2.5494,-2.5527,-2.5383,-2.506,-2.4568,-2.3839,-2.3117,-2.239,-2.1672,-2.1448,-2.1509,-2.184,-2.2478,-2.3204,-2.4026,-2.462,-2.5091,-2.5459,-2.5577,-2.5625,-2.5605,-2.5191,-2.4732,-2.417,-2.3462,-2.3163,-2.3137,-2.3,-2.3176,-2.3547,2.1463,2.1814,2.2083,2.2092,2.2211,2.2386,2.2648,2.2766,2.2551,2.1767,2.1441,2.1165,2.0853,2.0137,1.9938,2.0646,0.0,0.0,0.0,0.0,0.0,0.0,0.0,0.0,0.0,0.0,0.0,0.0,0.0,0.0,0.0,0.0,0.0,0.0,0.0,0.0,0.0,0.0,0.0,0.0,0.0,0.0,-1.9812,-1.8585,-1.7712,-1.6983,-1.576,-1.4207,-1.2561,-1.1173,-0.9826,-0.847,-0.7467,-0.6329,-0.5072,-0.3423,0.0,0.1326,0.3649,0.4322,0.2367,-0.5991,-1.029,-1.4312,0.0,0.0,-2.4495,-2.4868,-2.51,-2.5291,-2.5503,-2.5566,-2.5581,-2.5604,-2.5591,-2.5314,-2.4453,-2.4117,-2.3515,-2.2364,-2.3419,-2.4281,-2.4349,-2.4599,-2.4881,-2.5194,-2.54,-2.5453,-2.5328,-2.4985,-2.4417,-2.356,-2.2898,-2.2218,-2.1538,-2.1477,-2.1645,-2.1998,-2.2643,-2.3343,-2.4026,-2.4557,-2.4992,-2.5343,-2.5588,-2.5592,-2.5405,-2.4936,-2.4332,-2.3596,-2.274,-2.1938,-2.128,-2.1836,-2.2346,-2.2816,2.2134,2.2547,2.304,2.393,2.3713,2.3613,2.4178,2.3989,2.3636,2.3319,2.2747,2.2347,2.2256,2.1954,2.1998,2.2605,2.1658,0.0,0.0,0.0,0.0,0.0,0.0,0.0,0.0,0.0,0.0,0.0,0.0,0.0,0.0,0.0,0.0,0.0,0.0,0.0,0.0,0.0,0.0,0.0,0.0,0.0,-1.9615,-1.844,-1.6837,-1.5166,-1.4507,-1.3057,0.0,0.0,-0.8397,-0.7526,-0.5777,-0.4785,-0.403,-0.3011,-0.1592,0.0,0.0555,-0.132,-0.4885,0.0,-1.5095,-1.9015,-2.292,-2.406,-2.4158,-2.3804,-2.3863,-2.4,-2.4064,-2.4083,-2.408,0.0,-2.4088,-2.3936,-2.3495,-2.3101,-2.2507,-2.1507,-2.1976,-2.26,-2.3083,-2.3803,-2.444,-2.4928,-2.5234,-2.5327,-2.5185,-2.482,-2.4217,-2.3356,-2.2753,-2.2158,-2.1556,-2.1631,-2.1823,-2.2108,-2.2721,-2.3315,-2.3947,-2.447,-2.4973,-2.5479,-2.559,-2.5485,-2.5181,-2.4543,-2.3749,-2.28,-2.1866,-2.0926,-2.015,-2.0782,-2.136,-2.1915,2.263,2.3075,2.3631,2.5072,2.4828,2.4635,2.5322,2.4994,2.4595,2.4413,2.3808,2.3385,2.3392,2.3578,2.3794,2.3987,2.2403,2.0065,0.0,0.0,0.0,0.0,0.0,0.0,0.0,0.0,0.0,0.0,0.0,0.0,0.0,0.0,0.0,0.0,0.0,0.0,0.0,0.0,0.0,0.0,0.0,0.0,-1.9123,-1.7497,-1.5107,-1.2715,-1.2768,-1.143,0.0,0.0,-0.6303,-0.5448,-0.3507,-0.2638,-0.2202,-0.1616,-0.1186,-0.1143,-0.2342,-0.5901,-1.0128,-1.383,-1.7941,-2.1391,-2.2447,-2.2868,-2.2935,-2.2517,-2.2594,-2.2779,-2.2888,-2.2957,-2.2987,-2.2993,-2.2999,-2.2906,-2.2614,-2.2153,-2.1524,-2.0642,-2.0512,-2.0764,-2.1392,-2.2686,-2.3768,-2.4429,-2.4884,-2.5117,-2.5052,-2.4688,-2.406,-2.3206,-2.2678,-2.2164,-2.1664,-2.1827,-2.2027,-2.2292,-2.2807,-2.3305,-2.3885,-2.4463,-2.5053,-2.5574,-2.5574,-2.5337,-2.4909,-2.4148,-2.3184,-2.2051,-2.0988,-1.9997,-1.9214,-1.9656,-2.0273,-2.1091,2.2819,2.3618,2.4411,2.5245,2.5418,2.5457,2.5493,2.5531,2.527,2.4506,2.4372,2.4352,2.4368,2.5052,2.5317,2.4807,2.3464,2.1776,1.9721,1.7404,0.0,0.0,0.0,0.0,0.0,0.0,0.0,0.0,0.0,0.0,0.0,0.0,0.0,0.0,0.0,0.0,0.0,0.0,0.0,0.0,0.0,0.0,-1.8467,-1.5393,-1.2325,-0.9813,-1.0434,0.0,0.0,0.0,-0.3299,-0.177,-0.0755,-0.014,0.0,0.0702,-0.0145,0.0,-0.5016,-0.8356,-1.1888,-1.5823,-1.8594,-2.0555,-2.144,-2.166,-2.1719,-2.1969,-2.218,-2.2399,-2.2655,-2.2811,-2.2921,-2.2994,-2.2995,-2.2706,-2.1854,-2.1284,-2.0551,-1.9471,-1.9178,-1.9151,0.0,-2.1239,-2.2785,-2.3574,-2.4303,-2.4764,-2.4911,-2.4593,-2.4007,-2.3124,-2.2643,-2.2192,-2.1797,-2.1998,-2.2226,-2.249,-2.2884,-2.3348,-2.384,-2.4682,-2.5239,-2.5504,-2.5504,-2.5178,-2.4562,-2.3748,-2.267,-2.1424,-2.0276,-1.9207,-1.8344,-1.8293,-1.9111,-2.0429,2.2715,2.3218,2.383,2.5161,2.5408,2.5255,2.4728,2.5187,2.5519,2.5287,2.5254,0.0,0.0,0.0,0.0,0.0,2.3767,2.265,2.1443,2.1002,0.0,0.0,0.0,0.0,0.0,0.0,0.0,0.0,0.0,0.0,0.0,0.0,0.0,0.0,0.0,0.0,0.0,0.0,0.0,0.0,0.0,0.0,-1.4298,-1.026,-0.6869,-0.41,0.0,0.0,0.0,0.0,-0.0049,0.1116,0.2086,0.0,0.0,0.2478,0.0677,-0.1706,-0.503,-0.8893,-1.281,-1.6231,-1.8708,-2.0281,-2.0159,-1.9894,-1.9591,-1.9326,-1.9542,-1.9852,-2.0133,-2.0711,-2.1133,-2.1032,-2.1111,-2.1105,-2.0802,-2.0313,-1.975,-1.9103,-1.8818,0.0,0.0,0.0,0.0,-2.3004,-2.3878,-2.4491,-2.4752,-2.4454,-2.3879,-2.3052,-2.2669,-2.2271,-2.1869,-2.2089,-2.2186,-2.2237,-2.2958,-2.3574,-2.4081,-2.4745,-2.5159,-2.5352,-2.5329,-2.4886,-2.4125,-2.3138,-2.19,-2.0511,-1.9352,-1.8327,-1.7557,-1.7529,-1.821,-1.9319,2.2676,2.3026,2.3506,2.5112,2.5397,0.0,0.0,0.0,0.0,0.0,0.0,0.0,0.0,0.0,0.0,0.0,0.0,2.3343,2.2669,0.0,0.0,0.0,0.0,0.0,0.0,0.0,0.0,0.0,0.0,0.0,0.0,0.0,0.0,0.0,0.0,0.0,0.0,0.0,0.0,0.0,0.0,0.0,-0.6847,-0.3498,-0.0621,0.0,0.0,0.0,0.0,0.0,0.0,0.0,0.0,0.0,0.0,0.0,0.1288,-0.1567,-0.5181,-0.9052,-1.2756,-1.5609,-1.7406,-1.8341,-1.7749,-1.6825,-1.5767,-1.459,-1.4889,-1.5414,-1.5466,-1.7013,-1.8511,-1.9114,-1.9631,-2.002,-2.0109,-1.9964,-1.9727,-1.938,-1.9147,-1.9029,0.0,0.0,0.0,-2.25,-2.3554,-2.4307,-2.4681,-2.4409,-2.386,-2.3052,-2.2712,-2.2343,-2.194,-2.2061,-2.213,-2.2164,-2.288,-2.3541,-2.4155,-2.4667,-2.5011,-2.5216,-2.5079,-2.4523,-2.3639,-2.25,-2.1118,-1.9637,-1.8527,-1.7585,-1.6892,-1.7073,-1.7505,-1.8278,2.2732,2.3077,2.3568,0.0,0.0,0.0,0.0,0.0,0.0,0.0,0.0,0.0,0.0,0.0,0.0,0.0,0.0,0.0,2.3444,0.0,0.0,0.0,0.0,0.0,2.2924,2.1816,0.0,0.0,0.0,0.0,0.0,0.0,0.0,0.0,0.0,0.0,0.0,0.0,0.0,0.0,0.0,0.0,0.3105,0.4559,0.0,0.0,0.0,0.0,0.0,0.0,0.0,0.0,0.0,0.0,0.0,0.0,0.1699,-0.143,-0.5583,-0.8983,-1.1891,-1.411,-1.4903,-1.4948,-1.4326,-1.2623,-1.0478,-0.8112,-0.8559,-0.9301,-0.9068,0.0,-1.5166,-1.7311,-1.8627,-1.9475,-1.982,-2.0227,-2.0427,0.0,0.0,0.0,0.0,0.0,0.0,-2.2183,0.0,-2.4216,-2.4671,-2.4453,-2.3934,-2.3124,-2.2764,-2.2398,-2.1982,-2.1882,-2.1982,-2.2258,-2.2652,-2.3257,-2.4007,-2.4489,-2.4847,-2.5072,-2.479,-2.4085,-2.3042,-2.1829,-2.032,-1.8749,-1.7866,-1.7008,-1.6324,-1.6778,-1.6956,-1.7348,0.0,0.0,0.0,0.0,0.0,0.0,0.0,0.0,0.0,0.0,0.0,0.0,0.0,0.0,0.0,0.0,0.0,0.0,0.0,0.0,0.0,0.0,0.0,0.0,0.0,0.0,0.0,0.0,0.0,0.0,0.0,0.0,0.0,0.0,0.0,0.0,0.0,0.0,0.0,0.0,0.0,0.0,0.8094,0.0,0.0,0.0,0.0,0.0,0.0,0.0,0.0,0.0,0.0,0.8269,0.7217,0.4825,0.0,-0.1859,-0.5939,-0.9426,-1.2297,-1.4047,-1.4183,-1.3436,-1.178,-0.8872,-0.5984,-0.417,-0.3665,-0.3885,-0.5002,-0.8576,0.0,-1.5179,-1.7505,0.0,-2.0387,-2.0644,0.0,-2.0908,0.0,-2.0312,-2.075,-2.1297,0.0,0.0,-2.3644,-2.4263,-2.4671,-2.446,-2.4008,-2.3328,-2.2892,-2.2381,-2.179,-2.1291,-2.1229,-2.1502,-2.2184,-2.297,-2.3815,-2.4362,-2.4733,-2.4915,-2.4454,-2.3541,-2.2268,-2.0877,-1.9276,-1.7598,-1.6731,-1.6107,-1.5768,-1.612,-1.6383,-1.6813,0.0,0.0,0.0,0.0,0.0,0.0,0.0,0.0,0.0,0.0,0.0,0.0,0.0,0.0,0.0,0.0,0.0,0.0,0.0,0.0,0.0,0.0,0.0,0.0,0.0,0.0,0.0,0.0,0.0,0.0,0.0,0.0,0.0,0.0,0.0,0.0,0.0,0.0,0.0,0.0,0.0,0.0,0.0,0.0,0.0,0.0,0.0,0.0,0.0,0.0,0.0,1.1752,1.0574,0.9394,0.7931,0.5334,0.0,-0.1533,-0.5518,-0.8656,-1.1081,-1.2196,-1.1689,-1.0288,-0.7769,-0.4188,-0.0601,0.2162,0.2755,0.2393,0.1129,-0.3255,-0.7936,0.0,0.0,0.0,-1.9181,-2.0041,-2.0582,0.0,-2.0784,0.0,-2.1244,-2.1848,-2.2548,0.0,-2.3945,-2.4444,-2.4808,-2.4614,-2.4186,-2.3552,-2.2947,-2.2124,-2.1006,-2.0516,-2.0483,-2.0895,-2.1728,-2.2648,-2.3637,-2.4244,-2.4586,-2.4682,0.0,-2.2919,-2.1452,-1.9884,-1.8196,-1.6528,-1.5808,-1.5311,-1.5119,-1.5623,-1.5934,-1.6363,0.0,0.0,0.0,0.0,0.0,0.0,0.0,0.0,0.0,2.5379,2.5565,2.5664,2.5609,2.5425,0.0,0.0,0.0,0.0,0.0,0.0,0.0,0.0,0.0,0.0,0.0,0.0,0.0,0.0,0.0,0.0,0.0,0.0,0.0,0.0,0.0,0.0,0.0,0.0,0.0,0.0,0.0,0.0,0.0,0.0,0.0,0.0,0.0,0.0,0.0,0.0,1.6615,1.3387,1.2056,1.0532,0.8709,0.6001,0.2856,-0.0488,-0.4269,-0.6934,-0.8741,-0.9293,-0.8282,-0.6322,-0.3087,0.0872,0.5022,0.9113,0.9584,0.8926,0.7855,0.2834,-0.2724,-0.754,0.0,-1.4549,-1.7026,-1.8791,-1.9922,-2.0205,-2.0792,-2.1229,-2.1402,-2.2107,-2.2853,-2.3529,-2.4033,-2.4522,-2.5016,-2.4839,-2.4353,-2.3505,-2.2691,-2.1516,-1.9913,-1.9585,-1.9728,-2.0338,-2.128,-2.2358,-2.3476,-2.41,-2.4441,-2.4437,0.0,0.0,-2.0631,-1.8889,-1.7103,-1.544,-1.4869,-1.456,-1.4457,-1.5209,-1.5495,-1.5896,0.0,0.0,0.0,0.0,0.0,0.0,0.0,2.4953,2.5168,2.5303,2.5485,2.5604,2.5606,2.5425,0.0,0.0,0.0,0.0,0.0,0.0,0.0,0.0,0.0,0.0,0.0,0.0,0.0,0.0,0.0,0.0,0.0,0.0,0.0,0.0,0.0,0.0,0.0,0.0,0.0,0.0,0.0,0.0,0.0,0.0,0.0,0.0,0.0,0.0,0.0,0.0,1.8458,1.5428,1.3846,1.2127,1.0119,0.7424,0.4676,0.1761,-0.1787,-0.4164,-0.576,-0.6247,-0.5117,-0.2934,0.0778,0.5114,0.0,0.0,1.4386,1.4492,1.213,0.7712,0.263,-0.2794,-0.7565,-1.1752,-1.5156,-1.7172,-1.8569,0.0,-1.9756,-2.0081,-2.0353,-2.1278,0.0,0.0,0.0,-2.3895,-2.5178,-2.4992,-2.4099,-2.2424,-2.1249,-1.9999,-1.8806,-1.8612,-1.8812,-1.9459,-2.075,-2.2044,-2.3275,-2.4044,-2.4389,-2.4264,-2.3246,0.0,-1.9853,-1.7894,-1.5996,-1.4321,-1.3711,-1.3579,-1.3852,-1.4457,-1.4829,-1.5203,0.0,0.0,0.0,0.0,0.0,0.0,0.0,2.4904,2.516,2.5282,2.5468,2.562,2.5652,2.5508,2.5305,0.0,0.0,0.0,0.0,0.0,0.0,0.0,0.0,0.0,0.0,0.0,0.0,0.0,0.0,0.0,0.0,0.0,0.0,0.0,0.0,0.0,0.0,0.0,0.0,0.0,0.0,0.0,0.0,0.0,0.0,0.0,0.0,0.0,0.0,0.0,2.0856,1.8527,1.5909,1.3853,1.188,0.9434,0.7168,0.4742,0.1521,-0.0598,-0.1989,-0.2384,-0.1126,0.1145,0.4789,0.0,0.0,0.0,1.6734,1.6799,1.4398,1.0862,0.6711,0.1859,-0.2798,-0.7226,-1.1226,-1.3842,-1.5847,-1.7116,-1.7841,-1.8399,-1.8708,-1.9679,-2.0596,0.0,0.0,-2.2728,-2.4376,-2.3547,-2.2288,-2.0685,-1.9303,-1.8037,-1.6848,-1.666,-1.7013,-1.7819,-1.9201,-2.0779,-2.2507,-2.3308,-2.3786,-2.3895,-2.257,0.0,-1.8678,-1.6486,-1.4553,-1.2966,-1.2453,-1.2453,-1.2841,-1.3474,-1.4017,-1.4472,0.0,0.0,0.0,0.0,0.0,0.0,0.0,2.4733,2.5114,2.5273,2.5488,2.562,2.5676,2.5567,2.5404,0.0,0.0,0.0,0.0,0.0,0.0,0.0,0.0,0.0,0.0,0.0,0.0,0.0,0.0,0.0,0.0,0.0,0.0,0.0,0.0,0.0,0.0,0.0,0.0,0.0,0.0,0.0,0.0,0.0,0.0,0.0,0.0,0.0,0.0,0.0,2.2933,2.1365,1.8585,1.6241,1.4107,1.1932,1.0048,0.8047,0.5319,0.3424,0.2168,0.187,0.3099,0.5211,0.8637,1.1953,0.0,1.721,1.8184,1.8037,1.6134,1.3482,1.0293,0.0,0.2005,-0.2307,-0.6575,-0.9771,-1.2351,0.0,-1.5215,0.0,-1.6401,-1.7345,0.0,0.0,0.0,0.0,-2.3208,-2.183,-2.0354,-1.9043,-1.753,-1.6139,-1.4853,-1.4751,-1.5257,-1.6341,-1.7746,-1.9493,-2.1505,-2.2518,-2.305,-2.3118,-2.1643,0.0,0.0,-1.4868,-1.2902,-1.139,-1.0998,-1.109,-1.149,-1.2141,-1.2706,-1.3172,0.0,0.0,0.0,0.0,0.0,0.0,0.0,2.4272,2.5018,2.5264,2.5478,2.5593,2.5618,2.5547,2.5449,0.0,0.0,0.0,0.0,0.0,0.0,0.0,0.0,0.0,0.0,0.0,0.0,0.0,0.0,0.0,0.0,0.0,0.0,0.0,0.0,0.0,0.0,0.0,0.0,0.0,0.0,0.0,0.0,0.0,0.0,0.0,0.0,0.0,0.0,0.0,0.0,2.2877,2.2429,2.0088,1.7116,1.5137,0.0,0.0,0.9619,0.7839,0.6499,0.6432,0.7225,0.8811,1.1969,0.0,1.6327,1.8789,1.9476,1.9317,1.813,1.6191,1.3619,1.0075,0.0,0.2159,-0.1962,-0.5369,-0.8191,-1.0189,0.0,0.0,-1.2929,-1.3994,0.0,0.0,0.0,0.0,-2.1944,-2.0697,-1.9286,-1.8078,-1.6413,-1.4852,-1.3419,-1.3686,-1.4481,-1.5806,-1.7453,-1.9009,-2.049,-2.209,-2.2375,-2.1567,-2.0487,0.0,0.0,-1.3207,-1.1152,-0.9489,-0.9089,-0.9186,-0.9636,-1.0183,-1.0563,-1.0764,0.0,0.0,0.0,0.0,0.0,0.0,2.3281,2.4207,2.5002,2.5264,2.5445,2.5552,2.5595,2.5531,2.5466,0.0,0.0,0.0,0.0,0.0,0.0,0.0,0.0,0.0,0.0,0.0,0.0,0.0,0.0,0.0,0.0,0.0,0.0,0.0,0.0,0.0,0.0,0.0,0.0,0.0,0.0,0.0,0.0,0.0,0.0,0.0,0.0,0.0,0.0,0.0,0.0,0.0,2.364,2.2499,0.0,0.0,1.6381,1.4856,1.2887,1.1927,1.1298,1.045,1.1346,1.288,1.4623,1.6646,1.8506,1.9779,2.0492,2.05,1.9339,1.7898,1.6032,0.0,0.9891,0.6394,0.2596,-0.0937,-0.3929,-0.6169,-0.7752,0.0,0.0,0.0,0.0,0.0,0.0,0.0,-1.2748,-1.4111,-1.4539,-1.3769,-1.2243,-1.1079,-1.0333,-1.0765,-1.1795,-1.342,-1.5153,-1.7109,-1.9269,-2.0781,-2.077,-1.9469,-1.826,0.0,0.0,-1.0458,-0.8191,-0.6797,-0.6488,-0.6589,-0.7114,-0.8273,-0.8228,-0.7373,0.0,0.0,0.0,0.0,0.0,2.2875,2.3215,2.4185,2.4975,2.5248,2.5398,2.5524,2.557,2.5538,2.5488,2.5429,0.0,0.0,0.0,0.0,0.0,0.0,0.0,0.0,0.0,0.0,0.0,0.0,0.0,0.0,0.0,0.0,0.0,0.0,0.0,0.0,0.0,0.0,0.0,0.0,0.0,0.0,0.0,0.0,0.0,0.0,0.0,0.0,0.0,0.0,0.0,0.0,0.0,0.0,0.0,0.0,1.9027,1.7663,1.6132,1.5417,1.4894,1.4042,1.4797,1.6066,1.7199,1.8764,2.0202,2.1047,2.1485,2.1406,2.0426,1.9303,1.7793,0.0,1.293,0.9978,0.6732,0.3358,0.0376,-0.1952,0.0,-0.498,0.0,0.0,0.0,0.0,0.0,0.0,0.0,-0.6029,-0.7289,-0.82,-0.6822,-0.6199,-0.6399,-0.719,-0.8501,-1.0334,-1.22,-1.4227,-1.6376,-1.7525,-1.7097,-1.531,0.0,0.0,0.0,-0.6468,-0.4502,-0.3363,-0.3207,-0.3312,-0.3794,-0.4935,-0.4584,-0.3311,0.0,0.0,0.0,0.0,0.0,0.0,2.3046,2.4124,2.4898,2.5177,2.5386,2.5513,2.5492,2.5498,2.551,2.5506,0.0,0.0,0.0,0.0,0.0,0.0,0.0,0.0,0.0,0.0,0.0,0.0,0.0,0.0,0.0,0.0,0.0,0.0,0.0,0.0,0.0,0.0,0.0,0.0,0.0,0.0,0.0,0.0,0.0,0.0,0.0,0.0,0.0,0.0,0.0,0.0,0.0,2.4496,2.3512,0.0,2.1173,1.9825,1.9609,1.8183,1.6835,1.7085,1.7367,1.8032,1.9755,2.0374,2.1086,2.2803,2.2555,2.1902,2.1618,2.0426,1.8906,1.7156,1.5049,1.2788,1.0311,0.7447,0.4782,0.0,0.0,-0.068,-0.1925,0.0,0.0,0.0,0.0,0.0,0.0,0.297,0.2545,-0.1568,-0.0401,-0.0371,-0.1747,-0.3102,-0.4681,-0.6579,-0.8802,-1.0365,-1.1304,-1.1823,-1.0794,0.0,0.0,0.0,0.0,-0.1041,-0.0213,0.0863,0.0865,0.0703,0.0541,0.0378,0.0698,0.1441,0.0,0.0,0.0,0.0,0.0,0.0,0.0,2.4133,2.49,2.5231,2.5398,2.5515,2.5551,2.5527,2.5525,2.5565,0.0,0.0,0.0,0.0,0.0,0.0,0.0,0.0,0.0,0.0,0.0,0.0,0.0,0.0,0.0,0.0,0.0,0.0,0.0,0.0,0.0,0.0,0.0,0.0,0.0,0.0,0.0,0.0,0.0,0.0,0.0,0.0,0.0,0.0,0.0,0.0,0.0,0.0,0.0,2.3611,2.2481,2.1197,2.0534,2.0346,2.0254,1.9828,2.034,2.1108,2.169,2.2324,2.2878,2.3203,2.3134,2.2802,2.2078,2.0973,1.9693,1.8226,0.0,0.0,0.0,0.0,0.0,0.5603,0.3098,0.1337,0.0,0.0,0.0,0.0,0.0,0.0,0.0,0.8782,0.8186,0.3478,0.4317,0.4374,0.3349,0.2083,0.0757,-0.058,-0.159,-0.2409,-0.3006,-0.3128,0.0,0.0,0.0,0.0,0.0,0.3996,0.5598,0.7258,0.5883,0.5136,0.4823,0.496,0.5354,0.6314,0.0,0.0,0.0,0.0,0.0,0.0,0.0,2.4388,2.4954,2.5271,2.5429,2.5535,2.5595,2.5552,2.5542,2.5605,0.0,0.0,0.0,0.0,0.0,0.0,0.0,0.0,0.0,0.0,0.0,0.0,0.0,0.0,0.0,0.0,0.0,0.0,0.0,0.0,0.0,0.0,0.0,0.0,0.0,0.0,2.533,0.0,0.0,0.0,0.0,0.0,0.0,0.0,0.0,0.0,0.0,0.0,0.0,0.0,2.3006,2.2206,2.1622,2.1695,2.1886,2.151,2.2026,2.2703,2.3075,2.3501,2.3817,2.3758,2.3655,2.3312,2.238,2.1591,2.0693,1.9418,1.8382,0.0,0.0,0.0,0.0,0.737,0.0,0.0,0.0,0.0,0.0,0.0,0.0,0.0,0.0,1.2298,1.2542,1.0129,1.021,0.9718,0.852,0.7319,0.6175,0.5093,0.4298,0.3747,0.3436,0.4028,0.0,0.0,0.0,0.0,0.0,0.933,1.0333,1.1531,1.0238,0.9532,0.9286,0.946,0.9867,1.0889,0.0,0.0,0.0,0.0,0.0,0.0,0.0,0.0,2.5003,2.5272,2.5418,2.5527,2.5595,2.5613,2.5618,2.5605,0.0,0.0,0.0,0.0,0.0,0.0,0.0,0.0,0.0,0.0,0.0,0.0,2.5676,2.5701,2.5707,0.0,0.0,0.0,0.0,0.0,0.0,0.0,0.0,0.0,2.529,2.5239,0.0,0.0,0.0,0.0,0.0,0.0,0.0,0.0,0.0,0.0,0.0,0.0,0.0,0.0,0.0,0.0,0.0,2.2374,2.2097,2.2372,2.2707,2.3161,2.3986,2.4072,0.0,2.4408,2.4026,2.3406,2.2538,2.2186,2.1692,2.0535,1.9754,0.0,0.0,1.4423,0.0,0.0,0.6699,0.0,0.0,0.0,0.0,0.0,0.0,0.0,0.0,1.3748,1.5566,1.7379,1.6582,1.5275,1.3505,1.2439,1.1426,1.0445,0.9207,0.8596,0.8585,1.0084,0.0,0.0,0.0,0.0,0.0,1.4719,1.4179,1.416,1.3939,1.3771,1.3658,1.3816,1.4248,1.5017,0.0,0.0,0.0,0.0,0.0,0.0,0.0,0.0,0.0,0.0,2.547,2.5604,2.5668,2.5689,2.5661,0.0,0.0,0.0,0.0,0.0,0.0,0.0,0.0,0.0,0.0,0.0,0.0,2.5601,2.5661,2.5691,2.5707,2.5629,0.0,0.0,0.0,0.0,0.0,0.0,0.0,0.0,2.5236,2.5107,0.0,0.0,0.0,0.0,2.3715,2.3428,0.0,0.0,0.0,0.0,0.0,0.0,0.0,0.0,2.2483,2.2537,2.2666,0.0,2.33,2.3724,2.4117,2.4511,0.0,2.4804,2.4581,2.4321,2.3757,2.3047,2.218,2.1762,2.1208,2.0123,0.0,1.8935,1.7019,0.0,0.0,0.9418,0.8136,0.0,0.0,0.0,0.0,0.0,0.0,0.0,0.0,1.4511,1.5932,1.7648,1.8222,1.8043,1.7087,1.6361,1.5908,1.5735,1.5812,1.6114,1.6628,1.8368,0.0,0.0,0.0,0.0,1.958,1.8411,1.7829,1.7605,1.7402,1.7154,1.6917,1.7155,1.7518,1.8095,0.0,0.0,0.0,0.0,0.0,0.0,0.0,0.0,0.0,0.0,0.0,0.0,0.0,0.0,0.0,0.0,0.0,0.0,0.0,0.0,0.0,0.0,0.0,0.0,0.0,0.0,0.0,0.0,0.0,2.5664,0.0,0.0,0.0,0.0,0.0,0.0,0.0,0.0,0.0,0.0,2.5106,0.0,0.0,0.0,0.0,0.0,2.2867,2.2371,0.0,2.1399,2.1554,2.1925,0.0,0.0,0.0,0.0,2.2084,2.2215,2.2436,2.2958,2.3574,2.4045,2.446,2.479,2.4955,2.4818,2.4489,2.3914,0.0,2.2496,2.1706,2.1241,2.0676,0.0,1.9334,0.0,0.0,0.0,1.0841,0.976,0.0,0.0,0.0,0.0,0.0,0.0,0.0,0.0,0.0,1.5093,1.6269,1.779,1.8795,1.9225,1.907,1.8791,1.8655,1.8702,1.9063,1.9412,1.9863,2.1621,2.224,0.0,0.0,0.0,2.1787,2.0919,2.0335,2.0073,1.9922,1.9706,1.9524,1.974,2.0059,2.0527,0.0,0.0,0.0,0.0,0.0,0.0,0.0,0.0,0.0,0.0,0.0,0.0,0.0,0.0,0.0,0.0,0.0,0.0,0.0,0.0,0.0,0.0,0.0,0.0,0.0,0.0,0.0,0.0,0.0,0.0,0.0,0.0,0.0,0.0,0.0,0.0,0.0,0.0,0.0,0.0,2.4968,0.0,0.0,0.0,0.0,0.0,0.0,0.0,0.0,2.0433,2.0813,2.1342,2.1045,0.0,0.0,0.0,0.0,0.0,2.2136,2.2695,2.3328,2.383,2.4209,2.4484,2.4551,0.0,0.0,0.0,0.0,0.0,2.0798,2.0313,0.0,0.0,0.0,0.0,1.3431,1.1805,1.0615,0.9755,0.0,0.0,0.0,0.0,0.0,0.0,0.0,0.0,0.0,1.5618,1.6579,1.7913,1.8831,1.9535,2.0016,2.0108,2.0145,2.0167,2.0272,2.0361,2.0467,2.2142,2.2694,0.0,0.0,0.0,2.3094,2.2548,2.2129,2.1859,2.1802,2.1711,2.1632,2.1747,2.2027,2.241,0.0,0.0,0.0,0.0,0.0,0.0,0.0,0.0,0.0,0.0,0.0,0.0,0.0,0.0,0.0,0.0,0.0,0.0,0.0,0.0,0.0,0.0,0.0,0.0,0.0,0.0,0.0,0.0,0.0,0.0,2.5624,2.567,2.5655,0.0,0.0,0.0,0.0,0.0,0.0,2.5103,2.4902,0.0,0.0,0.0,0.0,0.0,0.0,0.0,0.0,1.8645,1.9175,2.0058,1.9841,0.0,0.0,0.0,0.0,0.0,2.2108,2.2483,2.296,2.3588,2.3844,2.3928,2.3874,2.3382,0.0,0.0,0.0,0.0,0.0,1.7958,1.7296,0.0,0.0,1.3345,0.0,0.0,1.047,0.0,0.0,0.0,0.0,0.0,0.0,0.0,0.0,0.0,0.0,1.6144,1.6881,1.8119,1.8897,1.9562,2.0084,2.026,2.0371,2.0447,2.0453,2.0475,2.0547,2.2215,2.2797,0.0,0.0,2.4189,2.3663,2.3464,2.3241,2.3034,2.3034,2.2999,2.2994,2.3082,2.3294,2.3619,0.0,0.0,0.0,0.0,0.0,0.0,0.0,0.0,0.0,0.0,0.0,0.0,0.0,0.0,0.0,0.0,0.0,0.0,0.0,0.0,0.0,0.0,0.0,0.0,0.0,0.0,0.0,0.0,0.0,2.5285,2.4902,2.5448,2.5652,2.56,0.0,0.0,0.0,0.0,0.0,2.5012,0.0,0.0,0.0,0.0,0.0,0.0,0.0,0.0,0.0,0.0,1.8697,1.9691,1.946,0.0,0.0,0.0,0.0,0.0,2.1969,2.2198,2.2402,2.2531,2.2856,2.3058,2.2645,2.1754,0.0,0.0,0.0,0.0,0.0,0.0,1.3971,1.249,0.0,1.0686,0.0,0.0,0.0,0.0,0.0,0.0,0.0,0.0,0.0,0.0,0.0,0.0,0.0,0.0,1.7186,1.8233,1.8937,1.9544,2.0049,2.0249,2.0399,2.0505,2.0546,2.0558,2.0593,2.1753,2.2404,2.266,0.0,2.4148,2.4155,2.4022,2.3881,2.3741,2.378,2.3785,2.3812,2.3971,2.417,2.4412,0.0,0.0,0.0,0.0,0.0,0.0,0.0,0.0,0.0,0.0,0.0,0.0,0.0,0.0,0.0,0.0,0.0,0.0,0.0,0.0,0.0,0.0,0.0,0.0,0.0,0.0,0.0,2.4032,2.4571,2.4665,2.4336,2.5251,2.5643,0.0,0.0,0.0,0.0,0.0,0.0,2.4923,0.0,0.0,0.0,0.0,0.0,0.0,0.0,0.0,0.0,0.0,0.0,0.0,0.0,0.0,0.0,2.1215,2.1371,2.157,2.1811,2.1866,2.1786,2.1327,2.1578,2.1752,2.0849,1.9481,0.0,0.0,0.0,0.0,0.0,1.2101,0.0,0.9095,0.8581,0.0,0.0,0.0,0.0,0.0,0.0,0.0,0.0,0.0,0.0,0.0,0.0,0.0,0.0,0.0,1.7484,1.8348,1.8955,1.9524,2.0003,2.0181,2.0346,2.0509,2.0562,2.0604,2.0629,2.1383,2.2094,2.2771,2.3454,2.406,2.4554,2.4444,2.4321,2.4211,2.4302,2.4353,2.4449,2.4657,2.482,2.493,0.0,0.0,0.0,0.0,0.0,0.0,0.0,0.0,0.0,0.0,0.0,0.0,0.0,0.0,0.0,0.0,0.0,0.0,0.0,0.0,0.0,0.0,0.0,0.0,0.0,2.4391,2.3872,2.3818,2.3204,2.3411,2.4401,2.5232,2.5593,2.56,0.0,0.0,0.0,0.0,0.0,2.4776,2.4454,0.0,0.0,0.0,0.0,0.0,0.0,0.0,0.0,0.0,0.0,0.0,0.0,0.0,2.1215,2.1262,2.145,2.1603,2.1768,2.1521,2.1053,2.0217,2.0125,1.9776,1.8171,1.6166,0.0,1.2683,0.0,0.0,0.0,0.8436,0.7212,0.642,0.6305,0.0,0.0,0.0,0.0,0.0,0.0,0.0,0.0,0.0,0.0,0.0,0.0,0.0,0.0,0.0,0.0,1.8553,1.9041,1.9524,2.0012,2.0131,2.0307,2.0492,2.0579,2.0602,2.0636,2.143,2.2161,2.2828,2.3573,2.4231,2.4775,2.4704,2.4626,2.4575,2.4636,2.4809,2.5061,2.5133,2.5197,2.5272,0.0,0.0,0.0,0.0,0.0,0.0,0.0,0.0,0.0,0.0,0.0,0.0,0.0,0.0,0.0,0.0,0.0,0.0,0.0,0.0,0.0,0.0,0.0,2.4965,2.4815,2.4466,2.3807,2.2811,2.2784,2.3573,2.5158,2.5457,0.0,0.0,0.0,0.0,0.0,0.0,0.0,2.4695,2.4332,2.3848,0.0,0.0,0.0,0.0,0.0,0.0,0.0,0.0,1.836,1.9518,0.0,1.9638,2.0675,2.0782,2.0872,2.0999,2.1301,2.0879,2.0011,1.8424,1.6652,0.0,0.0,1.2573,1.0298,0.8813,0.7492,0.0,0.0,0.0,0.4819,0.4191,0.0,0.0,0.0,0.0,0.0,0.0,0.0,0.0,0.0,0.0,0.0,0.0,0.0,0.0,0.0,0.0,0.0,1.8645,1.9073,1.9537,2.0003,2.0165,2.0349,2.051,2.0536,2.0546,2.0568,2.1409,2.2187,2.2901,2.3694,2.4405,2.505,2.498,2.4921,2.4921,2.5043,2.5141,2.5245,2.5343,2.541,2.5439,0.0,0.0,0.0,0.0,0.0,0.0,0.0,0.0,0.0,0.0,0.0,0.0,0.0,0.0,0.0,0.0,0.0,0.0,0.0,0.0,0.0,0.0,0.0,2.4704,2.4403,2.4388,2.3754,2.2489,2.2952,2.3864,2.5191,0.0,0.0,0.0,0.0,0.0,0.0,0.0,0.0,0.0,2.4244,2.3689,0.0,0.0,0.0,0.0,0.0,0.0,0.0,0.0,1.8656,1.9811,1.9273,1.9865,2.073,2.0836,2.0776,2.0722,2.0783,2.0058,1.8709,1.6515,0.0,0.0,1.0048,0.8232,0.6339,0.4908,0.3903,0.0,0.0,0.0,0.0,0.0,0.0,0.0,0.0,0.0,0.0,0.0,0.0,0.0,0.0,0.0,0.0,0.0,0.0,0.0,0.0,0.0,0.0,0.0,1.9201,1.9601,2.0012,2.0465,2.0778,2.0903,2.1196,2.1172,2.0947,2.1815,2.262,2.3372,2.3875,2.4533,2.5222,2.5164,2.5153,2.5209,2.5313,2.5385,2.5406,2.5493,2.5543,2.556,0.0,0.0,0.0,0.0,0.0,0.0,0.0,0.0,0.0,0.0,0.0,0.0,0.0,0.0,0.0,0.0,0.0,0.0,0.0,0.0,0.0,0.0,0.0,2.4531,2.4213,2.4025,2.3644,2.3131,2.3709,2.4111,2.4328,0.0,0.0,0.0,0.0,0.0,0.0,0.0,0.0,0.0,2.4191,2.3587,2.2947,0.0,0.0,0.0,0.0,0.0,0.0,0.0,1.9388,2.0595,2.0664,0.0,0.0,2.1573,2.1402,2.1039,2.0371,1.9002,1.7156,1.4598,0.0,0.0,0.4168,0.3077,0.2358,0.1034,0.0,0.1042,0.1165,0.0,0.0,0.0,0.0,0.0,0.0,0.0,0.0,0.0,0.0,0.0,0.0,0.0,0.0,0.0,0.0,0.0,0.0,0.0,0.0,0.0,1.9429,1.9736,2.0012,2.108,2.1687,2.1831,2.2697,2.2656,2.1849,2.272,2.3556,2.4291,2.4179,2.4566,2.5293,2.5234,2.5284,2.5404,2.549,2.5544,2.5596,2.5599,2.5634,2.5699,0.0,0.0,0.0,0.0,0.0,0.0,0.0,0.0,0.0,0.0,0.0,0.0,0.0,0.0,0.0,0.0,0.0,0.0,0.0,0.0,0.0,0.0,0.0,0.0,0.0,0.0,2.4243,2.4229,2.4068,2.4381,0.0,0.0,0.0,2.5438,0.0,0.0,0.0,0.0,0.0,0.0,0.0,2.3587,2.2947,0.0,0.0,0.0,0.0,0.0,0.0,0.0,0.0,0.0,2.0135,0.0,2.0891,2.0849,2.0654,2.0342,1.9693,1.8045,1.578,1.2754,0.0,0.0,0.0,0.0766,0.0,0.0,0.0,-0.0805,0.0,0.0,0.0,0.0,0.0,0.0,0.0,0.0,0.0,0.0,0.0,0.0,0.0,0.0,0.0,0.0,0.0,0.0,0.0,0.0,0.0,0.0,2.0094,2.0713,2.0973,2.206,2.2633,2.2714,2.3603,2.3567,2.2732,2.3612,2.4121,2.433,2.4858,2.5186,2.5365,2.539,2.5456,2.5544,2.5554,2.562,2.5678,2.5675,2.5671,2.5698,0.0,0.0,0.0,0.0,0.0,0.0,0.0,0.0,0.0,0.0,0.0,0.0,0.0,0.0,0.0,0.0,0.0,0.0,0.0,0.0,0.0,0.0,0.0,0.0,0.0,2.4407,2.4596,0.0,0.0,0.0,0.0,0.0,0.0,2.4869,0.0,2.4405,0.0,0.0,0.0,0.0,0.0,2.3136,2.2551,0.0,0.0,0.0,0.0,0.0,0.0,0.0,0.0,0.0,2.0649,0.0,2.0996,2.0954,2.0481,1.9805,1.8783,1.6744,0.0,1.0764,0.7131,0.3517,0.0055,0.0,0.0,0.0,0.0,-0.179,0.0,0.0,0.0,0.0,0.0,0.0,0.0,0.0,0.0,0.0,0.0,0.0,0.0,0.0,0.0,0.0,0.0,0.0,0.0,0.0,0.0,0.0,2.1161,2.1719,2.1944,2.2991,2.3547,2.3637,2.45,2.4641,2.4159,2.4688,2.4888,2.4837,2.5292,2.5449,2.5418,2.5498,2.5564,2.5599,2.5634,2.5652,2.5703,2.5698,2.5693,2.5698,0.0,0.0,2.4765,2.5544,0.0,0.0,0.0,0.0,0.0,0.0,0.0,2.5471,0.0,0.0,0.0,2.5484,0.0,0.0,0.0,0.0,0.0,0.0,0.0,0.0,0.0,0.0,0.0,0.0,0.0,0.0,0.0,0.0,2.4044,2.3937,0.0,2.2886,0.0,0.0,0.0,0.0,2.2595,2.2395,2.1943,2.2298,0.0,0.0,0.0,0.0,0.0,0.0,0.0,0.0,2.1797,2.1708,2.1564,2.1523,2.0602,1.9317,1.7726,1.5266,1.2286,0.8877,0.5492,0.0,-0.1722,-0.285,-0.3244,-0.3461,0.0,0.0,0.0,0.0,0.0,0.0,0.0,0.0,0.0,0.0,0.0,0.0,0.0,0.0,0.0,0.0,0.0,0.0,0.0,0.0,0.0,0.0,0.0,2.2077,2.245,2.2729,2.2929,2.3915,2.4457,0.0,2.5327,2.5699,2.5701,2.5696,2.5664,2.5595,2.5525,2.5471,2.5422,2.555,2.5601,2.562,2.5675,2.5703,2.571,2.5701,2.5699,2.5703,0.0,0.0,2.5401,2.559,0.0,0.0,0.0,0.0,2.5662,2.5589,2.5529,2.5498,2.5492,2.5437,0.0,2.5423,2.5421,0.0,0.0,0.0,0.0,0.0,0.0,0.0,0.0,0.0,0.0,0.0,0.0,0.0,0.0,0.0,0.0,2.3004,0.0,2.2815,0.0,0.0,0.0,2.2353,2.2061,2.1986,2.2028,2.1794,2.1977,0.0,0.0,0.0,0.0,0.0,0.0,0.0,2.194,2.1721,2.134,2.0807,2.0009,1.8842,1.6621,1.426,0.0,0.8155,0.4047,0.0444,-0.1116,-0.1453,-0.1732,-0.2847,-0.2571,0.0,0.0,0.0,0.0,0.0,0.0,0.0,0.0,0.0,0.0,0.0,0.0,0.0,0.0,0.0,0.0,0.0,0.0,0.0,0.0,0.0,0.0,2.2238,2.3134,2.3698,2.3898,2.4833,2.5342,0.0,2.5607,2.5699,2.57,2.5707,2.5634,2.5518,2.551,2.549,2.5486,2.5562,2.563,2.5691,2.5693,2.5701,2.5703,2.57,2.5703,2.5703,0.0,0.0,0.0,0.0,0.0,0.0,0.0,0.0,2.5681,2.5605,2.5546,2.5492,2.5464,2.5045,0.0,0.0,2.5031,2.4951,0.0,0.0,0.0,0.0,0.0,0.0,0.0,0.0,0.0,0.0,0.0,0.0,0.0,0.0,0.0,2.212,0.0,2.1604,0.0,0.0,0.0,2.1232,2.1522,2.1643,2.1661,2.207,2.2384,2.2615,2.2473,0.0,0.0,0.0,0.0,0.0,0.0,0.0,2.1247,2.0655,1.9505,1.8003,1.5975,1.3504,0.0,0.6624,0.0,0.0781,0.0167,0.0,-0.0167,-0.0668,-0.1004,0.0,0.0,0.0,0.0,0.0,0.0,0.0,0.0,0.0,0.0,0.0,0.0,0.0,0.0,0.0,0.0,0.0,0.0,0.0,0.0,2.2417,2.2873,2.3515,2.4208,2.4638,2.481,2.5376,2.5671,2.5707,2.5698,2.5703,2.5709,2.5671,2.559,2.5492,2.5498,2.5518,2.5543,2.562,2.5664,2.5696,2.5694,2.5699,2.5699,2.5703,2.5703,2.5703,0.0,0.0,0.0,0.0,0.0,0.0,0.0,0.0,0.0,2.5613,2.5542,2.5415,2.5213,2.4538,2.4321,0.0,0.0,0.0,2.4923,0.0,0.0,0.0,0.0,0.0,0.0,0.0,0.0,0.0,0.0,0.0,0.0,0.0,0.0,2.1263,0.0,0.0,0.0,0.0,2.0454,2.0432,2.1291,2.1534,2.1447,2.2447,2.2905,2.2977,2.2902,2.2816,2.2712,2.2542,0.0,0.0,0.0,0.0,2.1199,2.0599,1.9091,1.7225,1.5483,1.2687,0.9362,0.5509,0.337,0.0,0.1835,0.1613,0.1612,0.2001,0.0,0.0,0.0,0.0,0.0,0.0,0.0,0.0,0.0,0.0,0.0,0.0,0.0,0.0,0.0,0.0,0.0,0.0,0.0,0.0,2.3107,2.3452,2.403,2.491,2.5184,2.5365,2.5503,2.5632,2.5703,2.5707,2.5703,2.5694,2.5693,2.564,2.5571,2.5531,2.5525,2.5543,2.5609,2.5667,2.5701,2.5709,2.5702,2.5703,2.5703,2.5703,2.5703,2.5703,0.0,0.0,0.0,0.0,0.0,0.0,0.0,0.0,0.0,0.0,2.5576,2.5214,2.4444,2.4196,2.3839,2.3189,2.3032,2.3052,0.0,0.0,0.0,0.0,0.0,0.0,0.0,0.0,0.0,0.0,0.0,0.0,0.0,0.0,0.0,2.0463,0.0,0.0,0.0,0.0,2.1702,2.215,2.1945,2.204,2.2311,2.2247,2.2681,2.3318,2.3271,2.3247,2.323,2.2876,2.2659,0.0,0.0,0.0,0.0,2.012,1.8725,1.7049,1.4903,0.0,0.7852,0.0,0.5094,0.3996,0.0,0.0,0.3825,0.0,0.0,0.0,0.0,0.0,0.0,0.0,0.0,0.0,0.0,0.0,0.0,0.0,0.0,0.0,0.0,0.0,0.0,0.0,0.0,0.0,2.417,2.4409,2.4695,2.5057,2.5224,2.5354,2.5511,2.5638,2.5703,2.5707,2.5703,2.5696,2.5705,2.5693,2.564,2.5593,2.5593,2.559,2.5615,2.5671,2.5701,2.5709,2.5702,2.5703,2.5703,2.5697,2.5691,2.5693,0.0,0.0,0.0,0.0,0.0,0.0,0.0,0.0,0.0,0.0,0.0,2.5201,2.429,2.3746,2.3273,2.2889,2.2411,0.0,0.0,0.0,0.0,0.0,0.0,0.0,0.0,0.0,0.0,0.0,0.0,0.0,0.0,2.2243,2.1591,0.0,0.0,0.0,0.0,0.0,0.0,2.2564,2.2614,2.2637,2.2676,0.0,2.3279,2.3671,2.3602,0.0,2.3468,2.3102,2.2816,2.2525,2.2113,0.0,0.0,0.0,1.8717,1.7081,1.4521,1.1783,0.9446,0.0,0.7402,0.6235,0.6119,0.0,0.5837,0.0,0.0,0.0,0.0,0.0,0.0,0.0,0.0,0.0,0.0,0.0,0.0,0.0,0.0,0.0,0.0,0.0,0.0,0.0,0.0,2.4211,2.4439,2.4716,2.4966,2.5141,2.5293,2.5406,2.5499,2.5629,2.5694,2.57,2.5703,2.5699,2.5707,2.5703,2.5665,2.5595,2.5605,2.5619,2.5664,2.5699,2.5701,2.5709,2.5702,2.5703,2.5703,2.5694,2.5698,2.5707,0.0,0.0,0.0,0.0,0.0,0.0,0.0,0.0,0.0,0.0,0.0,2.5246,2.4321,0.0,0.0,0.0,2.1767,0.0,0.0,0.0,0.0,0.0,0.0,0.0,0.0,0.0,0.0,0.0,0.0,0.0,2.157,2.1435,2.1035,0.0,2.1327,0.0,0.0,0.0,0.0,2.3279,2.3506,2.3446,2.3272,2.3662,2.3899,2.4018,0.0,0.0,0.0,0.0,0.0,0.0,0.0,0.0,0.0,0.0,0.0,1.6921,0.0,0.0,1.1349,1.0595,0.9426,0.8349,0.0,0.0,0.7717,0.0,0.0,0.0,0.0,0.0,0.0,0.0,0.0,0.0,0.0,0.0,0.0,0.0,0.0,0.0,0.0,0.0,0.0,0.0,0.0,2.4408,2.457,2.4847,2.5069,2.5198,2.534,2.5437,2.5504,2.5634,2.5693,2.5703,2.5703,2.5702,2.5694,2.5709,2.5679,2.5639,2.5625,2.5648,2.5707,2.5701,2.5696,2.5696,2.5703,2.5703,2.5703,2.5697,2.5696,2.5691,0.0,0.0,0.0,0.0,0.0,0.0,0.0,0.0,0.0,0.0,0.0,2.5261,2.4401,2.345,2.2572,2.1743,2.0881,0.0,0.0,0.0,0.0,0.0,0.0,0.0,0.0,0.0,0.0,0.0,0.0,0.0,2.1485,2.0793,2.0488,2.0524,2.1344,2.2167,2.2994,0.0,0.0,2.5032,2.4818,2.4596,2.4405,2.4174,2.4192,2.4357,0.0,0.0,0.0,0.0,0.0,0.0,0.0,2.1688,2.1055,0.0,0.0,0.0,0.0,1.4031,0.0,1.1722,1.0773,0.0,0.0,0.0,0.0,0.0,0.0,0.0,0.0,0.0,0.0,0.0,0.0,0.0,0.0,0.0,0.0,0.0,0.0,0.0,0.0,0.0,0.0,0.0,0.0,2.4588,2.4775,2.4929,2.5056,2.5201,2.532,2.5432,2.5504,2.5636,2.5696,2.5703,2.5703,2.5703,2.5703,2.5696,2.5691,2.5694,2.5681,2.5698,2.5707,2.5693,2.57,2.5703,2.5703,2.5703,2.5703,2.5701,2.5691,2.571,0.0,0.0,0.0,0.0,0.0,0.0,0.0,0.0,0.0,0.0,0.0,0.0,0.0,2.3494,2.2624,2.1793,2.0929,0.0,0.0,0.0,0.0,0.0,0.0,0.0,0.0,0.0,0.0,0.0,0.0,2.0096,2.0525,2.0398,2.037,2.0503,2.1909,2.2703,2.3086,2.4508,0.0,2.5309,2.5084,2.4912,0.0,2.4567,2.4554,2.4651,0.0,0.0,0.0,0.0,0.0,0.0,2.2368,2.179,2.1039,1.9849,1.8593,1.7447,0.0,0.0,0.0,1.3961,1.3029,1.213,1.1765,1.143,0.0,0.0,0.0,0.0,0.0,0.0,0.0,0.0,0.0,0.0,0.0,0.0,0.0,0.0,0.0,0.0,0.0,0.0,0.0,0.0,0.0,0.0,2.4929,2.5099,2.5222,2.5332,2.5414,2.5531,2.5634,2.569,2.5696,2.5703,2.5703,2.5703,2.5703,2.5702,2.57,2.5698,2.5709,2.5705,2.5707,2.5709,2.5693,2.5697,2.5703,2.5703,2.5703,2.5702,2.5694,2.5701,0.0,0.0,0.0,2.55,0.0,2.5472,2.5492,2.5535,0.0,0.0,0.0,0.0,0.0,0.0,2.2953,0.0,0.0,0.0,0.0,0.0,0.0,0.0,0.0,0.0,0.0,0.0,0.0,0.0,0.0,0.0,0.0,2.0154,2.0279,2.0433,2.2218,2.2995,0.0,0.0,0.0,2.5419,0.0,0.0,2.5069,0.0,2.4873,0.0,0.0,0.0,0.0,0.0,0.0,0.0,0.0,2.184,2.0829,1.9702,1.8945,1.8307,1.7832,0.0,0.0,0.0,0.0,1.3882,1.3343,0.0,0.0,0.0,0.0,0.0,0.0,0.0,0.0,0.0,0.0,0.0,0.0,0.0,0.0,0.0,0.0,0.0,0.0,0.0,0.0,0.0,0.0,0.0,2.5063,2.522,2.5341,2.5434,2.5493,2.5581,2.5697,2.5698,2.5696,2.5703,2.5703,2.5703,2.5703,2.5703,2.5703,2.57,2.5693,2.5707,2.5707,2.5707,2.5707,2.5709,2.5701,2.5703,2.5703,2.5702,2.5697,2.5707,2.5582,2.5605,2.5586,2.5503,2.5446,2.5421,2.549,2.5502,2.55,0.0,0.0,0.0,0.0,0.0,0.0,0.0,0.0,0.0,0.0,0.0,0.0,0.0,0.0,0.0,0.0,0.0,0.0,0.0,0.0,0.0,0.0,0.0,2.0173,2.0374,2.2185,2.3003,2.3111,0.0,2.5558,2.5485,0.0,2.5352,2.5298,0.0,0.0,0.0,2.4984,2.4828,0.0,2.4468,0.0,0.0,0.0,2.1854,2.0516,1.9909,1.9435,1.9026,0.0,0.0,0.0,0.0,0.0,0.0,1.4171,0.0,0.0,0.0,0.0,0.0,0.0,0.0,0.0,0.0,0.0,0.0,0.0,0.0,0.0,0.0,0.0,0.0,0.0,0.0,0.0,0.0,0.0,2.5118,2.5187,2.5273,2.5365,2.5498,2.5561,2.5625,2.5707,2.5707,2.5697,2.5703,2.5703,2.5703,2.5703,2.5703,2.5703,2.57,2.5693,2.5707,2.5707,2.5707,2.5707,2.5709,2.5697,2.5702,2.5703,2.5703,2.57,2.5707,2.5517,2.5527,2.5508,2.5447,2.5416,2.5412,2.5431,2.5425,2.5434,0.0,0.0,0.0,0.0,0.0,0.0,0.0,0.0,0.0,0.0,0.0,0.0,0.0,0.0,0.0,0.0,0.0,0.0,0.0,0.0,0.0,0.0,0.0,0.0,0.0,2.2174,2.3007,2.3111,2.4866,0.0,0.0,2.5482,2.5468,0.0,0.0,0.0,0.0,0.0,2.5142,2.5043,0.0,2.4622,2.414,0.0,0.0,2.1054,2.0413,1.9925,1.9545,1.9184,0.0,0.0,0.0,0.0,0.0,0.0,0.0,0.0,0.0,0.0,0.0,0.0,0.0,0.0,0.0,0.0,0.0,0.0,0.0,0.0,0.0,0.0,0.0,0.0,0.0,0.0,0.0,2.5141,2.5261,2.5273,2.5374,2.5486,2.5561,2.5643,2.5675,2.5707,2.5699,2.5703,2.5703,2.5703,2.5703,2.5703,2.5703,2.5703,2.5703,2.5694,2.5691,2.5697,2.5691,2.5707,2.5707,2.5691,2.5699,2.5703,2.5703,2.5703,2.5702,2.5492,2.5483,2.545,2.5412,2.5378,2.5339,2.5329,2.5327,2.5302,0.0,0.0,0.0,0.0,0.0,0.0,0.0,0.0,0.0,0.0,0.0,0.0,2.0739,2.0394,2.0343,0.0,0.0,0.0,0.0,0.0,0.0,0.0,0.0,0.0,0.0,2.277,2.3485,2.3638,2.5013,0.0,0.0,2.5468,0.0,0.0,2.5315,2.5265,0.0,0.0,0.0,2.4881,2.4699,2.4481,0.0,0.0,2.2365,2.1692,2.1021,2.067,0.0,0.0,0.0,0.0,0.0,0.0,0.0,0.0,1.7381,0.0,0.0,0.0,0.0,0.0,0.0,0.0,0.0,0.0,0.0,0.0,0.0,0.0,0.0,0.0,0.0,0.0,0.0,0.0,2.5068,2.5241,2.5341,2.5374,2.5479,2.5571,2.5648,2.5671,2.5693,2.5707,2.5702,2.5703,2.5703,2.5703,2.5703,2.5703,2.5703,2.5703,2.5703,2.57,2.5698,2.57,2.5696,2.5691,2.5707,2.5707,2.5698,2.5703,2.5703,2.5703,2.5703,0.0,2.5429,2.5381,2.5403,2.536,2.5279,2.5172,2.5133,2.5072,0.0,0.0,0.0,0.0,0.0,0.0,0.0,0.0,0.0,0.0,0.0,2.117,2.1119,2.0526,2.0523,2.1249,0.0,0.0,0.0,0.0,0.0,0.0,0.0,0.0,0.0,2.3657,2.4174,2.4355,2.5239,2.5556,2.5466,2.5401,2.5321,0.0,0.0,2.495,2.4842,2.4602,2.4374,2.4165,2.3844,2.3706,0.0,0.0,2.2802,2.2341,2.1849,2.1681,0.0,2.1698,2.1553,0.0,0.0,0.0,0.0,1.826,1.8385,1.8548,0.0,0.0,0.0,0.0,0.0,0.0,0.0,0.0,0.0,0.0,0.0,0.0,0.0,0.0,0.0,0.0,2.4911,2.5139,2.5335,2.538,2.5429,2.5499,2.5571,2.5643,2.5699,2.5693,2.5709,2.5691,2.5702,2.5703,2.5703,2.5703,2.5703,2.5703,2.5703,2.5703,2.5703,2.5703,2.5703,2.5701,2.5701,2.5698,2.5691,2.5691,2.5699,2.5703,2.5703,2.5703,2.5703,2.5323,2.5293,2.5272,2.5388,2.5388,2.5289,2.5011,2.4785,2.452,0.0,0.0,0.0,0.0,0.0,0.0,0.0,0.0,0.0,0.0,0.0,2.1821,2.0763,2.0736,2.0611,2.0364,2.1084,0.0,0.0,0.0,0.0,0.0,0.0,0.0,0.0,2.3639,2.4164,2.4354,2.5236,0.0,2.5335,2.5262,0.0,2.4877,2.4568,2.428,2.3982,2.344,2.2922,2.2391,2.1752,2.1831,2.2249,0.0,0.0,2.2955,2.3382,2.3158,2.2886,2.3374,2.3291,2.2907,2.1954,0.0,0.0,1.9647,1.9727,1.9997,0.0,0.0,0.0,0.0,0.0,0.0,0.0,0.0,0.0,0.0,0.0,0.0,0.0,0.0,0.0,0.0,2.6242,2.6098,2.6236,2.5762,2.5518,2.5579,2.5634,2.5695,2.5699,2.5693,2.5694,2.5703,2.5703,2.5703,2.5703,2.5703,2.5703,2.5703,2.5703,2.5703,2.5703,2.5703,2.5703,2.5703,2.5703,2.5703,2.5703,2.5703,2.5703,2.5703,2.5703,2.5703,2.5703,2.5211,2.5197,2.5208,2.5406,2.5399,2.5174,2.4626,2.4176,2.371,0.0,0.0,0.0,0.0,0.0,0.0,0.0,0.0,0.0,0.0,0.0,2.1676,2.1224,2.1161,2.1344,2.1784,2.242,0.0,0.0,0.0,0.0,0.0,0.0,0.0,0.0,0.0,2.4788,2.4973,2.5386,2.542,2.5244,2.5075,0.0,2.4382,2.3861,2.3327,2.2781,2.1871,2.0621,1.9284,1.8786,1.9187,0.0,0.0,2.1928,2.2852,0.0,2.4028,2.4337,2.4563,2.4756,2.4601,2.3518,0.0,0.0,0.0,2.0578,2.072,2.0771,0.0,0.0,0.0,0.0,0.0,0.0,0.0,0.0,0.0,0.0,0.0,0.0,0.0,0.0,0.0,2.7044,2.6864,2.666,2.6381,2.6034,2.5667,2.5675,2.5707,2.5707,2.5701,2.5696,2.5703,2.5703,2.5703,2.5703,2.5703,2.5703,2.5703,2.5703,2.5703,2.5699,2.5699,2.5701,2.5703,2.5703,2.5703,2.5703,2.5703,2.5703,2.5703,2.5703,2.5703,2.5703,2.5105,2.5128,2.5194,2.5469,2.5399,2.5017,2.4183,2.3479,0.0,0.0,0.0,0.0,0.0,0.0,0.0,0.0,0.0,0.0,0.0,0.0,0.0,2.1468,2.1386,2.19,2.3064,2.3631,2.4316,0.0,0.0,0.0,0.0,0.0,0.0,0.0,0.0,0.0,0.0,0.0,0.0,2.511,0.0,2.4321,2.3876,2.3051,2.2237,2.1292,1.9651,1.7675,1.576,1.5473,1.6177,1.7432,1.901,2.0711,0.0,0.0,0.0,0.0,0.0,0.0,0.0,0.0,0.0,2.2786,0.0,0.0,0.0,2.1259,0.0,0.0,0.0,0.0,0.0,0.0,0.0,0.0,0.0,0.0,0.0,0.0,0.0,0.0,0.0,2.7872,2.768,2.7083,2.6961,2.6612,2.5977,2.5798,2.5709,2.5693,2.5693,2.5698,2.5703,2.5703,2.5703,2.5703,2.5703,2.5703,2.5703,2.5703,2.5699,2.5707,2.5705,2.5709,2.5697,2.5702,2.5703,2.5703,2.5703,2.5703,2.5703,2.5703,2.5703,2.5703,2.4873,2.5066,2.5209,2.5531,2.5422,2.4905,2.3755,2.27,0.0,0.0,0.0,0.0,0.0,0.0,0.0,0.0,0.0,0.0,2.0619,0.0,0.0,2.0291,2.0883,2.1345,2.1641,2.2969,2.3806,0.0,0.0,0.0,0.0,0.0,2.5099,2.5111,2.5235,0.0,0.0,0.0,2.5224,0.0,2.4056,2.359,0.0,2.2175,2.0949,1.9351,1.6125,1.3926,1.2461,0.0,1.2948,1.4547,0.0,1.9042,2.1606,2.3894,0.0,0.0,0.0,0.0,0.0,0.0,2.4455,0.0,0.0,0.0,2.231,2.2252,0.0,0.0,0.0,0.0,0.0,0.0,0.0,0.0,0.0,0.0,0.0,0.0,0.0,0.0,0.0,0.0,2.8786,2.8009,2.7293,2.6887,2.6856,2.6117,2.5694,2.5703,2.5703,2.5703,2.5703,2.5703,2.5703,2.5703,2.5703,2.5702,2.5691,2.5691,2.5709,2.5707,2.5696,2.5693,2.5696,2.5707,2.5698,2.5703,2.5703,2.5703,2.5703,2.5703,2.5703,2.5703,2.4582,2.4949,2.5148,2.5487,2.5382,2.4803,2.3529,2.1364,1.936,0.0,0.0,0.0,0.0,0.0,0.0,0.0,0.0,1.9343,0.0,0.0,0.0,1.9201,2.0079,2.094,2.1714,2.293,2.3826,2.4451,2.5047,0.0,0.0,0.0,2.5281,2.5274,2.5363,0.0,2.5485,0.0,2.4985,0.0,0.0,0.0,0.0,2.0637,1.8513,1.5568,1.2898,1.0994,0.9672,0.0,1.0184,0.0,0.0,0.0,0.0,0.0,0.0,0.0,0.0,0.0,0.0,0.0,0.0,0.0,2.3599,0.0,2.3289,0.0,0.0,0.0,0.0,0.0,0.0,0.0,0.0,0.0,0.0,0.0,0.0,0.0,0.0,0.0,0.0,0.0,0.0,0.0,0.0,2.8006,2.7054,2.6654,2.6229,2.5723,2.5703,2.5703,2.5703,2.5703,2.5703,2.5703,2.5701,2.5709,2.5704,2.5704,2.5681,2.5632,2.5636,2.5636,2.5648,2.5645,2.5664,2.5694,2.5697,2.5702,2.5703,2.5703,2.5703,2.5703,2.3658,2.4434,2.4943,2.5254,2.5138,2.4389,2.2502,1.9749,1.7478,0.0,0.0,0.0,1.7424,1.7882,0.0,0.0,1.7777,1.7397,0.0,0.0,1.7089,1.7683,1.8644,1.9828,2.1139,2.2313,2.336,2.4328,2.483,0.0,0.0,0.0,0.0,2.543,0.0,2.5503,2.5488,0.0,2.4706,2.4043,2.2693,2.0557,1.8144,1.7838,1.5475,1.2044,1.0142,0.8669,0.7541,0.7256,0.8298,0.0,1.2507,0.0,0.0,0.0,0.0,0.0,2.4767,0.0,0.0,0.0,0.0,0.0,0.0,0.0,0.0,0.0,0.0,0.0,0.0,0.0,0.0,0.0,0.0,0.0,0.0,0.0,0.0,0.0,0.0,0.0,0.0,0.0,0.0,0.0,0.0,0.0,2.778,2.7264,2.6719,2.6074,2.582,2.5703,2.5703,2.5703,2.5703,2.5702,2.5709,2.5707,2.5703,2.5675,2.5643,2.5605,2.5571,2.5571,2.5566,2.557,2.5609,2.5665,2.5673,2.5687,2.5699,2.5702,2.5703,2.5703,2.1779,2.3289,0.0,0.0,2.4662,2.3436,2.0192,1.7909,1.6132,0.0,0.0,0.0,0.0,0.0,0.0,0.0,0.0,1.4963,1.4822,0.0,1.4631,1.537,1.6389,1.7588,0.0,2.0593,2.1955,2.3156,2.4002,2.4666,0.0,0.0,0.0,0.0,2.551,2.5508,2.5468,2.5073,2.437,2.338,2.1712,1.8013,1.3482,0.0,1.1743,0.9547,0.8158,0.0,0.0,0.663,0.7641,0.0,0.0,0.0,0.0,0.0,0.0,0.0,0.0,0.0,0.0,2.4192,0.0,0.0,0.0,0.0,2.4743,0.0,0.0,0.0,0.0,0.0,0.0,0.0,0.0,0.0,0.0,0.0,0.0,0.0,0.0,0.0,0.0,0.0,0.0,0.0,0.0,0.0,2.9527,2.7929,2.6992,2.6953,2.6133,2.5703,2.5703,2.5703,2.5702,2.5707,2.5701,2.5707,2.5697,2.5632,2.5605,2.5599,2.5529,2.5498,2.5505,2.5498,2.5551,2.56,2.5598,2.5644,2.5691,2.5693,2.5702,2.5703,0.0,0.0,0.0,0.0,0.0,2.2144,1.9071,1.6983,0.0,0.0,0.0,0.0,0.0,1.229,1.2308,0.0,0.0,1.213,1.2061,1.2203,0.0,0.0,0.0,1.5591,0.0,1.8596,2.0096,2.1315,2.2436,2.3386,0.0,0.0,0.0,0.0,0.0,2.5537,0.0,0.0,0.0,0.0,0.0,1.3766,1.0464,0.0,0.0,0.7412,0.6675,0.601,0.0,0.6191,0.7396,0.9075,1.1079,1.3294,1.5562,1.7484,1.9008,0.0,0.0,0.0,2.2455,2.312,0.0,0.0,0.0,0.0,0.0,0.0,0.0,0.0,0.0,0.0,0.0,0.0,0.0,0.0,0.0,0.0,0.0,0.0,0.0,0.0,0.0,0.0,0.0,0.0,0.0,0.0,0.0,2.9842,2.873,2.7051,2.6719,2.6289,2.5703,2.5703,2.5702,2.5707,2.5697,2.5675,2.5632,2.562,2.5582,2.5531,2.5464,2.543,2.543,2.5425,2.5466,2.5531,2.5537,2.556,2.5634,2.5679,2.5694,2.5697,1.7458,0.0,0.0,0.0,0.0,0.0,1.752,0.0,0.0,0.0,1.129,0.0,0.9199,0.0,0.8386,0.0,0.8694,0.8836,0.8827,0.9302,0.0,1.0242,1.1771,0.0,0.0,0.0,1.7642,1.8789,2.0166,2.1315,0.0,0.0,0.0,0.0,0.0,2.5347,2.5344,2.4659,2.3456,0.0,0.0,1.0522,0.0,0.0,0.691,0.5161,0.0,0.488,0.5136,0.6016,0.7353,0.8936,1.0557,1.2339,1.4135,1.5624,1.689,1.7918,1.8747,1.9636,0.0,2.1524,2.2414,0.0,2.385,0.0,0.0,0.0,0.0,0.0,0.0,0.0,0.0,0.0,0.0,0.0,0.0,0.0,0.0,0.0,0.0,0.0,0.0,0.0,3.106,3.1932,0.0,0.0,0.0,0.0,2.9921,2.7988,2.7324,2.6582,2.5703,2.5703,2.5702,2.5707,2.5697,2.5667,2.5605,2.5587,2.5531,2.5464,2.5412,2.5395,2.5404,2.5393,2.5437,2.5461,2.5456,2.5518,2.5568,2.5648,2.5681,2.5694,0.0,0.0,0.0,0.0,1.8057,0.0,0.0,0.0,1.181,0.0,0.9643,0.8593,0.5951,0.4588,0.4047,0.4421,0.4763,0.5049,0.5214,0.5958,0.0,0.0,0.9015,1.0402,1.1748,0.0,0.0,0.0,1.72,1.851,0.0,0.0,0.0,0.0,2.4287,0.0,2.5101,2.4376,2.2776,2.0129,1.2989,0.825,0.5132,0.242,0.1965,0.2851,0.2956,0.3664,0.479,0.6038,0.7395,0.875,0.9907,1.1226,1.258,1.359,1.4564,1.5447,1.6137,1.7209,1.8389,1.9492,0.0,0.0,0.0,0.0,2.3923,0.0,0.0,0.0,0.0,0.0,0.0,0.0,0.0,0.0,0.0,0.0,0.0,0.0,0.0,0.0,0.0,3.0651,3.1087,3.1994,3.2065,0.0,0.0,0.0,3.0517,2.9629,2.7949,2.6621,2.5703,2.5703,2.5702,2.5707,2.5697,2.5658,2.5599,2.5531,2.5449,2.5406,2.5407,2.5398,2.5398,2.5398,2.5397,2.5393,2.5393,2.5441,2.5506,2.5571,2.5645,2.5701,1.3294,1.3062,1.2859,0.0,1.418,1.4581,0.0,0.0,0.0,0.0,0.6149,0.4534,0.2561,0.1584,0.1039,0.0925,0.1481,0.0,0.0,0.0,0.0,0.5756,0.7544,0.8856,0.9656,1.1197,0.0,1.2633,0.0,0.0,1.5836,0.0,0.0,0.0,0.0,0.0,2.4499,2.3801,2.0535,1.5351,0.9966,0.5821,0.0,0.0,-0.0213,0.0501,0.1972,0.3297,0.4587,0.5898,0.7113,0.8297,0.9361,1.0225,1.0985,1.1727,1.2263,1.284,1.3602,1.4788,1.6087,1.7416,1.8914,2.0321,0.0,0.0,0.0,0.0,0.0,0.0,0.0,0.0,0.0,0.0,0.0,0.0,0.0,0.0,0.0,0.0,0.0,0.0,3.0664,3.069,3.1305,3.2776,3.2889,0.0,0.0,0.0,0.0,2.9597,2.8514,2.7246,2.5703,2.5703,2.5702,2.5707,2.5703,2.5639,2.5523,2.5498,2.5456,2.5407,2.5351,2.5341,2.5341,2.5341,2.5322,2.5341,2.5341,2.5404,2.5505,2.558,2.564,2.5701,1.1272,0.0,0.0,1.0046,0.0,0.0,1.1336,0.0,0.0,0.5026,0.3268,0.0,-0.0165,-0.1376,-0.2039,-0.1983,-0.1274,0.0,0.0055,0.0,0.0,0.4124,0.5952,0.7237,0.7896,0.916,0.0,0.9849,0.0,0.0,1.2128,0.0,0.0,0.0,0.0,2.2201,2.34,2.1609,1.776,1.2438,0.7567,0.0,0.0,-0.1279,-0.1621,-0.0873,0.0907,0.2608,0.4229,0.5534,0.6736,0.7794,0.8572,0.9225,0.9773,1.0247,1.0686,1.1217,1.1936,1.2956,1.4128,1.5389,1.694,1.8446,1.9476,2.0523,2.1616,0.0,0.0,0.0,0.0,0.0,0.0,0.0,0.0,0.0,0.0,0.0,0.0,0.0,3.0218,0.0,3.0748,3.0717,3.1239,3.2529,3.2966,0.0,0.0,0.0,0.0,3.0141,2.8919,2.7461,2.5723,2.5703,2.5702,2.5707,2.5699,2.5629,2.5499,2.5503,2.5451,2.5351,2.5313,2.5303,2.5303,2.5303,2.5303,2.5303,2.5322,2.5387,2.5464,2.5526,2.5619,2.5694,0.9254,0.0,0.0,0.0,0.0,0.0,0.0,0.6225,0.0,0.2335,0.0,-0.0716,-0.2323,-0.3874,-0.4604,-0.4223,0.0,-0.2783,-0.1952,-0.0114,0.157,0.2905,0.4458,0.5677,0.6459,0.7203,0.0,0.0,0.0,0.0,0.0,0.0,0.0,0.0,0.0,0.0,0.0,1.8709,1.4924,1.0604,0.5673,0.1937,-0.0887,-0.2395,-0.2516,-0.1585,-0.0102,0.1775,0.3796,0.4995,0.6215,0.7268,0.7637,0.8191,0.8737,0.9005,0.9505,1.009,1.0701,1.1588,1.2551,1.3524,1.4987,1.6474,1.7424,1.8682,1.9897,2.0751,2.1906,2.3084,0.0,0.0,0.0,0.0,0.0,0.0,0.0,0.0,0.0,0.0,0.0,0.0,0.0,3.0734,3.1033,3.1831,3.2532,0.0,0.0,0.0,0.0,3.0856,2.9162,0.0,2.5898,0.0,2.5702,2.5709,2.5703,2.5624,2.5506,2.5503,2.544,2.5322,2.5322,2.5303,2.5303,2.5313,2.5313,2.5313,2.5361,2.5395,2.5414,2.5473,2.5581,2.569,0.0,0.0,0.0,0.0,0.0,0.3375,0.2785,0.2217,0.1309,-0.011,-0.1495,-0.2777,-0.395,-0.478,-0.5214,-0.5311,-0.4666,0.0,0.0,0.0,0.0,0.2525,0.3752,0.471,0.5374,0.5848,0.5884,0.0,0.5583,0.5609,0.0,0.0,0.0,0.0,0.0,0.0,1.9889,1.678,0.0,0.8765,0.3988,0.0435,-0.2166,-0.3121,-0.3004,-0.217,-0.0631,0.1348,0.3392,0.4521,0.5496,0.6318,0.6753,0.7269,0.7709,0.7922,0.838,0.8915,0.9441,1.0425,1.1491,1.2388,1.3651,1.5053,1.6424,1.7348,1.831,1.9612,2.0317,2.1183,2.2723,0.0,0.0,0.0,0.0,0.0,0.0,0.0,0.0,0.0,0.0,0.0,0.0,0.0,3.1002,3.1756,0.0,0.0,0.0,0.0,0.0,0.0,0.0,0.0,0.0,0.0,2.5703,2.5698,2.5704,2.5654,2.5587,2.5538,2.549,2.5468,2.5412,2.5385,2.5376,2.5388,2.5351,2.5313,2.5361,2.5397,2.5412,2.5488,2.5551,2.562,0.0,0.0,0.0,0.0,0.0,0.0,0.0,-0.0283,0.0,-0.2161,-0.3053,-0.3834,-0.4508,-0.4952,-0.5226,-0.5214,-0.4615,-0.3735,-0.2516,-0.0949,0.0614,0.2176,0.3231,0.0,0.4629,0.4912,0.4793,0.4271,0.4213,0.3975,0.0,0.0,0.0,0.9784,0.0,1.6731,0.0,0.0,0.0,0.6878,0.2552,-0.0603,-0.2843,-0.3516,-0.3427,-0.2717,-0.1013,0.0776,0.2589,0.3833,0.4905,0.5739,0.6179,0.6732,0.7238,0.7587,0.8118,0.8716,0.9239,0.9944,1.0706,1.1393,1.248,1.3697,1.4675,1.5878,1.7049,1.803,1.8848,2.0015,2.2115,2.4121,0.0,0.0,0.0,0.0,0.0,0.0,0.0,0.0,0.0,0.0,0.0,0.0,0.0,0.0,0.0,0.0,0.0,0.0,0.0,0.0,0.0,0.0,0.0,0.0,0.0,2.57,2.5703,2.5668,2.5595,2.5574,2.5538,2.5503,2.5476,2.5441,2.5445,2.5415,2.5379,2.5351,2.5351,2.537,2.5397,2.5429,2.549,2.5556,0.0,0.388,0.0,0.0,0.2062,0.0,0.0058,-0.1645,-0.3049,-0.3508,-0.3944,-0.4391,-0.4622,-0.4901,-0.4959,-0.4736,-0.4233,-0.3398,-0.2232,-0.0949,0.0447,0.1846,0.2761,0.3447,0.3971,0.4056,0.3887,0.0,0.0,0.0,0.0,0.3522,0.5453,0.8369,0.0,0.0,0.0,0.0,0.8892,0.5079,0.1401,-0.1324,-0.3186,-0.3519,-0.3463,-0.2952,-0.1137,0.0427,0.1789,0.3164,0.4257,0.5189,0.568,0.6349,0.7021,0.7496,0.8152,0.8797,0.9319,0.9755,1.0235,1.0725,1.161,1.2533,1.3182,1.4535,1.5815,1.6499,1.756,1.909,2.1308,2.258,0.0,0.0,0.0,0.0,0.0,0.0,0.0,0.0,0.0,0.0,0.0,0.0,0.0,0.0,0.0,0.0,0.0,0.0,0.0,0.0,0.0,2.7957,2.7285,0.0,2.5703,0.0,2.5693,2.5673,2.5609,2.5625,2.5593,2.5538,2.5525,2.5506,2.5483,2.5421,2.5397,2.5398,2.5341,2.5322,2.537,2.5395,2.5426,2.5492,0.0,0.0,0.0,0.0,0.0,0.0,0.0,-0.1544,-0.2689,-0.3307,-0.4012,-0.4463,-0.4529,-0.4743,-0.468,-0.4132,-0.3796,-0.3181,-0.2181,-0.0894,0.0335,0.151,0.2247,0.2854,0.3308,0.3212,0.3062,0.0,0.0,0.2477,0.0,0.2949,0.5181,0.8811,0.0,0.0,0.0,0.9467,0.6697,0.3599,0.0767,-0.1555,-0.3244,-0.2792,-0.2679,-0.2512,-0.0723,0.0491,0.1435,0.258,0.3646,0.4608,0.5193,0.5996,0.681,0.7286,0.8028,0.8797,0.9199,0.9716,1.0196,1.0611,1.1164,1.1879,1.2884,1.3591,1.4312,1.5346,1.6678,1.8114,1.9501,2.1041,2.2421,0.0,0.0,0.0,0.0,0.0,2.8452,2.8912,0.0,0.0,0.0,0.0,0.0,0.0,0.0,0.0,0.0,0.0,0.0,3.0701,0.0,2.8203,2.8184,2.6523,0.0,2.5703,2.5696,2.5705,2.5681,2.5691,2.5682,2.5683,2.5624,2.5551,2.5485,2.5426,2.5395,2.5398,2.5341,2.5313,2.5313,2.537,2.5397,2.5421,0.0,0.0,0.0,0.0,0.0,0.0,0.0,-0.0965,-0.1729,-0.2194,-0.3183,-0.3858,-0.3974,-0.3968,-0.3796,-0.3352,-0.3074,-0.2517,-0.1569,-0.0896,-0.0,0.1229,0.1674,0.2089,0.2586,0.273,0.2641,0.0,0.0,0.0,0.0,0.0,0.0,0.0,0.0,0.891,0.8568,0.6925,0.4949,0.2739,0.0886,-0.0557,-0.1563,-0.1337,-0.1114,-0.0837,0.0167,0.0942,0.1586,0.2566,0.358,0.4506,0.5212,0.613,0.708,0.7546,0.8242,0.8943,0.9426,0.9774,1.0127,1.0544,1.0905,1.141,1.2144,1.2943,1.3679,1.4374,1.5883,1.7439,1.8711,1.9728,2.0662,0.0,0.0,0.0,0.0,0.0,0.0,2.8135,0.0,2.9661,0.0,0.0,0.0,0.0,0.0,3.0539,3.053,0.0,0.0,3.0691,0.0,2.822,2.8299,2.6562,2.5703,2.5703,2.57,2.5696,2.5696,2.5709,2.5698,2.5701,2.5629,2.5571,2.555,2.5495,2.5432,2.5388,2.5322,2.5303,2.5313,2.5389,2.5398,2.5406,0.2081,0.0,0.1007,0.0,0.0406,0.033,0.0062,-0.0491,-0.0967,-0.1259,-0.2196,-0.291,-0.3135,-0.3246,-0.3077,-0.2683,-0.2517,-0.2074,-0.129,-0.0954,-0.028,0.0839,0.1108,0.0,0.1911,0.2178,0.222,0.1958,0.222,0.0,0.0,0.2723,0.0,0.0,0.6021,0.626,0.5949,0.4865,0.3577,0.2279,0.1227,0.0614,0.0335,0.0334,0.0613,0.1062,0.1285,0.1621,0.206,0.2877,0.3853,0.4801,0.5443,0.6435,0.7458,0.8084,0.8638,0.9154,0.9736,0.9925,1.0098,1.0505,1.084,1.1207,1.17,1.2501,1.3288,1.3876,1.5195,1.6634,1.7813,1.8536,1.9244,2.0218,0.0,0.0,0.0,0.0,0.0,0.0,2.797,2.8925,3.0238,0.0,0.0,0.0,0.0,3.0595,3.053,0.0,0.0,0.0,0.0,0.0,0.0,2.6444,2.5703,2.5703,2.5703,2.5702,2.5702,2.5702,2.5699,2.5691,2.5658,2.5624,2.5585,2.5536,2.5468,2.5387,2.5332,2.5303,2.5313,2.5351,2.5361,2.537,0.1822,0.1185,0.065,0.007,-0.0,-0.0,-0.0,-0.0315,-0.0611,-0.0887,-0.1145,-0.157,-0.2128,-0.2629,-0.2683,-0.2069,-0.2127,-0.2017,-0.1515,-0.1122,-0.0505,0.0,0.0,0.0988,0.1297,0.1503,0.168,0.1883,0.0,0.0,0.2825,0.3503,0.3807,0.3909,0.4123,0.4174,0.4006,0.3395,0.279,0.2183,0.1734,0.179,0.2071,0.2015,0.2408,0.2916,0.2577,0.2573,0.2792,0.3516,0.4443,0.5408,0.5942,0.6781,0.7788,0.8812,0.9225,0.9521,1.0134,1.014,1.0098,1.0505,1.0916,1.1292,1.17,1.2269,1.3009,1.4008,1.4737,1.5542,1.6544,1.7499,1.8366,1.92,0.0,0.0,0.0,0.0,0.0,2.5546,2.6948,2.8399,2.9857,0.0,0.0,0.0,0.0,0.0,3.0604,0.0,0.0,2.9334,2.8598,0.0,2.7013,2.6131,2.5703,2.5703,2.5703,2.5703,2.5703,2.5703,2.5703,2.5699,2.5704,2.5667,2.5581,2.5524,2.5468,2.5387,2.5332,2.5303,2.5303,2.5303,2.5303,2.5313,0.2658,0.1852,0.1227,0.1126,0.0891,0.0733,0.0777,0.064,0.0562,0.0415,0.0058,-0.0287,-0.0562,-0.1398,-0.1902,0.0,-0.1793,-0.1624,0.0,-0.1122,-0.0729,0.0112,0.0358,0.0803,0.1418,0.1633,0.1884,0.2087,0.0,0.0,0.0,0.32,0.3346,0.3338,0.3234,0.3186,0.3236,0.3125,0.3128,0.3183,0.3231,0.3345,0.3569,0.3683,0.3852,0.4024,0.391,0.3907,0.4015,0.4618,0.5273,0.595,0.7084,0.7892,0.8505,0.9314,0.9855,1.0268,1.0848,1.0761,1.0601,1.0945,1.1018,1.1207,1.17,1.233,1.3201,1.4487,1.493,1.5505,1.6929,1.7477,1.7935,1.8717,1.9126,0.0,0.0,0.0,0.0,2.4516,2.5707,2.7159,0.0,2.9786,0.0,0.0,0.0,0.0,0.0,0.0,0.0,0.0,2.7957,0.0,2.6936,2.6119,2.57,2.5703,2.5703,2.5703,2.5703,2.5703,2.5703,2.5699,2.5696,2.5664,2.5586,2.5531,2.5456,2.5387,2.5332,2.5303,2.5303,2.5303,2.5303,2.539,0.3491,0.2737,0.2164,0.1898,0.1643,0.1536,0.1707,0.1687,0.1717,0.1656,0.1255,0.0993,0.0973,0.0113,0.0,-0.1291,-0.1345,-0.1288,-0.1178,-0.1234,-0.0842,-0.0056,0.0418,0.0986,0.1724,0.0,0.0,0.2579,0.3153,0.3554,0.3764,0.3618,0.36,0.3693,0.3365,0.3239,0.3403,0.3514,0.379,0.4122,0.434,0.456,0.4732,0.4846,0.4904,0.4904,0.4904,0.4956,0.5062,0.55,0.6036,0.6789,0.7972,0.8792,0.942,1.0139,1.0556,1.0867,1.1412,1.133,1.1162,1.1446,1.1632,1.1936,1.2628,1.3058,1.3605,1.4727,1.5106,1.5591,1.6658,1.7068,1.7475,1.8014,1.838,1.8812,1.9426,0.0,0.0,0.0,0.0,0.0,0.0,2.9112,0.0,0.0,0.0,0.0,0.0,0.0,0.0,2.8318,2.7323,0.0,2.6411,2.5905,2.5673,2.5703,2.5703,2.5703,2.5703,2.5703,2.5703,2.5702,2.5703,2.5655,2.5595,2.5531,2.548,2.5432,2.536,2.5332,2.5361,2.5688,2.5793,2.5909,0.4251,0.3854,0.0,0.0,0.233,0.0,0.2762,0.2766,0.2781,0.2775,0.2518,0.2304,0.2237,0.1718,0.0843,-0.0336,0.0,0.0,0.0,-0.1178,-0.0785,0.0056,0.0834,0.154,0.2157,0.2866,0.33,0.3328,0.4044,0.4541,0.4848,0.4587,0.4591,0.4763,0.4308,0.4184,0.4288,0.4446,0.4725,0.5062,0.5164,0.5441,0.5732,0.5732,0.5732,0.5732,0.5732,0.5837,0.5937,0.6209,0.6853,0.7706,0.856,0.9496,1.0372,1.1116,1.1274,1.1336,1.1893,1.1853,1.1733,1.208,1.2605,1.3294,1.4197,1.4172,1.4163,1.4814,1.5341,1.5746,1.5932,1.6459,1.6989,1.7242,1.7652,1.8161,1.8683,0.0,0.0,0.0,0.0,0.0,0.0,2.8291,2.9078,0.0,0.0,0.0,0.0,0.0,2.8338,2.6651,2.6655,2.6345,2.5599,2.5609,2.5627,2.57,2.5703,2.5703,2.5703,2.5703,2.5703,2.5703,2.5707,2.5662,2.5598,2.5537,2.549,2.5484,2.5423,2.5436,2.5572,2.6333,2.6641,2.6813,0.0,0.0,0.4449,0.3977,0.3736,0.3577,0.3572,0.354,0.3497,0.3482,0.3366,0.3217,0.2775,0.2566,0.2185,0.129,0.056,0.0056,-0.0,-0.0056,0.0168,0.0839,0.1788,0.2465,0.277,0.3454,0.4056,0.4648,0.4854,0.5218,0.5624,0.5419,0.5337,0.5366,0.5227,0.5177,0.5214,0.5496,0.5937,0.6421,0.6588,0.681,0.7031,0.7031,0.7031,0.7031,0.7031,0.7085,0.7133,0.7391,0.7824,0.8309,0.9145,0.9865,1.0525,1.136,1.1805,1.2134,1.258,1.2439,1.2268,1.2628,1.3183,1.3732,1.4277,1.4442,1.4698,1.5379,1.5605,1.5872,1.6397,1.6629,1.6833,1.7186,1.7434,1.7963,1.9,1.9705,0.0,0.0,2.3676,2.4773,2.6368,2.7452,2.814,0.0,0.0,0.0,0.0,2.7276,2.7026,2.6542,2.6014,2.5654,2.5531,2.5561,2.564,2.5703,2.5703,2.5703,2.5703,2.5703,2.5703,2.5703,2.5699,2.5661,2.5598,2.5521,2.5492,2.5484,2.5423,2.5774,2.6352,2.6535,2.7026,2.7717,0.5867,0.5521,0.5158,0.4745,0.4482,0.4296,0.4041,0.4023,0.4,0.4004,0.3952,0.3811,0.3505,0.3344,0.3087,0.2632,0.1636,0.1064,0.1234,0.1178,0.1345,0.1679,0.2563,0.3142,0.3383,0.4234,0.511,0.6059,0.609,0.6388,0.6969,0.6745,0.6805,0.7007,0.6865,0.6827,0.6818,0.6951,0.7186,0.7499,0.7495,0.7563,0.767,0.767,0.7729,0.7842,0.7842,0.7943,0.8096,0.8249,0.862,0.9145,0.971,1.0328,1.104,1.1669,1.2076,1.2382,1.2774,1.2887,1.3042,1.3742,1.4077,1.4441,1.5147,1.5215,1.5352,1.5957,1.607,1.617,1.6527,1.662,1.6794,1.7308,1.7676,1.8242,1.9333,2.0114,0.0,2.2544,2.3319,2.4233,2.5546,2.6324,2.6959,2.7438,0.0,0.0,2.6685,2.6262,2.6015,2.5915,2.5582,2.5421,2.5492,2.56,2.5659,2.5703,2.5703,2.5703,2.5703,2.5703,2.5703,2.5703,2.5702,2.5685,2.5675,2.5998,2.612,2.6134,2.6462,2.6852,2.7239,2.7644,2.8056,2.8563,0.6567,0.6225,0.5929,0.5403,0.521,0.5005,0.4643,0.4619,0.4619,0.4619,0.4528,0.4458,0.4377,0.4053,0.3797,0.3722,0.2754,0.2196,0.2303,0.2359,0.2419,0.2593,0.3166,0.3638,0.3958,0.5064,0.6169,0.7341,0.736,0.7728,0.8331,0.8177,0.8368,0.8746,0.8597,0.854,0.8487,0.8378,0.8339,0.8377,0.8203,0.8159,0.8153,0.811,0.8265,0.8432,0.8394,0.8626,0.8988,0.904,0.9451,0.9976,1.032,1.0947,1.1628,1.2026,1.2283,1.248,1.2832,1.319,1.3742,1.4823,1.504,1.5217,1.6164,1.6115,1.5957,1.6421,1.6522,1.6522,1.6522,1.6584,1.6854,1.7556,1.8083,1.8772,1.9789,0.0,2.142,2.2285,2.2884,2.3575,2.4523,2.4977,2.5634,2.6567,2.6203,2.6073,0.0,2.5766,2.5352,2.5254,2.5361,2.5432,2.5505,2.5648,2.5701,2.57,2.5703,2.5703,2.5703,2.5703,2.5703,2.5703,2.5702,2.5763,2.5929,2.6612,2.6935,2.7055,2.7733,2.8028,2.8203,2.8936,2.9252,2.939,0.7407,0.7306,0.7108,0.6645,0.6568,0.6445,0.6133,0.6086,0.6017,0.5947,0.5924,0.5661,0.5085,0.4965,0.4702,0.4163,0.3856,0.3457,0.297,0.2965,0.3114,0.3372,0.374,0.4168,0.4775,0.6022,0.711,0.7959,0.8149,0.8514,0.907,0.9034,0.9034,0.9132,0.9089,0.9011,0.8909,0.8866,0.9028,0.9266,0.9279,0.9317,0.9398,0.9259,0.9275,0.9459,0.9401,0.951,0.971,1.0035,1.0352,1.0659,1.1167,1.1569,1.1927,1.2323,1.2627,1.2832,1.2881,1.3382,1.4118,1.4915,1.5365,1.5772,1.6293,1.6373,1.6409,1.6497,1.6522,1.6522,1.6522,1.6923,1.7409,1.7784,1.8498,1.9463,2.0854,0.0,2.1873,2.2429,2.272,2.2863,2.28,2.3564,2.4215,2.454,2.5244,2.5582,2.5434,2.5453,2.5468,2.5452,2.5418,2.5464,2.5586,2.5652,2.569,2.57,2.5703,2.5703,2.5703,2.5703,2.5703,2.5703,2.5702,2.6093,2.6719,2.685,2.7265,2.7826,2.7959,2.8406,2.9011,2.9145,2.9624,3.0217,0.8169,0.7936,0.7664,0.7288,0.7225,0.7102,0.673,0.6671,0.6671,0.6601,0.6539,0.6379,0.6039,0.5818,0.5609,0.5286,0.5076,0.4775,0.4529,0.388,0.3579,0.3809,0.4053,0.4716,0.5758,0.6985,0.7947,0.8587,0.898,0.9358,0.9794,0.9794,0.9856,0.9981,0.9981,0.9904,0.9836,0.9674,0.9735,0.9966,0.9805,0.9853,1.0064,0.9974,1.0036,1.0191,1.0249,1.0345,1.0549,1.0812,1.1065,1.1427,1.1728,1.2026,1.2274,1.2529,1.2783,1.3075,1.3402,1.3858,1.4408,1.5187,1.5647,1.6001,1.6392,1.6479,1.6522,1.6522,1.6522,1.6522,1.6522,1.6735,1.72,1.8113,1.8786,0.0,0.0,2.153,2.1715,2.2061,2.1993,2.1979,2.2079,2.2531,2.3112,2.3788,2.4395,2.4834,2.5079,2.5317,2.5482,2.5556,2.5525,2.5556,2.5648,2.5678,2.5703,2.5694,2.5702,2.5703,2.5703,2.5703,2.5703,2.5723,2.6209,2.6598,2.6967,2.7868,2.843,2.8747,2.9187,2.9553,2.9858,2.9858,3.0086,3.0398,0.9155,0.8846,0.8571,0.8203,0.8099,0.7943,0.7574,0.7414,0.7381,0.7316,0.719,0.7064,0.6872,0.6673,0.6459,0.6396,0.6104,0.5941,0.588,0.4966,0.443,0.4374,0.4728,0.5488,0.6658,0.7777,0.8624,0.921,0.967,1.0053,1.0371,1.0371,1.0434,1.0624,1.0624,1.0624,1.0611,1.0376,1.0404,1.0566,1.0391,1.047,1.0755,1.0791,1.0891,1.1028,1.108,1.1218,1.1387,1.1504,1.1728,1.2026,1.2175,1.2382,1.2578,1.2735,1.2978,1.3364,1.3915,1.4244,1.4605,1.5457,1.5812,1.6076,1.6423,1.6522,1.6522,1.6522,1.6522,1.6522,1.6522,1.6622,1.7087,1.8254,0.0,0.0,0.0,2.1304,2.1308,2.1355,2.109,2.0995,2.1248,2.1545,2.2115,2.3158,2.3671,2.4216,2.4898,2.5208,2.5418,2.5547,2.5584,2.5618,2.5682,2.5697,2.571,2.5694,2.5702,2.5703,2.5703,2.5918,2.5996,2.6053,2.6928,2.7374,2.7605,2.8874,2.9479,2.9648,3.026,3.0449,3.0406,3.0406,3.0402,3.0398,1.0438,1.0363,1.0278,1.0075,0.9766,0.953,0.9338,0.9034,0.8753,0.8425,0.8355,0.8102,0.7521,0.7442,0.7237,0.6902,0.6735,0.6563,0.6433,0.6358,0.6099,0.5605,0.6157,0.6789,0.7391,0.8306,0.9092,0.9734,1.0117,1.0371,1.0561,1.0561,1.0561,1.0624,1.0624,1.0688,1.08,1.078,1.0954,1.1267,1.1432,1.1549,1.1697,1.1877,1.203,1.2158,1.2072,1.207,1.22,1.2195,1.2234,1.2323,1.2578,1.2686,1.2725,1.2832,1.32,1.3668,1.4082,1.4362,1.4686,1.5558,1.5913,1.6076,1.6423,1.6522,1.6522,1.6522,1.6522,1.6522,1.6522,1.6961,1.7473,1.7893,0.0,0.0,2.0062,2.0684,2.0821,2.0039,1.9987,1.9909,1.9686,2.0373,2.1195,2.2156,2.3097,2.3952,2.4671,2.5037,2.528,2.5406,2.5547,2.5605,2.5605,2.5662,2.5701,2.5703,2.5703,2.5703,2.5723,2.6543,2.6892,2.6954,2.7832,2.8626,2.9308,2.9362,2.9807,3.0424,3.0491,3.0466,3.041,3.041,3.041,3.0398,1.1329,1.1111,1.0959,1.0623,1.0498,1.0283,0.9854,0.9699,0.9466,0.918,0.9069,0.893,0.8672,0.849,0.8366,0.8231,0.796,0.7782,0.7718,0.7333,0.6888,0.6375,0.6894,0.7391,0.7787,0.8753,0.9408,0.9804,1.0244,1.0561,1.0624,1.0624,1.0624,1.0624,1.0688,1.0807,1.0996,1.1185,1.156,1.1934,1.2112,1.2421,1.2887,1.2937,1.3042,1.3151,1.3191,1.3204,1.3234,1.3347,1.3231,1.3061,1.3171,1.3036,1.2871,1.3152,1.343,1.3905,1.4547,1.4869,1.5175,1.5869,1.6144,1.6306,1.6479,1.6522,1.6522,1.6522,1.6522,1.6522,1.6522,1.6697,1.7049,1.7613,0.0,1.8754,1.9324,1.9377,1.9266,1.8988,1.8713,1.8675,1.8874,1.9671,2.0588,2.1549,2.2606,2.356,2.429,2.4841,2.5175,2.5264,2.5335,2.542,2.5603,2.5632,2.5659,2.5691,2.5691,2.5989,2.6522,2.6854,2.7281,2.7842,2.8728,2.9258,2.9537,3.0017,3.0316,3.0511,3.05,3.0466,3.0398,3.0398,3.0398,3.0398,1.2432,1.215,1.187,1.161,1.1354,1.115,1.0761,1.0492,1.0219,0.9894,0.9701,0.9576,0.9454,0.9332,0.9215,0.9145,0.8935,0.8807,0.8748,0.8236,0.7652,0.7003,0.7591,0.8047,0.8312,0.9204,0.9786,0.9932,1.0371,1.0624,1.0624,1.0624,1.0624,1.0688,1.0807,1.1059,1.131,1.1685,1.212,1.2605,1.285,1.3216,1.3752,1.3812,1.3942,1.399,1.4099,1.4091,1.4055,1.4028,1.3893,1.3711,1.3711,1.3557,1.3402,1.3626,1.3924,1.4322,1.5006,1.5367,1.5623,1.6144,1.6318,1.6436,1.6479,1.6522,1.6522,1.6522,1.6522,1.6522,1.6522,1.6522,1.669,1.7226,1.7562,1.7874,1.8291,1.8249,1.814,1.8057,1.7839,1.7882,1.8358,1.9214,2.0135,2.1067,2.2187,2.3199,2.4063,2.4655,2.4968,2.5053,2.5102,2.5236,2.5446,2.5517,2.5561,2.564,2.5948,2.6392,2.6995,2.7544,2.811,2.8728,2.9601,2.9932,2.9927,3.0457,3.0602,3.05,3.0479,3.0436,3.0398,3.0398,3.0398,3.0398,1.3833,1.3477,1.32,1.32,1.2666,1.2218,1.2218,1.1557,1.0929,1.0725,1.0484,1.018,0.9868,0.9804,0.9734,0.9518,0.95,0.9436,0.9338,0.9145,0.8565,0.7591,0.8376,0.8899,0.9017,0.9664,1.011,1.0308,1.0498,1.0631,1.0631,1.0631,1.0688,1.0807,1.1003,1.138,1.1817,1.2189,1.2736,1.3338,1.3709,1.395,1.4249,1.4597,1.4715,1.4718,1.4649,1.4617,1.455,1.4233,1.4087,1.4087,1.4077,1.4257,1.44,1.4348,1.4652,1.507,1.5428,1.5736,1.6088,1.6349,1.6392,1.6436,1.6479,1.6522,1.6522,1.6522,1.6522,1.6522,1.6522,1.6522,1.6522,1.6675,1.7175,1.7428,1.7037,1.7523,1.7709,1.7264,1.7352,1.7693,1.8149,1.8916,1.9788,2.0717,2.1802,2.2933,2.4135,2.4459,2.4639,2.4697,2.4893,2.5025,2.5103,2.5309,2.5446,2.5518,2.6461,2.6918,2.6976,2.8716,2.9507,2.9561,3.0419,3.075,3.069,3.0629,3.0559,3.0479,3.0428,3.0394,3.0398,3.0398,3.0398,3.0398,1.4466,1.4274,1.4088,1.3717,1.3462,1.3169,1.2813,1.2504,1.2047,1.1517,1.12,1.0855,1.0524,1.0434,1.0371,1.0301,1.0161,0.9977,0.967,0.9664,0.9615,0.9406,0.9303,0.9402,0.9542,0.9989,1.0335,1.0601,1.0797,1.1034,1.1363,1.1152,1.1297,1.1829,1.1942,1.2417,1.3152,1.3728,1.4307,1.4853,1.4896,1.5093,1.5308,1.5134,1.5137,1.5216,1.5148,1.5167,1.5148,1.5202,1.5012,1.4706,1.4496,1.4566,1.4756,1.4966,1.5383,1.5813,1.6092,1.632,1.6553,1.6492,1.6479,1.6479,1.6522,1.6522,1.6522,1.6522,1.6522,1.6522,1.6522,1.6522,1.6522,1.6565,1.6703,1.6797,1.6675,1.6789,1.6883,1.6705,1.6947,1.724,1.7693,1.8433,1.9317,2.0237,2.1843,2.3076,2.3819,2.4154,2.4373,2.4491,2.4642,2.5051,2.5716,2.6014,2.6216,2.6285,2.7214,2.8015,2.8676,2.9193,2.9763,3.0353,3.0626,3.069,3.0626,3.0613,3.0521,3.0428,3.0417,3.0394,3.0398,3.0398,3.0398,3.0398,1.5463,1.5229,1.4976,1.4657,1.4305,1.4008,1.3665,1.3345,1.2946,1.2432,1.213,1.186,1.1561,1.1468,1.1403,1.1403,1.12,1.1039,1.0778,1.0706,1.0718,1.0754,1.0526,1.0371,1.0318,1.0706,1.0923,1.1095,1.137,1.166,1.1908,1.1914,1.2188,1.2714,1.2917,1.3459,1.4247,1.4772,1.5292,1.579,1.5801,1.5852,1.5923,1.5671,1.5517,1.541,1.541,1.541,1.541,1.5614,1.5608,1.5441,1.5279,1.546,1.5689,1.587,1.6336,1.6795,1.6812,1.7048,1.7217,1.6954,1.6685,1.6522,1.6522,1.6522,1.6522,1.6522,1.6522,1.6522,1.6522,1.6522,1.6522,1.6522,1.6522,1.6577,1.6577,1.6607,1.665,1.665,1.6863,1.7199,1.7598,1.8291,1.9222,2.0438,2.1848,2.2898,2.3473,2.3858,2.4116,2.4284,2.4743,2.5291,2.5911,2.6873,2.7235,2.7045,2.8,2.8771,2.933,2.9714,3.0156,3.0618,3.0622,3.061,3.0549,3.053,3.0471,3.0394,3.0394,3.0402,3.0398,3.0398,3.0398,3.0398,1.6673,1.6237,1.5919,1.5885,1.5296,1.4743,1.4767,1.4183,1.3716,1.3546,1.321,1.296,1.2727,1.2638,1.2645,1.2645,1.2513,1.239,1.2323,1.1976,1.1778,1.1813,1.1813,1.1689,1.1441,1.1662,1.1785,1.1806,1.2223,1.2448,1.2538,1.2841,1.3238,1.3613,1.3973,1.4503,1.5186,1.553,1.5919,1.636,1.6533,1.6418,1.6233,1.6154,1.5811,1.5469,1.543,1.541,1.541,1.5662,1.5951,1.6218,1.6353,1.674,1.7081,1.6904,1.7363,1.784,1.7592,1.7787,1.7974,1.7589,1.7061,1.6647,1.6547,1.6522,1.6522,1.6522,1.6522,1.6522,1.6522,1.6522,1.6522,1.6522,1.662,1.6675,1.6675,1.6803,1.6918,1.6918,1.7115,1.7393,1.7787,1.8461,1.9507,2.1038,2.1845,2.2502,2.3116,2.3558,2.3891,2.4145,2.5095,2.5709,2.5983,2.7708,2.8313,2.7803,2.8818,2.9291,2.9323,3.0192,3.0549,3.0492,3.0492,3.0501,3.0499,3.0428,3.0394,3.0398,3.0398,3.0398,3.0398,3.0398,3.0398,3.0398,1.7088,1.7001,1.6802,1.6456,1.6271,1.6113,1.5939,1.5617,1.5202,1.4882,1.4296,1.3794,1.3478,1.3196,1.3071,1.3071,1.3035,1.2923,1.2781,1.2714,1.2628,1.2752,1.269,1.2868,1.3258,1.2567,1.2369,1.2738,1.2947,1.3429,1.4096,1.3909,1.4348,1.5297,1.5283,1.5724,1.6497,1.6915,1.7177,1.7341,1.7232,1.7187,1.7021,1.639,1.6066,1.5879,1.5537,1.541,1.5468,1.5884,1.64,1.6842,1.6965,1.7401,1.7852,1.7924,1.833,1.8698,1.8422,1.8474,1.8547,1.8119,1.7928,1.7601,1.6722,1.6522,1.6522,1.6522,1.6522,1.6522,1.6522,1.6522,1.6522,1.6522,1.662,1.6675,1.6675,1.6846,1.696,1.696,1.724,1.7557,1.7908,1.8884,1.9874,2.0828,2.1475,2.2102,2.2712,2.3218,2.3867,2.4697,2.509,2.6009,2.7524,2.8034,2.8365,2.8493,2.9497,3.0011,3.0074,3.0337,3.0447,3.043,3.0471,3.046,3.0428,3.0417,3.0394,3.0398,3.0398,3.0398,3.0398,3.0398,3.0398,3.0398,1.7588,1.7472,1.7394,1.7185,1.7019,1.6835,1.6766,1.6471,1.62,1.5963,1.5592,1.5248,1.5002,1.4763,1.4687,1.4687,1.4558,1.4421,1.4275,1.3931,1.3731,1.3775,1.379,1.3866,1.4178,1.405,1.3886,1.3767,1.4269,1.4717,1.518,1.5278,1.5644,1.6324,1.6327,1.6697,1.7304,1.752,1.7657,1.7842,1.7696,1.7559,1.7334,1.6865,1.6562,1.6348,1.6123,1.5968,1.597,1.6382,1.6749,1.7179,1.7512,1.8007,1.8441,1.8655,1.8975,1.9242,1.9128,1.9182,1.9158,1.8682,1.8593,1.838,1.7526,1.7325,1.7325,1.7325,1.7325,1.7237,1.6986,1.6955,1.691,1.6615,1.6791,1.696,1.7015,1.7225,1.7378,1.7475,1.7693,1.8016,1.8461,1.931,2.008,2.0628,2.1568,2.2378,2.2925,2.3763,2.4527,2.5249,2.5834,2.6681,2.7809,2.8352,2.8743,2.9004,2.9712,3.0109,3.0213,3.0266,3.0299,3.0304,3.0383,3.0383,3.0348,3.0352,3.0328,3.0299,3.0299,3.0299,3.0299,3.0299,3.0299,3.0305,1.8008,1.7842,1.7774,1.7821,1.7546,1.7389,1.7436,1.7194,1.6982,1.6811,1.6742,1.6621,1.6438,1.6403,1.6385,1.6385,1.6184,1.5974,1.5974,1.5321,1.4958,1.4887,1.4887,1.4887,1.4958,1.5613,1.5613,1.4824,1.5613,1.5974,1.6044,1.6464,1.6821,1.7038,1.7235,1.7442,1.7774,1.7774,1.7862,1.8008,1.8008,1.7803,1.748,1.7412,1.7158,1.6826,1.6758,1.6743,1.6789,1.71,1.7307,1.7578,1.8121,1.8619,1.8999,1.9186,1.9448,1.9604,1.9604,1.9708,1.9698,1.9271,1.9158,1.9045,1.8581,1.8342,1.8251,1.8251,1.8251,1.8147,1.7693,1.767,1.7594,1.716,1.7372,1.7613,1.7765,1.7894,1.8018,1.8233,1.8323,1.8581,1.9101,1.9737,2.0279,2.0631,2.1889,2.2864,2.3388,2.4425,2.5244,2.5808,2.6657,2.7306,2.7736,2.859,2.9104,2.927,2.9608,2.9872,3.0015,3.0113,3.0152,3.018,3.0241,3.0273,3.0279,3.0267,3.0228,3.0174,3.0161,3.0161,3.0161,3.0174,3.0194,3.018,1.8008,1.8008,1.8076,1.8402,1.8182,1.8036,1.835,1.7935,1.756,1.7569,1.7295,1.7097,1.7107,1.6899,1.683,1.683,1.676,1.6691,1.6533,1.6394,1.6245,1.6097,1.6088,1.6167,1.6315,1.6612,1.6473,1.5824,1.6254,1.6673,1.7019,1.7097,1.7304,1.7569,1.7638,1.7784,1.794,1.794,1.8008,1.8008,1.8008,1.7978,1.7881,1.7519,1.7399,1.7412,1.711,1.7244,1.7687,1.7912,1.8309,1.8646,1.9006,1.9294,1.9512,1.9565,1.9656,1.9747,1.9747,1.9798,1.9786,1.971,1.9698,1.9673,1.9597,1.8967,1.838,1.838,1.8474,1.8528,1.8452,1.8518,1.863,1.8689,1.8887,1.9097,1.9361,1.9124,1.8976,1.9181,1.9073,1.9064,1.9339,2.0132,2.0782,2.1259,2.226,2.3167,2.3865,2.4343,2.5124,2.6265,2.6539,2.7201,2.8286,2.8547,2.8821,2.9134,2.9225,2.9434,2.9681,2.9855,2.9972,3.0019,3.0109,3.0152,3.0199,3.0152,3.0123,3.0109,3.0056,3.0041,3.0022,3.009,3.0109,3.0102,1.8359,1.8359,1.8436,1.8922,1.8841,1.8812,1.899,1.8579,1.8209,1.822,1.787,1.7657,1.7657,1.7598,1.752,1.752,1.7382,1.7304,1.7226,1.7019,1.689,1.6811,1.6811,1.6811,1.695,1.7235,1.7235,1.6941,1.7157,1.7295,1.7501,1.7579,1.7725,1.7862,1.7862,1.794,1.8008,1.8008,1.8076,1.8144,1.8144,1.8269,1.8462,1.8261,1.8314,1.8405,1.8332,1.8426,1.8646,1.9018,1.9284,1.9518,1.9975,2.0336,2.0536,2.0644,2.0686,2.074,2.074,2.074,2.0677,2.0363,2.0288,2.02,1.9874,1.9636,1.949,1.9392,1.9587,1.9677,1.9447,1.9568,1.9615,1.9436,1.9605,1.9913,2.0144,2.0133,2.0172,2.0364,2.0415,2.0504,2.0581,2.1028,2.1462,2.1772,2.2838,2.3731,2.4295,2.5113,2.591,2.6713,2.6926,2.735,2.8,2.8264,2.8518,2.8767,2.8952,2.9185,2.9493,2.9664,2.9754,2.9769,2.9921,2.9988,2.9991,2.9988,2.9921,2.982,2.9784,2.9784,2.9784,2.9888,2.9907,2.9874]},{"header":{"parameterUnit":"m.s-1","parameterCategory":1,"la1":30.6,"la2":28.766,"lo1":-90.7593,"lo2":-88.6598,"dy":0.0162,"dx":0.0183,"nx":116,"ny":114,"refTime":"2024-07-01T00:00:00:Z","depth":0,"parameterNumber":3,"parameterNumberName":"V-component_of_WINDS"},"data":[0.0,0.0,0.0,0.0,0.0,0.0,0.0,0.0,0.0,0.0,0.0,0.0,0.0,0.0,0.0,0.0,0.0,0.0,0.0,0.0,0.0,0.0,0.0,0.0,0.0,0.0,0.0,0.0,0.0,0.0,0.0,0.0,0.0,0.0,0.0,0.0,0.0,0.0,0.0,0.0,0.0,0.0,0.0,0.0,0.0,0.0,0.0,0.0,0.0,0.0,0.0,0.0,0.0,0.0,0.0,0.0,0.0,0.0,0.0,0.0,0.0,0.0,0.0,0.0,0.0,0.0,0.0,0.0,0.0,0.0,0.0,0.0,0.0,0.0,0.0,0.0,0.0,0.0,0.0,0.0,0.0,0.0,0.0,0.0,0.0,0.0,0.0,0.0,0.0,0.0,0.0,0.0,0.0,0.0,0.0,0.0,0.0,0.0,0.0,0.0,0.0,0.0,0.0,0.0,0.0,0.0,0.0,0.0,0.0,0.0,0.0,0.0,0.0,0.0,0.0,0.0,0.0,0.0,0.0,0.0,0.0,0.0,0.0,0.0,0.0,0.0,0.0,0.0,0.0,0.0,0.0,0.0,0.0,0.0,0.0,0.0,0.0,0.0,0.0,0.0,0.0,0.0,0.0,0.0,0.0,0.0,0.0,0.0,0.0,0.0,0.0,0.0,0.0,0.0,0.0,0.0,0.0,0.0,0.0,0.0,0.0,0.0,0.0,0.0,0.0,0.0,0.0,0.0,0.0,0.0,0.0,0.0,0.0,0.0,0.0,0.0,0.0,0.0,0.0,0.0,0.0,0.0,0.0,0.0,0.0,0.0,0.0,0.0,0.0,0.0,0.0,0.0,0.0,0.0,0.0,0.0,0.0,0.0,0.0,0.0,0.0,0.0,0.0,0.0,0.0,0.0,0.0,0.0,0.0,0.0,0.0,0.0,0.0,0.0,0.0,0.0,0.0,0.0,0.0,0.0,0.0,0.0,0.0,0.0,0.0,0.0,0.0,0.0,0.0,0.0,0.0,0.0,0.0,0.0,0.0,0.0,0.0,0.0,0.0,0.0,0.0,0.0,0.0,0.0,0.0,0.0,0.0,0.0,0.0,0.0,0.0,0.0,0.0,0.0,0.0,0.0,0.0,0.0,0.0,0.0,0.0,0.0,0.0,0.0,0.0,0.0,0.0,0.0,0.0,0.0,0.0,0.0,0.0,0.0,0.0,0.0,0.0,0.0,0.0,0.0,0.0,0.0,0.0,0.0,0.0,0.0,0.0,0.0,0.0,0.0,0.0,0.0,0.0,0.0,0.0,0.0,0.0,0.0,0.0,0.0,0.0,0.0,0.0,0.0,0.0,0.0,0.0,0.0,0.0,0.0,0.0,0.0,0.0,0.0,0.0,0.0,0.0,0.0,0.0,0.0,0.0,0.0,0.0,0.0,0.0,0.0,0.0,0.0,0.0,0.0,0.0,0.0,0.0,0.0,0.0,0.0,0.0,0.0,0.0,0.0,0.0,0.0,0.0,0.0,0.0,0.0,0.0,0.0,0.0,0.0,0.0,0.0,0.0,0.0,0.0,0.0,0.0,0.0,0.0,0.0,0.0,0.0,0.0,0.0,0.0,0.0,0.0,0.0,0.0,0.0,0.0,0.0,0.0,0.0,0.0,0.0,0.0,0.0,0.0,0.0,0.0,0.0,0.0,0.0,0.0,0.0,0.0,0.0,0.0,0.0,0.0,0.0,0.0,0.0,0.0,0.0,0.0,0.0,0.0,0.0,0.0,0.0,0.0,0.0,0.0,0.0,0.0,0.0,0.0,0.0,0.0,0.0,0.0,0.0,0.0,0.0,0.0,0.0,0.0,0.0,0.0,0.0,0.0,0.0,0.0,0.0,0.0,0.0,0.0,0.0,0.0,0.0,0.0,0.0,0.0,0.0,0.0,0.0,0.0,0.0,0.0,0.0,0.0,0.0,0.0,0.0,0.0,0.0,0.0,0.0,0.0,0.0,0.0,0.0,0.0,0.0,0.0,0.0,0.0,0.0,0.0,0.0,0.0,0.0,0.0,0.0,0.0,0.0,0.0,0.0,0.0,0.0,0.0,0.0,0.0,0.0,0.0,0.0,0.0,0.0,0.0,0.0,0.0,0.0,0.0,0.0,0.0,0.0,0.0,0.0,0.0,0.0,0.0,0.0,0.0,0.0,0.0,0.0,0.0,0.0,0.0,0.0,0.0,0.0,0.0,0.0,0.0,0.0,0.0,0.0,0.0,0.0,0.0,0.0,0.0,0.0,0.0,0.0,0.0,0.0,0.0,0.0,0.0,0.0,0.0,0.0,0.0,0.0,0.0,0.0,0.0,0.0,0.0,0.0,0.0,0.0,0.0,0.0,0.0,0.0,0.0,0.0,0.0,0.0,0.0,0.0,0.0,0.0,0.0,0.0,0.0,0.0,0.0,0.0,0.0,0.0,0.0,0.0,0.0,0.0,0.0,0.0,0.0,0.0,0.0,0.0,0.0,0.0,0.0,0.0,0.0,0.0,0.0,0.0,0.0,0.0,0.0,0.0,0.0,0.0,0.0,0.0,0.0,0.0,0.0,0.0,0.0,0.0,0.0,0.0,0.0,0.0,0.0,0.0,0.0,0.0,0.0,0.0,0.0,0.0,0.0,0.0,0.0,0.0,0.0,0.0,0.0,0.0,0.0,0.0,0.0,0.0,0.0,0.0,0.0,0.0,0.0,0.0,0.0,0.0,0.0,0.0,0.0,0.0,0.0,0.0,0.0,0.0,0.0,0.0,0.0,0.0,0.0,0.0,0.0,0.0,0.0,0.0,0.0,0.0,0.0,0.0,0.0,0.0,0.0,0.0,0.0,0.0,0.0,0.0,0.0,0.0,0.0,0.0,0.0,0.0,0.0,0.0,0.0,0.0,0.0,0.0,0.0,0.0,0.0,0.0,0.0,0.0,0.0,0.0,0.0,0.0,0.0,0.0,0.0,0.0,0.0,0.0,0.0,0.0,0.0,0.0,0.0,0.0,0.0,0.0,0.0,0.0,0.0,0.0,0.0,0.0,0.0,0.0,0.0,0.0,0.0,0.0,0.0,0.0,0.0,0.0,0.0,0.0,0.0,0.0,0.0,0.0,0.0,0.0,0.0,0.0,0.0,0.0,0.0,0.0,0.0,0.0,0.0,0.0,0.0,0.0,0.0,0.0,0.0,0.0,0.0,0.0,0.0,0.0,0.0,0.0,0.0,0.0,0.0,0.0,0.0,0.0,0.0,0.0,0.0,0.0,0.0,0.0,0.0,0.0,0.0,0.0,0.0,0.0,0.0,0.0,0.0,0.0,0.0,0.0,0.0,0.0,0.0,0.0,0.0,0.0,0.0,0.0,0.0,0.0,0.0,0.0,0.0,0.0,0.0,0.0,0.0,0.0,0.0,0.0,0.0,0.0,0.0,0.0,0.0,0.0,0.0,0.0,0.0,0.0,0.0,0.0,0.0,0.0,0.0,0.0,0.0,0.0,0.0,0.0,0.0,0.0,0.0,0.0,0.0,0.0,0.0,0.0,0.0,0.0,0.0,0.0,0.0,0.0,0.0,0.0,0.0,0.0,0.0,0.0,0.0,0.0,0.0,0.0,0.0,0.0,0.0,0.0,0.0,0.0,0.0,0.0,0.0,0.0,0.0,0.0,0.0,0.0,0.0,0.0,0.0,0.0,0.0,0.0,0.0,0.0,0.0,0.0,0.0,0.0,0.0,0.0,0.0,0.0,0.0,0.0,0.0,0.0,0.0,0.0,0.0,0.0,0.0,0.0,0.0,0.0,0.0,0.0,0.0,0.0,0.0,0.0,0.0,0.0,0.0,0.0,0.0,0.0,0.0,0.0,0.0,0.0,0.0,0.0,0.0,0.0,0.0,0.0,0.0,0.0,0.0,0.0,0.0,0.0,0.0,0.0,0.0,0.0,0.0,0.0,0.0,0.0,0.0,0.0,0.0,0.0,0.0,0.0,0.0,0.0,0.0,0.0,0.0,0.0,0.0,0.0,0.0,0.0,0.0,0.0,0.0,0.0,0.0,0.0,0.0,0.0,0.0,0.0,0.0,0.0,0.0,0.0,0.0,0.0,0.0,0.0,0.0,0.0,0.0,0.0,0.0,0.0,0.0,0.0,0.0,0.0,0.0,0.0,0.0,0.0,0.0,0.0,0.0,0.0,0.0,0.0,0.0,0.0,0.0,0.0,0.0,0.0,0.0,0.0,0.0,0.0,0.0,0.0,0.0,0.0,0.0,0.0,0.0,0.0,0.0,0.0,0.0,0.0,0.0,0.0,0.0,0.0,0.0,0.0,0.0,0.0,0.0,0.0,0.0,0.0,0.0,0.0,0.0,0.0,0.0,0.0,0.0,0.0,0.0,0.0,0.0,0.0,0.0,0.0,0.0,0.0,0.0,0.0,0.0,0.0,0.0,0.0,0.0,0.0,0.0,0.0,0.0,0.0,0.0,0.0,0.0,0.0,0.0,0.0,0.0,0.0,0.0,0.0,0.0,0.0,0.0,0.0,0.0,0.0,0.0,0.0,0.0,0.0,0.0,0.0,0.0,0.0,0.0,0.0,0.0,0.0,0.0,0.0,0.0,0.0,0.0,0.0,0.0,0.0,0.0,0.0,0.0,0.0,0.0,0.0,0.0,0.0,0.0,0.0,0.0,0.0,0.0,0.0,0.0,0.0,0.0,0.0,0.0,0.0,0.0,0.0,0.0,0.0,0.0,0.0,0.0,0.0,0.0,0.0,0.0,0.0,0.0,0.0,0.0,0.0,0.0,0.0,0.0,0.0,0.0,0.0,0.0,0.0,0.0,0.0,0.0,0.0,0.0,0.0,0.0,0.0,0.0,0.0,0.0,0.0,0.0,0.0,0.0,0.0,0.0,0.0,0.0,0.0,0.0,0.0,0.0,0.0,0.0,0.0,0.0,0.0,0.0,0.0,0.0,0.0,0.0,0.0,0.0,0.0,0.0,0.0,0.0,0.0,0.0,0.0,0.0,0.0,0.0,0.0,0.0,0.0,0.0,0.0,0.0,0.0,0.0,0.0,0.0,0.0,0.0,0.0,0.0,0.0,0.0,0.0,0.0,0.0,0.0,0.0,0.0,0.0,0.0,0.0,0.0,0.0,0.0,0.0,0.0,0.0,0.0,0.0,0.0,0.0,0.0,0.0,0.0,0.0,0.0,0.0,0.0,0.0,0.0,0.0,0.0,0.0,0.0,0.0,0.0,0.0,0.0,0.0,0.0,0.0,0.0,0.0,0.0,0.0,0.0,0.0,0.0,0.0,0.0,0.0,0.0,0.0,0.0,0.0,0.0,0.0,0.0,0.0,0.0,0.0,0.0,0.0,0.0,0.0,0.0,0.0,0.0,0.0,0.0,0.0,0.0,0.0,0.0,0.0,0.0,0.0,0.0,0.0,0.0,0.0,0.0,0.0,0.0,0.0,0.0,0.0,0.0,0.0,0.0,0.0,0.0,0.0,0.0,0.0,0.0,0.0,0.0,0.0,0.0,0.0,0.0,0.0,0.0,0.0,0.0,0.0,0.0,0.0,0.0,0.0,0.0,0.0,0.0,0.0,0.0,0.0,0.0,0.0,0.0,0.0,0.0,0.0,0.0,0.0,0.0,0.0,0.0,0.0,0.0,0.0,0.0,0.0,0.0,0.0,0.0,0.0,0.0,0.0,0.0,0.0,0.0,0.0,0.0,0.0,0.0,0.0,0.0,0.0,0.0,0.0,0.0,0.0,0.0,0.0,0.0,0.0,0.0,0.0,0.0,0.0,0.0,0.0,0.0,0.0,0.0,0.0,0.0,0.0,0.0,0.0,0.0,0.0,0.0,0.0,0.0,0.0,0.0,0.0,0.0,0.0,0.0,0.0,0.0,0.0,0.0,0.0,0.0,0.0,0.0,0.0,0.0,0.0,0.0,0.0,0.0,0.0,0.0,0.0,0.0,0.0,0.0,0.0,0.0,0.0,0.0,0.0,0.0,0.0,0.0,0.0,0.0,0.0,0.0,0.0,0.0,0.0,0.0,0.0,0.0,0.0,0.0,0.0,0.0,0.0,0.0,0.0,1.2803,0.0,0.0,0.0,0.0,0.0,0.0,0.0,0.0,0.0,0.0,0.0,0.0,0.0,0.0,0.0,0.0,0.0,0.0,0.0,0.0,0.0,0.0,0.0,0.0,0.049,0.0842,0.1234,0.0842,0.0056,-0.1229,0.0,0.0,0.0,0.0,0.0,0.2884,0.3415,0.3658,0.3553,0.3949,0.4253,0.4481,0.4361,0.5112,0.6544,0.0,0.0,0.0,0.0,0.0,0.0,0.0,0.0,0.0,0.0,0.0,0.0,0.0,0.0,0.0,0.0,0.0,0.0,0.0,0.0,0.0,0.0,0.0,0.0,0.0,0.0,0.0,0.0,0.0,0.0,0.0,0.0,0.0,0.0,0.0,0.0,0.0,0.0,0.0,0.0,0.0,0.0,0.0,0.0,0.0,0.0,0.0,0.0,0.0,0.0,0.0,0.0,0.0,0.0,0.0,0.0,0.0,0.0,0.0,0.0,0.0,0.0,0.0,0.0,0.0,0.0,0.0,0.0,0.0,0.0,0.0,1.4085,0.0,0.0,0.0,0.0,0.0,0.0,0.0,0.0,0.0,0.0,0.0,0.0,0.0,0.0,0.0,0.0,0.0,0.0,0.0,0.0,0.0,-0.0202,-0.0655,-0.0591,-0.0168,0.0728,0.0336,-0.0559,-0.19,0.0,0.0,0.0,0.0,0.1049,0.2863,0.4421,0.5358,0.5539,0.5203,0.4483,0.3461,0.3167,0.3571,0.0,0.4736,0.0,0.0,0.0,0.0,0.0,0.0,0.0,0.0,0.0,0.0,0.0,0.0,0.0,0.0,0.0,0.0,0.0,0.0,0.0,0.0,0.0,0.0,0.0,0.0,0.0,0.0,0.0,0.0,0.0,0.0,0.0,0.0,0.0,0.0,0.0,0.0,0.0,0.0,0.0,0.0,0.0,0.0,0.0,0.0,0.0,0.0,0.0,0.0,0.0,0.0,0.0,0.0,0.0,0.0,0.0,0.0,0.0,0.0,0.0,0.0,0.0,0.0,0.0,0.6728,0.7823,0.9663,1.267,1.5127,1.6985,1.6639,1.6567,1.6703,0.0,0.0,0.0,0.0,0.0,0.0,0.0,0.0,0.0,0.0,0.0,0.0,0.0,0.0,0.0,0.0,0.0,0.0,0.0,0.0,-0.0504,-0.1817,-0.2422,-0.2294,-0.1282,-0.1838,-0.2393,-0.273,0.0,0.0,0.0,0.0657,0.3023,0.5711,0.7892,0.8863,0.8508,0.728,0.4418,0.0051,0.0,0.0,0.0,0.1339,0.2378,0.0,0.0,0.0,0.0,0.0,0.0,0.0,0.0,0.0,0.0,0.0,0.0,0.0,0.0,0.0,0.0,0.0,0.0,0.0,0.0,0.0,0.0,0.0,0.0,0.0,0.0,0.0,0.0,0.0,0.0,0.0,0.0,0.0,0.0,0.0,0.0,0.0,0.0,0.0,0.0,0.0,0.0,1.6652,1.6982,0.0,0.0,0.0,0.0,0.0,0.0,0.0,0.0,0.0,0.0,0.0,0.0,0.0,1.4128,0.8124,0.5748,0.2202,-0.2471,0.1316,0.4843,0.826,1.3122,1.6814,1.9395,1.9956,0.0,1.8974,1.9192,0.0,0.0,0.0,0.0,0.0,0.0,0.0,0.0,0.0,0.0,0.0,0.0,0.0,0.0,0.0,0.0,0.0,0.0,0.0,0.0,0.0,-0.5619,-0.623,-0.5288,-0.5641,-0.6192,0.0,0.0,0.0,-0.087,0.3172,0.6249,0.8204,0.9803,0.8633,0.4667,0.1906,-0.1256,0.0,0.0,0.0,0.0,-0.5798,-0.4301,0.0,0.0,0.0,0.0,0.0,0.0,0.0,0.0,0.0,0.0,0.0,0.0,0.0,0.0,0.0,0.0,0.0,0.0,0.0,0.0,0.0,0.0,0.0,0.0,0.0,0.0,0.0,0.0,0.0,0.0,0.0,0.0,0.0,0.0,0.0,0.0,0.0,0.0,0.0,0.0,0.0,1.7764,1.9121,1.9479,1.9095,1.8842,0.0,0.0,0.0,0.0,0.0,0.0,0.0,0.0,0.0,1.8806,1.6064,1.1663,0.5493,0.1845,-0.2158,-0.6412,-0.3537,0.0167,0.4673,1.0134,1.4812,1.8626,1.9819,1.9933,1.9316,1.9636,1.9418,1.8858,0.0,0.0,0.0,0.0,1.6983,1.6917,0.0,0.0,0.0,0.0,0.0,0.0,0.0,0.0,0.0,0.0,0.0,0.0,-0.5013,-0.8863,-1.0698,-0.9423,0.0,0.0,0.0,0.0,0.0,-0.0103,0.4445,0.7964,1.0209,0.9973,0.6771,0.0557,-0.3372,0.0,0.0,0.0,0.0,0.0,0.0,0.0,0.0,0.0,0.0,0.0,0.0,0.0,0.0,0.0,0.0,0.0,0.0,0.0,0.0,0.0,0.0,0.0,0.0,0.0,0.0,0.0,0.0,0.0,0.0,0.0,0.0,0.0,0.0,0.0,0.0,0.0,0.0,0.0,0.0,0.0,0.0,0.0,0.0,0.0,0.0,0.0,0.0,2.0179,2.1112,2.1387,2.1033,2.0789,0.0,0.0,0.0,0.0,0.0,0.0,2.1534,2.0536,1.9017,1.6885,1.3329,0.83,0.1731,-0.2436,-0.6542,-1.0529,-0.7673,-0.363,0.1536,0.7564,1.2814,1.7269,1.8608,1.8819,1.826,1.9011,1.872,1.7756,1.7205,1.6425,1.557,1.504,1.4689,1.4574,0.0,0.0,0.0,0.0,0.0,0.0,0.0,0.0,0.0,0.0,0.0,-0.0697,0.0,0.0,0.0,0.0,0.0,0.0,0.0,0.0,0.0,0.0919,0.309,0.6499,1.1395,0.7763,0.0,0.0,0.0,0.0,0.0,0.0,0.0,0.0,0.0,0.0,0.0,0.0,0.0,0.0,0.0,0.0,0.0,0.0,0.0,0.0,0.0,0.0,0.0,0.0,0.0,0.0,0.0,0.0,0.0,0.0,0.0,0.0,0.0,0.0,0.0,0.0,0.0,0.0,0.0,0.0,0.0,0.0,0.0,0.0,0.0,0.0,0.0,0.0,0.0,0.0,0.0,0.0,0.0,2.2337,2.1989,0.0,0.0,0.0,0.0,2.2051,2.1857,2.134,2.053,1.8937,1.6788,1.4006,0.9552,0.3119,-0.5404,-0.8229,-1.2088,-1.6859,-1.0854,-0.524,0.0051,0.7085,1.2405,1.6136,1.6969,1.6635,1.562,1.7301,1.7287,1.6099,1.5125,1.4147,1.3153,1.2318,1.1883,1.1783,0.0,0.0,0.0,0.4448,0.4475,0.435,0.4037,0.33,0.2591,0.2012,0.1185,0.0,0.0,0.0,0.0,0.0,0.0,0.0,0.0,0.0,0.0,-0.2142,0.947,1.3047,0.7214,0.3375,-0.1106,0.0,0.0,0.0,0.0,0.0,0.0,0.0,0.0,0.0,0.0,0.0,0.0,0.0,0.0,0.0,0.0,0.0,0.0,0.0,0.0,0.0,0.0,0.0,0.0,0.0,0.0,0.0,0.0,0.0,0.0,0.0,0.0,0.0,0.0,0.0,0.0,0.0,0.0,0.0,0.0,0.0,0.0,0.0,0.0,0.0,0.0,0.0,0.0,0.0,0.0,0.0,0.0,2.1985,2.148,0.0,2.1248,2.1039,2.0765,2.0455,1.969,1.8658,1.7277,1.5073,1.23,0.8829,0.4164,-0.1373,-0.775,-1.1176,-1.4369,-1.7152,-1.2924,-0.8156,-0.2808,0.327,0.8477,1.2777,1.3902,1.3751,1.2735,1.2559,1.2338,1.1965,1.0976,0.9605,0.811,0.7211,0.6498,0.6056,0.2413,0.3222,0.0,0.4793,0.5019,0.5014,0.4696,0.344,0.2224,0.1332,-0.0222,0.0,0.0,0.0,0.0,0.0,0.0,0.0,0.0,0.0,-1.2758,-0.417,0.9975,1.2143,0.0396,-0.2009,0.0,0.0,0.0,0.0,0.0,0.0,0.0,0.0,0.0,0.0,0.0,0.0,0.0,0.0,0.0,0.0,-1.6729,0.0,0.0,0.0,0.0,0.0,0.0,0.0,0.0,0.0,0.0,0.0,0.0,0.0,0.0,0.0,0.0,0.0,0.0,0.0,0.0,0.0,0.0,0.0,0.0,0.0,0.0,0.0,0.0,0.0,0.0,0.0,0.0,0.0,0.0,0.0,2.122,2.0569,1.988,1.9497,1.9536,1.9138,1.854,1.7825,1.655,1.5023,1.3207,1.0686,0.7682,0.4209,-0.0104,-0.4521,-0.9018,-1.2256,-1.4538,-1.5916,-1.3083,-0.9376,-0.4777,0.0451,0.5089,0.9177,1.0764,1.1047,1.0292,0.9334,0.8671,0.8138,0.7319,0.5833,0.4063,0.3075,0.2143,0.1643,0.2692,0.3627,0.447,0.5044,0.5549,0.5711,0.5117,0.2982,0.0929,-0.0573,0.0,0.0,0.0,0.0,0.0,0.0,0.0,0.0,0.0,0.0,-1.3644,-0.395,0.4126,0.3043,-0.8446,0.0,0.0,0.0,0.0,0.0,0.0,0.0,0.0,0.0,0.0,0.0,0.0,0.0,0.0,0.0,0.0,0.0,-2.0667,0.0,0.0,0.0,0.0,0.0,0.0,0.0,0.0,0.0,0.0,0.0,0.0,0.0,0.0,0.0,0.0,0.0,0.0,0.0,0.0,0.0,0.0,0.0,0.0,0.0,0.0,0.0,0.0,0.0,0.0,0.0,0.0,0.0,2.1185,2.0274,1.9076,1.8063,1.7238,1.673,1.6752,1.6192,1.5369,1.4299,1.2542,1.062,0.851,0.6032,0.3298,0.027,-0.2962,-0.6283,-0.9612,-1.1608,-1.2928,-1.3563,-1.1425,-0.8809,-0.5688,-0.1068,0.2651,0.5533,0.7776,0.8672,0.8521,0.8037,0.6784,0.4995,0.444,0.3116,0.1398,0.0223,-0.095,-0.122,0.2987,0.3875,0.4779,0.5611,0.5786,0.579,0.5751,0.4014,0.1497,0.0,0.0,0.0,0.0,0.0,0.0,0.0,0.0,0.0,0.0,0.0,-0.5759,1.4929,0.9632,0.0,0.0,0.0,0.0,0.0,0.0,0.0,0.0,0.0,0.0,0.0,0.0,0.0,0.0,0.0,0.0,0.0,0.0,0.0,-2.1531,0.0,0.0,0.0,0.0,0.0,0.0,0.0,0.0,0.0,0.0,0.0,0.0,0.0,0.0,0.0,0.0,0.0,0.0,0.0,0.0,0.0,0.0,0.0,0.0,0.0,0.0,0.0,0.0,0.0,0.0,0.0,1.6049,1.6422,1.841,1.7432,1.6153,1.5026,1.4116,1.3415,1.3103,1.2202,1.1196,1.0052,0.83,0.6452,0.4506,0.2431,0.0163,-0.24,-0.5095,-0.7808,-1.0531,-1.2104,-1.3102,-1.3409,-1.1509,-0.9119,-0.6168,-0.2264,0.1089,0.4011,0.6152,0.7213,0.7509,0.723,0.6136,0.4553,0.3999,0.2447,0.0447,-0.0892,-0.2007,-0.2441,0.3257,0.413,0.5022,0.5928,0.5916,0.5719,0.5407,0.3648,0.1008,-0.2718,0.0,0.0,0.0,0.0,0.0,0.0,0.0,0.0,-1.9442,-0.6396,0.6717,0.0,0.0,0.0,0.0,0.0,0.0,0.0,0.0,0.0,0.0,0.0,0.0,0.0,0.0,0.0,0.0,0.0,0.0,0.0,0.0,0.0,-2.062,-2.1212,-2.1036,-2.0352,-1.9189,-1.8656,-1.8352,-1.7382,0.0,0.0,0.0,0.0,0.0,0.0,0.0,0.0,0.0,0.0,0.0,0.0,0.0,0.0,0.0,0.0,0.0,0.0,0.0,0.0,0.0,0.0,0.0,0.0,1.2175,1.195,1.2984,1.3378,1.3233,1.2321,1.1474,1.0806,1.0272,0.9234,0.8022,0.6744,0.4996,0.3229,0.1433,-0.0331,-0.2258,-0.4338,-0.6643,-0.8909,-1.1189,-1.2531,-1.3266,-1.3362,-1.1742,-0.9525,-0.6791,-0.3412,-0.0328,0.0,0.4464,0.5634,0.6095,0.5864,0.4925,0.0,0.0,0.0,0.0,0.0,-0.3666,-0.3608,0.3614,0.4443,0.5248,0.6052,0.5999,0.5509,0.4623,0.2644,0.0088,-0.3203,0.0,0.0,0.0,0.0,0.0,0.0,0.0,0.0,0.0,0.0,0.0,0.0,0.0,0.0,0.0,0.0,0.0,0.0,0.0,0.0,0.0,0.0,0.0,0.0,0.0,0.0,0.0,0.0,0.0,0.0,0.0,0.0,-1.8542,-1.9231,-2.0128,-2.0986,-2.1017,-2.1301,-2.162,-2.1199,0.0,0.0,0.0,0.0,0.0,0.0,0.0,0.0,0.0,0.0,0.0,0.0,0.0,0.0,0.0,0.0,0.0,0.0,0.0,0.0,0.0,0.0,0.0,0.0,0.7983,0.6973,0.6508,0.8758,1.0276,0.9855,0.9356,0.8758,0.8119,0.7031,0.5774,0.43,0.2601,0.089,-0.0837,0.0,0.0,0.0,0.0,-0.9819,-1.172,-1.289,-1.3457,-1.3409,-1.1966,-0.9977,-0.7396,-0.4398,-0.1589,0.0998,0.2768,0.3938,0.4505,0.4278,0.3214,0.1774,0.1662,0.0277,-0.1995,-0.4969,-0.5647,0.0,0.421,0.4979,0.5655,0.619,0.6066,0.5596,0.4707,0.287,0.0308,-0.3346,-0.6163,0.0,0.0,0.0,0.0,0.0,0.0,0.0,0.0,0.0,0.0,0.0,0.0,0.0,0.0,0.0,0.0,0.0,0.0,0.0,0.0,0.0,0.0,0.0,0.0,0.0,0.0,0.0,0.0,0.0,0.0,0.0,-1.6386,-1.7325,-1.8477,-1.9652,-2.0315,-2.098,-2.1535,-2.1418,-2.1708,-2.1989,-2.1423,0.0,0.0,0.0,0.0,0.0,0.0,0.0,0.0,0.0,0.0,0.0,0.0,0.0,0.0,0.0,0.0,0.0,0.0,0.0,0.0,0.4884,0.4094,0.3724,0.3808,0.5217,0.6673,0.787,0.7913,0.7563,0.6864,0.576,0.4436,0.2883,0.1279,-0.039,-0.2065,-0.3561,-0.5307,-0.7233,-0.904,-1.0881,-1.2715,-1.3521,-1.3826,-1.3684,0.0,0.0,-0.7955,-0.5185,-0.2642,-0.0277,0.1444,0.267,0.3395,0.2834,0.0882,-0.1808,-0.2144,-0.3351,-0.5217,-0.7015,-0.7143,-0.6103,0.4211,0.4897,0.5506,0.6134,0.5932,0.5424,0.4661,0.2773,0.05,-0.2176,-0.4483,0.0,0.0,0.0,0.0,0.0,0.0,0.0,0.0,0.0,0.0,0.0,0.0,0.0,0.0,0.0,0.0,0.0,0.0,0.0,0.0,0.0,0.0,0.0,0.0,0.0,0.0,0.0,0.0,0.0,0.0,0.0,-1.4557,-1.6166,-1.7696,-1.9109,-1.9945,-2.0731,-2.1453,-2.1918,-2.2511,-2.3052,-2.3139,-2.2994,-2.26,0.0,0.0,0.0,0.0,0.0,0.0,0.0,0.0,0.0,0.0,0.0,0.0,0.0,0.0,0.6497,0.5349,0.0,0.2422,0.1314,0.0939,0.1055,0.1892,0.3492,0.514,0.6773,0.723,0.7187,0.6539,0.5492,0.4106,0.2445,0.0835,-0.0892,-0.2676,-0.4275,-0.6058,-0.8128,-0.9921,-1.1653,-1.3273,-1.392,-1.4025,-1.3695,-1.222,-1.0378,-0.8254,-0.586,-0.3531,-0.1278,0.0223,0.1283,0.1785,0.0221,-0.208,-0.4685,-0.5908,-0.6834,-0.7559,-0.8847,-0.8808,-0.7735,0.4099,0.4724,0.5264,0.5995,0.571,0.5147,0.4439,0.2518,0.0616,-0.0938,-0.262,-0.412,-0.5324,-0.5404,-0.4919,0.0,0.0,0.0,0.0,0.0,0.0,0.0,0.0,0.0,0.0,0.0,0.0,0.0,0.0,0.0,0.0,0.0,0.0,0.0,0.0,0.0,0.0,0.0,0.0,0.0,0.0,0.0,-1.3298,-1.5444,-1.7297,-1.8945,-1.9859,-2.0732,-2.1602,-2.2452,-2.3035,-2.3551,-2.4094,-2.4452,-2.458,-2.4196,-2.3026,0.0,0.0,0.0,0.0,0.0,0.0,0.0,0.0,0.0,0.4117,0.3714,0.3052,0.2308,0.1749,0.0387,-0.0834,-0.134,-0.1341,-0.078,0.0607,0.2575,0.4523,0.6226,0.7057,0.7337,0.6902,0.5864,0.4429,0.2496,0.0835,-0.1003,-0.306,-0.4758,-0.664,-0.8854,-1.0596,-1.222,-1.3674,-1.4129,-1.4035,-1.3515,-1.2141,-1.0452,-0.8449,-0.6367,-0.4255,-0.2115,-0.067,0.0,-0.0056,-0.2481,-0.4807,-0.7045,-0.9183,-1.0012,-1.012,-1.0847,-1.0562,-0.9394,0.4123,0.4836,0.5404,0.5765,0.5538,0.4963,0.3942,0.2192,0.0591,-0.0665,-0.1876,-0.3069,-0.4385,-0.3778,-0.3336,-0.3594,0.0,0.0,0.0,0.0,0.0,0.0,0.0,0.0,0.0,0.0,0.0,0.0,0.0,0.0,0.0,0.0,0.0,0.0,0.0,0.0,0.0,0.0,0.0,0.0,0.0,0.0,-1.3238,-1.5253,-1.7254,-1.9111,-2.0081,-2.1162,-2.2201,-2.2909,-2.3009,-2.296,-2.3326,-2.362,-2.3861,-2.3976,0.0,-2.428,-2.3369,-2.1244,-1.8285,-1.3943,-1.1181,-0.8642,0.0,0.0,-0.1337,-0.0868,-0.0931,-0.1049,-0.1113,-0.1732,-0.2294,-0.2465,-0.2183,-0.1382,0.016,0.2216,0.4305,0.6255,0.7497,0.8066,0.7794,0.6822,0.5345,0.3149,0.122,-0.0889,-0.3335,-0.514,-0.7175,-0.9519,-1.1106,-1.257,-1.392,-1.4014,-1.3789,-1.3218,-1.1913,-1.0332,-0.8626,-0.6753,-0.4801,-0.272,-0.0949,-0.0838,-0.2055,-0.4117,-0.6463,-0.8999,-1.103,-1.2666,-1.3886,-1.3185,-1.226,-1.1005,0.3704,0.4383,0.4897,0.5032,0.5203,0.5019,0.4263,0.2521,0.0877,-0.0204,-0.1441,-0.2447,-0.3029,-0.2259,-0.178,-0.2027,0.0284,0.0,0.0,0.0,0.0,0.0,0.0,0.0,0.0,0.0,0.0,0.0,0.0,0.0,0.0,0.0,0.0,0.0,0.0,0.0,0.0,0.0,0.0,0.0,0.0,0.0,-1.3734,-1.603,-1.8294,-2.0217,-2.0814,-2.173,0.0,0.0,-2.307,-2.3163,-2.2956,-2.3004,-2.3148,-2.3263,-2.3501,0.0,-2.3138,-2.1581,-1.9233,0.0,-1.3238,-1.0813,-0.7392,-0.5444,-0.4151,-0.324,-0.2772,-0.2417,-0.2158,-0.2372,-0.2584,0.0,-0.2319,-0.1516,0.0205,0.2377,0.4681,0.7248,0.9159,0.9886,0.8919,0.808,0.6663,0.4283,0.1986,-0.0497,-0.3372,-0.5446,-0.7694,-1.0156,-1.1531,-1.2793,-1.3999,-1.3847,-1.3505,-1.2957,-1.1765,-1.0442,-0.8954,-0.7132,-0.4798,-0.2117,-0.1341,-0.1782,-0.3259,-0.561,-0.8177,-1.0814,-1.2752,-1.4449,-1.5672,-1.4824,-1.3871,-1.2589,0.303,0.3758,0.4326,0.4477,0.4826,0.49,0.4408,0.2848,0.1289,0.0266,-0.0987,-0.184,-0.1995,-0.1287,-0.0831,-0.089,0.1616,0.7402,0.0,0.0,0.0,0.0,0.0,0.0,0.0,0.0,0.0,0.0,0.0,0.0,0.0,0.0,0.0,0.0,0.0,0.0,0.0,0.0,0.0,0.0,0.0,0.0,-1.4476,-1.7194,-1.9599,-2.1479,-2.1675,-2.2432,0.0,0.0,-2.3121,-2.3137,-2.2462,-2.2286,-2.2353,-2.2403,-2.2625,-2.2764,-2.228,-2.0922,-1.8947,-1.5979,-1.3643,-1.1314,-0.8504,-0.7101,-0.6092,-0.5095,-0.4239,-0.3506,-0.2861,-0.2616,-0.2518,-0.2467,-0.2215,-0.1401,0.0345,0.2426,0.4969,0.8027,1.0508,1.1688,1.1018,0.9982,0.83,0.5752,0.3111,0.011,-0.3187,-0.5586,-0.805,-1.0637,-1.1805,-1.2861,-1.3868,-1.3573,-1.317,-1.2677,-1.1683,-1.0559,-0.9228,-0.7015,-0.4474,-0.19,-0.19,-0.2775,-0.4392,-0.6981,-0.9663,-1.2349,-1.429,-1.5835,-1.6925,-1.6348,-1.5416,-1.396,0.2047,0.3005,0.3812,0.4395,0.4539,0.4432,0.4095,0.2965,0.1767,0.0535,-0.0372,-0.1063,-0.149,-0.1149,-0.0884,-0.092,0.0768,0.6039,1.5899,1.7866,0.0,0.0,0.0,0.0,0.0,0.0,0.0,0.0,0.0,0.0,0.0,0.0,0.0,0.0,0.0,0.0,0.0,0.0,0.0,0.0,0.0,0.0,-1.5427,-1.8673,-2.1029,-2.2568,-2.2633,0.0,0.0,0.0,-2.3106,-2.2489,-2.1608,-2.1386,0.0,-2.1434,-2.2089,0.0,-2.1513,-1.9687,-1.7378,-1.4562,-1.2249,-1.0249,-0.8717,-0.8044,-0.7532,-0.6769,-0.5891,-0.4812,-0.3538,-0.2851,-0.2409,-0.2062,-0.181,-0.114,0.0286,0.2284,0.4839,0.8215,1.0961,1.3101,0.0,1.2699,1.0384,0.7717,0.4559,0.1027,-0.2893,-0.5565,-0.8208,-1.0906,-1.1913,-1.2812,-1.3621,-1.3218,-1.2832,-1.2403,-1.166,-1.0702,-0.9451,-0.604,-0.3828,-0.2681,-0.2681,-0.3707,-0.5614,-0.8119,-1.0813,-1.3518,-1.5348,-1.6844,-1.7948,-1.8055,-1.6983,-1.4979,0.0942,0.2184,0.319,0.3817,0.4252,0.434,0.3806,0.2703,0.1561,0.0552,-0.0,0.0,0.0,0.0,0.0,0.0,0.3499,0.7524,1.2194,1.2371,0.0,0.0,0.0,0.0,0.0,0.0,0.0,0.0,0.0,0.0,0.0,0.0,0.0,0.0,0.0,0.0,0.0,0.0,0.0,0.0,0.0,0.0,-1.9861,-2.092,-2.2122,-2.3254,0.0,0.0,0.0,0.0,-2.2598,-2.2218,-2.0716,0.0,0.0,-2.0554,-2.0692,-2.0535,-1.9276,-1.7739,-1.589,-1.338,-1.1747,-1.0445,-0.9454,-0.9329,-0.924,-0.8453,-0.6777,-0.4904,-0.3234,-0.1448,-0.0092,0.0367,0.0322,0.0599,0.1546,0.3217,0.5524,0.8807,1.1532,0.0,0.0,0.0,0.0,0.912,0.5623,0.1713,-0.2547,-0.5646,-0.8456,-1.1057,-1.199,-1.2793,-1.3467,-1.3142,-1.2939,-1.2774,-1.1384,-0.9946,-0.8528,-0.6112,-0.4436,-0.345,-0.3616,-0.4837,-0.6918,-0.9466,-1.2139,-1.4766,-1.6528,-1.7854,-1.8745,-1.8798,-1.7973,-1.6355,-0.0049,0.1358,0.2626,0.3473,0.4079,0.0,0.0,0.0,0.0,0.0,0.0,0.0,0.0,0.0,0.0,0.0,0.0,0.8786,1.0212,0.0,0.0,0.0,0.0,0.0,0.0,0.0,0.0,0.0,0.0,0.0,0.0,0.0,0.0,0.0,0.0,0.0,0.0,0.0,0.0,0.0,0.0,0.0,-1.9745,-2.0901,-2.1905,0.0,0.0,0.0,0.0,0.0,0.0,0.0,0.0,0.0,0.0,0.0,-1.9645,-1.8861,-1.7491,-1.5838,-1.3981,-1.1869,-1.0771,-1.0219,-1.0196,-1.0667,-1.0989,-1.0455,-0.7343,-0.4202,-0.2484,0.078,0.3222,0.3284,0.2759,0.2502,0.3005,0.4335,0.641,0.9452,1.1965,1.4081,0.0,0.0,0.0,1.0254,0.6422,0.2287,-0.2268,-0.5579,-0.8508,-1.1057,-1.195,-1.2706,-1.3314,-1.319,-1.3035,-1.2861,-1.1408,-0.9872,-0.8258,-0.6494,-0.5202,-0.4333,-0.4761,-0.6114,-0.8313,-1.0853,-1.3453,-1.5973,-1.7505,-1.8612,-1.9347,-1.9213,-1.8446,-1.697,-0.0993,0.0655,0.2217,0.0,0.0,0.0,0.0,0.0,0.0,0.0,0.0,0.0,0.0,0.0,0.0,0.0,0.0,0.0,0.9951,0.0,0.0,0.0,0.0,0.0,-0.7504,-1.0289,0.0,0.0,0.0,0.0,0.0,0.0,0.0,0.0,0.0,0.0,0.0,0.0,0.0,0.0,0.0,0.0,-1.5433,-1.8811,0.0,0.0,0.0,0.0,0.0,0.0,0.0,0.0,0.0,0.0,0.0,0.0,-1.8947,-1.7677,-1.6214,-1.41,-1.1891,-1.0252,-0.954,-0.9615,-1.0943,-1.1979,-1.2599,-1.2431,-0.7539,-0.2777,-0.1154,0.0,0.7356,0.6515,0.5473,0.4721,0.4621,0.5704,0.7435,0.0,0.0,0.0,0.0,0.0,0.0,1.0879,0.0,0.2599,-0.2158,-0.5477,-0.8358,-1.0906,-1.185,-1.2608,-1.3208,-1.3409,-1.3208,-1.2657,-1.1855,-1.0477,-0.8678,-0.7138,-0.6023,-0.5386,-0.6009,-0.7594,-0.9899,-1.2225,-1.4763,-1.718,-1.826,-1.914,-1.9803,-1.9472,-1.8504,-1.69,0.0,0.0,0.0,0.0,0.0,0.0,0.0,0.0,0.0,0.0,0.0,0.0,0.0,0.0,0.0,0.0,0.0,0.0,0.0,0.0,0.0,0.0,0.0,0.0,0.0,0.0,0.0,0.0,0.0,0.0,0.0,0.0,0.0,0.0,0.0,0.0,0.0,0.0,0.0,0.0,0.0,0.0,-1.483,0.0,0.0,0.0,0.0,0.0,0.0,0.0,0.0,0.0,0.0,-1.8681,-1.8924,-1.8825,0.0,-1.7322,-1.5273,-1.3524,-1.198,-1.0633,-1.0352,-1.0687,-1.178,-1.2671,-1.2618,-1.0322,-0.6069,-0.1433,0.2976,0.7521,0.0,1.0432,0.9753,0.0,0.7877,0.8236,0.0,1.1058,0.0,1.3895,1.4869,1.3896,0.0,0.0,0.6005,0.2123,-0.2158,-0.5535,-0.8325,-1.0509,-1.1601,-1.2598,-1.3484,-1.4294,-1.4387,-1.3831,-1.2551,-1.0956,-0.9082,-0.7623,-0.6627,-0.6154,-0.7186,-0.8978,-1.1407,-1.3753,-1.6103,-1.8303,-1.9332,-1.998,-2.0273,-1.9995,-1.9013,-1.7486,0.0,0.0,0.0,0.0,0.0,0.0,0.0,0.0,0.0,0.0,0.0,0.0,0.0,0.0,0.0,0.0,0.0,0.0,0.0,0.0,0.0,0.0,0.0,0.0,0.0,0.0,0.0,0.0,0.0,0.0,0.0,0.0,0.0,0.0,0.0,0.0,0.0,0.0,0.0,0.0,0.0,0.0,0.0,0.0,0.0,0.0,0.0,0.0,0.0,0.0,0.0,-1.7587,-1.7685,-1.8142,-1.8573,-1.8301,0.0,-1.6687,-1.466,-1.3078,-1.1779,-1.0886,-1.0948,-1.1578,-1.3059,-1.3281,-1.2505,-1.0063,-0.4496,0.1402,0.6167,1.1258,1.4693,0.0,0.0,0.0,1.1074,1.0938,1.1292,0.0,1.3177,0.0,1.4329,1.3127,1.1242,0.0,0.5418,0.1817,-0.217,-0.5288,-0.7917,-0.9997,-1.1316,-1.2773,-1.4505,-1.532,-1.5365,-1.4699,-1.325,-1.1478,-0.943,-0.8053,-0.7224,-0.6961,0.0,-1.0324,-1.2762,-1.512,-1.7343,-1.9352,-2.0143,-2.0597,-2.0714,-2.0361,-1.9416,-1.8014,0.0,0.0,0.0,0.0,0.0,0.0,0.0,0.0,0.0,0.3398,0.2462,0.1738,0.1342,0.111,0.0,0.0,0.0,0.0,0.0,0.0,0.0,0.0,0.0,0.0,0.0,0.0,0.0,0.0,0.0,0.0,0.0,0.0,0.0,0.0,0.0,0.0,0.0,0.0,0.0,0.0,0.0,0.0,0.0,0.0,0.0,0.0,0.0,0.0,0.0,0.0,-1.5026,-1.6754,-1.6902,-1.7528,-1.8156,-1.7805,-1.7067,-1.5989,-1.4298,-1.2837,-1.1706,-1.1273,-1.1558,-1.2408,-1.4219,-1.3761,-1.2274,-0.9902,-0.2568,0.4721,0.8957,1.475,1.8788,1.8545,0.0,1.5808,1.4287,1.3778,1.3564,1.3564,1.4091,1.4387,1.4233,1.2764,1.0839,0.8622,0.5383,0.1822,-0.2024,-0.4772,-0.7388,-0.9857,-1.1437,-1.3445,-1.591,-1.6434,-1.6262,-1.5395,-1.3886,-1.1951,-0.9724,-0.8475,-0.7765,-0.7646,0.0,0.0,-1.3981,-1.6347,-1.8501,-2.0304,-2.0846,-2.1086,-2.1134,-2.0648,-1.9743,-1.853,0.0,0.0,0.0,0.0,0.0,0.0,0.0,0.5475,0.4381,0.4405,0.3186,0.2015,0.1398,0.1499,0.0,0.0,0.0,0.0,0.0,0.0,0.0,0.0,0.0,0.0,0.0,0.0,0.0,0.0,0.0,0.0,0.0,0.0,0.0,0.0,0.0,0.0,0.0,0.0,0.0,0.0,0.0,0.0,0.0,0.0,0.0,0.0,0.0,0.0,0.0,0.0,-1.3472,-1.5563,-1.6428,-1.6924,-1.7093,-1.6385,-1.6174,-1.5761,-1.4047,-1.3207,-1.2786,-1.2599,-1.2826,-1.3233,-1.3708,-1.3769,0.0,0.0,0.0502,0.649,1.2451,1.7219,2.0319,2.0533,2.0234,1.9462,1.7903,1.7023,1.6357,0.0,1.5856,1.576,1.5407,1.3818,0.0,0.0,0.0,0.3146,-0.0934,-0.4014,-0.7483,-1.1487,-1.3537,-1.5485,-1.7233,-1.7585,-1.7313,-1.6401,-1.4462,-1.2282,-1.0,-0.8574,-0.7925,-0.8119,-0.9867,0.0,-1.5097,-1.7431,-1.9491,-2.1132,-2.1625,-2.1731,-2.1535,-2.1134,-2.0224,-1.9028,0.0,0.0,0.0,0.0,0.0,0.0,0.0,0.6036,0.5062,0.4743,0.3466,0.2298,0.1625,0.1728,0.2883,0.0,0.0,0.0,0.0,0.0,0.0,0.0,0.0,0.0,0.0,0.0,0.0,0.0,0.0,0.0,0.0,0.0,0.0,0.0,0.0,0.0,0.0,0.0,0.0,0.0,0.0,0.0,0.0,0.0,0.0,0.0,0.0,0.0,0.0,0.0,-1.1442,-1.2973,-1.4642,-1.5385,-1.5552,-1.4809,-1.4779,-1.4703,-1.3351,-1.3033,-1.3112,-1.3185,-1.3547,-1.3781,-1.343,0.0,0.0,0.0,0.2464,0.8284,1.3965,1.79,2.0656,2.1796,2.1991,2.1597,2.0463,1.9587,1.8802,1.8115,1.7763,1.7384,1.6993,1.5514,1.3892,0.0,0.0,0.5561,0.0958,-0.3519,-0.762,-1.1348,-1.3769,-1.5749,-1.7371,-1.7632,-1.7237,-1.6257,-1.4208,-1.2057,-0.9903,-0.8599,-0.8248,-0.8756,-1.0887,0.0,-1.6381,-1.8716,-2.0591,-2.2012,-2.2351,-2.2351,-2.213,-2.1774,-2.1077,-2.0289,0.0,0.0,0.0,0.0,0.0,0.0,0.0,0.6627,0.574,0.4684,0.3469,0.2298,0.1177,0.1396,0.2502,0.0,0.0,0.0,0.0,0.0,0.0,0.0,0.0,0.0,0.0,0.0,0.0,0.0,0.0,0.0,0.0,0.0,0.0,0.0,0.0,0.0,0.0,0.0,0.0,0.0,0.0,0.0,0.0,0.0,0.0,0.0,0.0,0.0,0.0,0.0,-0.9034,-0.9963,-1.2012,-1.3152,-1.3564,-1.2908,-1.2919,-1.3004,-1.2233,-1.2346,-1.2786,-1.3307,-1.3697,-1.3753,-1.2927,-0.9941,0.0,-0.1809,0.4408,1.0361,1.4655,1.7891,2.0533,0.0,2.292,2.2911,2.2374,2.169,2.0969,0.0,1.9739,0.0,1.8868,1.765,0.0,0.0,0.0,0.0,0.2286,-0.2971,-0.7408,-1.0884,-1.3696,-1.5929,-1.7545,-1.7657,-1.7169,-1.6058,-1.399,-1.1887,-0.98,-0.87,-0.8676,-0.9517,-1.1997,0.0,0.0,-2.0001,-2.1687,-2.2845,-2.3058,-2.2992,-2.2795,-2.2478,-2.2118,-2.1707,0.0,0.0,0.0,0.0,0.0,0.0,0.0,0.6903,0.6064,0.4284,0.3241,0.1621,-0.1174,-0.0,0.1724,0.0,0.0,0.0,0.0,0.0,0.0,0.0,0.0,0.0,0.0,0.0,0.0,0.0,0.0,0.0,0.0,0.0,0.0,0.0,0.0,0.0,0.0,0.0,0.0,0.0,0.0,0.0,0.0,0.0,0.0,0.0,0.0,0.0,0.0,0.0,0.0,-0.694,-0.8497,-0.9961,-1.101,-1.0355,0.0,0.0,-1.0498,-1.089,-1.1605,-1.29,-1.3034,-1.2642,-1.1813,0.0,-0.4566,0.0082,0.7137,1.303,1.4945,1.7747,2.0286,2.1981,0.0,2.3495,2.361,2.3255,2.2812,2.2358,0.0,0.0,2.1306,2.0267,0.0,0.0,0.0,0.0,0.1727,-0.2267,-0.6313,-1.0755,-1.4521,-1.7161,-1.8641,-1.8495,-1.7803,-1.6584,-1.4323,-1.211,-0.9939,-0.9037,-0.9268,-1.0403,-1.2989,0.0,0.0,-2.1135,-2.2614,-2.3635,-2.3833,-2.3775,-2.3554,-2.328,-2.3046,-2.2823,0.0,0.0,0.0,0.0,0.0,0.0,0.7285,0.7056,0.6292,0.4284,0.0444,-0.2179,-0.2352,-0.0892,0.1056,0.0,0.0,0.0,0.0,0.0,0.0,0.0,0.0,0.0,0.0,0.0,0.0,0.0,0.0,0.0,0.0,0.0,0.0,0.0,0.0,0.0,0.0,0.0,0.0,0.0,0.0,0.0,0.0,0.0,0.0,0.0,0.0,0.0,0.0,0.0,0.0,0.0,-0.4275,-0.4424,0.0,0.0,-0.6743,-0.7007,-0.7366,-0.8197,-0.9231,-1.0542,-1.1053,-1.0903,-0.9542,-0.6557,-0.289,0.134,0.6956,1.1836,1.3987,1.669,1.9106,0.0,2.2086,2.3056,2.3706,2.3849,2.3799,2.3642,2.3336,0.0,0.0,0.0,0.0,0.0,0.0,0.0,0.8968,0.1173,-0.4549,-0.7671,-1.3838,-1.7559,-1.8546,-1.8367,-1.7652,-1.6426,-1.4193,-1.2035,-0.9978,-0.969,-1.0299,-1.1814,-1.4787,0.0,0.0,-2.2557,-2.362,-2.4302,-2.4426,-2.4379,-2.4211,-2.4026,-2.3896,-2.3745,0.0,0.0,0.0,0.0,0.0,0.7654,0.7431,0.6992,0.5823,0.3492,-0.1609,-0.4501,-0.297,-0.1562,0.0167,0.2449,0.0,0.0,0.0,0.0,0.0,0.0,0.0,0.0,0.0,0.0,0.0,0.0,0.0,0.0,0.0,0.0,0.0,0.0,0.0,0.0,0.0,0.0,0.0,0.0,0.0,0.0,0.0,0.0,0.0,0.0,0.0,0.0,0.0,0.0,0.0,0.0,0.0,0.0,0.0,0.0,-0.2971,-0.3194,-0.3836,-0.5009,-0.6399,-0.7783,-0.8629,-0.8723,-0.7168,-0.4418,-0.1147,0.2631,0.6877,1.0731,1.3265,1.5701,1.7949,0.0,2.1099,2.241,2.3671,2.4281,2.4646,2.4806,0.0,2.4479,0.0,0.0,0.0,0.0,0.0,0.0,0.0,0.5476,-0.1767,-0.5376,-1.2564,-1.7032,-1.8453,-1.837,-1.7822,-1.678,-1.4799,-1.2979,-1.1413,-1.1599,-1.2422,-1.3907,0.0,0.0,0.0,-2.3521,-2.4293,-2.4714,-2.4774,-2.474,-2.4651,-2.4528,-2.4437,-2.4326,0.0,0.0,0.0,0.0,0.0,0.0,0.7879,0.6634,0.4671,0.1705,-0.2054,-0.4098,-0.313,-0.2119,-0.0947,0.0334,0.0,0.0,0.0,0.0,0.0,0.0,0.0,0.0,0.0,0.0,0.0,0.0,0.0,0.0,0.0,0.0,0.0,0.0,0.0,0.0,0.0,0.0,0.0,0.0,0.0,0.0,0.0,0.0,0.0,0.0,0.0,0.0,0.0,0.0,0.0,0.0,0.0,0.3225,0.3619,0.0,0.0878,0.0866,-0.0,-0.1471,-0.3158,-0.4899,-0.5895,-0.6121,-0.4971,-0.2502,0.0552,0.4072,0.7438,1.0564,1.3054,1.5115,1.6948,1.8559,2.0061,2.1709,2.3715,2.4743,2.5493,0.0,0.0,2.5968,2.5161,0.0,0.0,0.0,0.0,0.0,0.0,1.0445,0.2282,-0.4789,-1.0813,-1.5445,-1.857,-1.8789,-1.86,-1.7954,-1.6467,-1.5366,-1.4665,-1.5201,-1.5854,0.0,0.0,0.0,0.0,-2.3844,-2.4452,-2.4711,-2.477,-2.4795,-2.4799,-2.4724,-2.4619,-2.443,0.0,0.0,0.0,0.0,0.0,0.0,0.0,0.6749,0.5066,0.2263,-0.0776,-0.2569,-0.2404,-0.2233,-0.1449,0.0279,0.0,0.0,0.0,0.0,0.0,0.0,0.0,0.0,0.0,0.0,0.0,0.0,0.0,0.0,0.0,0.0,0.0,0.0,0.0,0.0,0.0,0.0,0.0,0.0,0.0,0.0,0.0,0.0,0.0,0.0,0.0,0.0,0.0,0.0,0.0,0.0,0.0,0.0,0.0,0.6437,0.5501,0.4361,0.3667,0.2408,0.0884,-0.0779,-0.1914,-0.2452,-0.1945,-0.0097,0.2253,0.4879,0.774,1.0392,1.2619,1.4415,1.6089,1.7678,0.0,0.0,0.0,0.0,0.0,2.5805,2.5693,2.5512,0.0,0.0,0.0,0.0,0.0,0.0,0.0,1.3206,0.6367,-0.035,-0.8519,-1.398,-1.646,-1.7277,-1.7327,-1.6611,-1.4817,-1.2842,-1.0841,-1.188,0.0,0.0,0.0,0.0,0.0,-2.2956,-2.3543,-2.3739,-2.3815,-2.3908,-2.3973,-2.3845,-2.366,-2.3361,0.0,0.0,0.0,0.0,0.0,0.0,0.0,0.6706,0.4794,0.2656,0.0166,-0.1618,-0.2127,-0.2179,-0.1506,0.0168,0.0,0.0,0.0,0.0,0.0,0.0,0.0,0.0,0.0,0.0,0.0,0.0,0.0,0.0,0.0,0.0,0.0,0.0,0.0,0.0,0.0,0.0,0.0,0.0,0.0,0.0,0.4125,0.0,0.0,0.0,0.0,0.0,0.0,0.0,0.0,0.0,0.0,0.0,0.0,0.0,0.9062,0.7973,0.6766,0.5661,0.4403,0.2546,0.1395,0.0743,0.0705,0.185,0.356,0.5704,0.803,1.0257,1.2278,1.4089,1.5735,1.7255,1.9202,0.0,0.0,0.0,0.0,2.5702,0.0,0.0,0.0,0.0,0.0,0.0,0.0,0.0,0.0,1.4591,0.9154,0.3637,-0.4816,-1.0698,-1.3768,-1.4923,-1.5284,-1.4896,-1.3328,-1.1618,-0.9909,-1.1067,0.0,0.0,0.0,0.0,0.0,-2.1458,-2.2033,-2.227,-2.2336,-2.2455,-2.2558,-2.2422,-2.2161,-2.172,0.0,0.0,0.0,0.0,0.0,0.0,0.0,0.0,0.4072,0.2824,0.0777,-0.1003,-0.2127,-0.1903,-0.1174,0.0112,0.0,0.0,0.0,0.0,0.0,0.0,0.0,0.0,0.0,0.0,0.0,0.0,0.0616,0.0336,0.0898,0.0,0.0,0.0,0.0,0.0,0.0,0.0,0.0,0.0,0.4802,0.4963,0.0,0.0,0.0,0.0,0.0,0.0,0.0,0.0,0.0,0.0,0.0,0.0,0.0,0.0,0.0,0.0,0.0,0.8365,0.7393,0.5114,0.4055,0.3461,0.2892,0.3437,0.0,0.6483,0.839,1.0238,1.211,1.4066,1.5833,1.7307,1.9244,0.0,0.0,2.4486,0.0,0.0,2.5219,0.0,0.0,0.0,0.0,0.0,0.0,0.0,0.0,1.4873,1.0799,0.6933,0.0072,-0.5825,-1.0504,-1.1804,-1.2524,-1.2727,-1.1891,-1.1253,-1.0841,-1.1755,0.0,0.0,0.0,0.0,0.0,-1.9356,-1.997,-2.0223,-2.0376,-2.0513,-2.0635,-2.0483,-2.0161,-1.957,0.0,0.0,0.0,0.0,0.0,0.0,0.0,0.0,0.0,0.0,0.1391,0.0279,-0.0896,-0.0841,-0.0392,0.0,0.0,0.0,0.0,0.0,0.0,0.0,0.0,0.0,0.0,0.0,0.0,0.179,0.1064,0.0785,0.0898,0.168,0.0,0.0,0.0,0.0,0.0,0.0,0.0,0.0,0.5077,0.5681,0.0,0.0,0.0,0.0,0.7137,0.7275,0.0,0.0,0.0,0.0,0.0,0.0,0.0,0.0,1.2335,1.2236,1.1487,0.0,0.9061,0.731,0.6125,0.521,0.0,0.5046,0.5958,0.7494,0.9179,1.0931,1.2677,1.4609,1.6347,1.7725,0.0,2.2073,2.375,0.0,0.0,2.5358,2.4855,0.0,0.0,0.0,0.0,0.0,0.0,0.0,0.0,1.4766,1.1365,0.8183,0.4417,-0.0354,-0.6219,-0.8024,-0.9046,-0.9269,-0.9407,-0.8255,-0.6052,-0.664,0.0,0.0,0.0,0.0,-1.5229,-1.6505,-1.7217,-1.7529,-1.7786,-1.7998,-1.8221,-1.8078,-1.7671,-1.7022,0.0,0.0,0.0,0.0,0.0,0.0,0.0,0.0,0.0,0.0,0.0,0.0,0.0,0.0,0.0,0.0,0.0,0.0,0.0,0.0,0.0,0.0,0.0,0.0,0.0,0.0,0.0,0.0,0.0,0.1008,0.0,0.0,0.0,0.0,0.0,0.0,0.0,0.0,0.0,0.0,0.5508,0.0,0.0,0.0,0.0,0.0,0.8664,0.8756,0.0,0.8919,0.9596,1.0516,0.0,0.0,0.0,0.0,1.3074,1.289,1.2501,1.1384,0.9946,0.8515,0.7304,0.6411,0.5991,0.6303,0.7138,0.8704,0.0,1.2024,1.4163,1.6079,1.7894,0.0,2.1567,0.0,0.0,0.0,2.5082,2.462,0.0,0.0,0.0,0.0,0.0,0.0,0.0,0.0,0.0,1.4511,1.1498,0.8967,0.6426,0.2702,-0.2384,-0.4123,-0.5305,-0.5897,-0.5919,-0.4975,-0.319,-0.357,-0.4525,0.0,0.0,0.0,-1.277,-1.4043,-1.4842,-1.5195,-1.5425,-1.5605,-1.574,-1.5562,-1.5116,-1.444,0.0,0.0,0.0,0.0,0.0,0.0,0.0,0.0,0.0,0.0,0.0,0.0,0.0,0.0,0.0,0.0,0.0,0.0,0.0,0.0,0.0,0.0,0.0,0.0,0.0,0.0,0.0,0.0,0.0,0.0,0.0,0.0,0.0,0.0,0.0,0.0,0.0,0.0,0.0,0.0,0.5937,0.0,0.0,0.0,0.0,0.0,0.0,0.0,0.0,0.9966,1.0605,1.1407,1.1907,0.0,0.0,0.0,0.0,0.0,1.2909,1.1814,1.0509,0.9207,0.8159,0.7427,0.7272,0.0,0.0,0.0,0.0,0.0,1.6176,1.813,0.0,0.0,0.0,0.0,2.4866,2.4751,2.4413,2.3843,0.0,0.0,0.0,0.0,0.0,0.0,0.0,0.0,0.0,1.4062,1.1394,0.9325,0.7134,0.4376,0.0961,-0.0614,-0.1895,-0.2879,-0.2534,-0.2095,-0.1566,-0.1937,-0.3139,0.0,0.0,0.0,-1.083,-1.1926,-1.2648,-1.307,-1.3165,-1.324,-1.3256,-1.3067,-1.259,-1.1853,0.0,0.0,0.0,0.0,0.0,0.0,0.0,0.0,0.0,0.0,0.0,0.0,0.0,0.0,0.0,0.0,0.0,0.0,0.0,0.0,0.0,0.0,0.0,0.0,0.0,0.0,0.0,0.0,0.0,0.0,-0.0168,0.084,0.1569,0.0,0.0,0.0,0.0,0.0,0.0,0.5336,0.6209,0.0,0.0,0.0,0.0,0.0,0.0,0.0,0.0,1.0071,1.0849,1.1933,1.2218,0.0,0.0,0.0,0.0,0.0,1.2957,1.2335,1.151,1.0012,0.9332,0.9006,0.8926,0.9745,0.0,0.0,0.0,0.0,0.0,2.0749,2.2745,0.0,0.0,2.5773,0.0,0.0,2.4518,0.0,0.0,0.0,0.0,0.0,0.0,0.0,0.0,0.0,0.0,1.3607,1.112,0.9182,0.7396,0.5471,0.3406,0.1461,0.0,-0.0937,-0.1206,-0.1163,-0.0897,-0.1505,-0.2799,0.0,0.0,-0.8035,-0.9681,-1.0202,-1.0653,-1.1048,-1.1048,-1.1032,-1.0906,-1.0764,-1.025,-0.9423,0.0,0.0,0.0,0.0,0.0,0.0,0.0,0.0,0.0,0.0,0.0,0.0,0.0,0.0,0.0,0.0,0.0,0.0,0.0,0.0,0.0,0.0,0.0,0.0,0.0,0.0,0.0,0.0,0.0,0.1546,-0.0,0.0278,0.0784,0.151,0.0,0.0,0.0,0.0,0.0,0.566,0.0,0.0,0.0,0.0,0.0,0.0,0.0,0.0,0.0,0.0,1.1013,1.2126,1.2457,0.0,0.0,0.0,0.0,0.0,1.3266,1.288,1.2482,1.1917,1.1148,1.063,1.1045,1.212,0.0,0.0,0.0,0.0,0.0,0.0,2.4948,2.5895,0.0,2.6121,0.0,0.0,0.0,0.0,0.0,0.0,0.0,0.0,0.0,0.0,0.0,0.0,0.0,0.0,1.0791,0.9041,0.7507,0.5882,0.4125,0.2711,0.1426,0.0358,-0.0224,-0.0583,-0.0719,-0.1664,-0.28,-0.4098,0.0,-0.6981,-0.8435,-0.8922,-0.9347,-0.9592,-0.9547,-0.9429,-0.92,-0.8606,-0.8029,-0.7463,0.0,0.0,0.0,0.0,0.0,0.0,0.0,0.0,0.0,0.0,0.0,0.0,0.0,0.0,0.0,0.0,0.0,0.0,0.0,0.0,0.0,0.0,0.0,0.0,0.0,0.0,0.0,0.4075,0.3399,0.1995,0.0,-0.0386,-0.028,0.0,0.0,0.0,0.0,0.0,0.0,0.6041,0.0,0.0,0.0,0.0,0.0,0.0,0.0,0.0,0.0,0.0,0.0,0.0,0.0,0.0,0.0,1.4581,1.428,1.3941,1.3563,1.3399,1.3416,1.385,1.3158,1.2559,1.3475,1.4747,0.0,0.0,0.0,0.0,0.0,2.595,0.0,2.7582,2.7009,0.0,0.0,0.0,0.0,0.0,0.0,0.0,0.0,0.0,0.0,0.0,0.0,0.0,0.0,0.0,1.0454,0.885,0.7515,0.6016,0.4343,0.3422,0.2408,0.1254,0.0404,-0.027,-0.081,-0.1871,-0.2762,-0.3556,-0.4825,-0.6111,-0.7331,-0.7883,-0.8256,-0.8455,-0.8249,-0.7972,-0.7475,-0.6607,-0.6131,-0.5756,0.0,0.0,0.0,0.0,0.0,0.0,0.0,0.0,0.0,0.0,0.0,0.0,0.0,0.0,0.0,0.0,0.0,0.0,0.0,0.0,0.0,0.0,0.0,0.0,0.0,0.5018,0.502,0.49,0.3935,0.1997,-0.0799,-0.1047,-0.1285,-0.151,0.0,0.0,0.0,0.0,0.0,0.6465,0.7593,0.0,0.0,0.0,0.0,0.0,0.0,0.0,0.0,0.0,0.0,0.0,0.0,0.0,1.4581,1.4477,1.4197,1.3962,1.3668,1.3909,1.4402,1.5166,1.5028,1.5038,1.6218,1.7797,0.0,2.1748,0.0,0.0,0.0,2.7811,2.8395,2.8665,2.7309,0.0,0.0,0.0,0.0,0.0,0.0,0.0,0.0,0.0,0.0,0.0,0.0,0.0,0.0,0.0,0.0,0.8553,0.7404,0.6016,0.4391,0.3595,0.2719,0.1748,0.0539,-0.036,-0.1081,-0.1781,-0.2525,-0.331,-0.4316,-0.5483,-0.6696,-0.7025,-0.7295,-0.7396,-0.7122,-0.6416,-0.5441,-0.4999,-0.4556,-0.4116,0.0,0.0,0.0,0.0,0.0,0.0,0.0,0.0,0.0,0.0,0.0,0.0,0.0,0.0,0.0,0.0,0.0,0.0,0.0,0.0,0.0,0.0,0.0,0.542,0.5558,0.61,0.6157,0.5793,0.3202,0.0978,-0.0934,-0.1892,0.0,0.0,0.0,0.0,0.0,0.0,0.0,0.6617,0.7847,0.9214,0.0,0.0,0.0,0.0,0.0,0.0,0.0,0.0,1.1529,1.2256,0.0,1.2936,1.388,1.3755,1.3619,1.3637,1.4032,1.4687,1.5564,1.6956,1.8014,0.0,0.0,2.0218,2.1834,2.3729,2.4893,0.0,0.0,0.0,2.8046,2.7633,0.0,0.0,0.0,0.0,0.0,0.0,0.0,0.0,0.0,0.0,0.0,0.0,0.0,0.0,0.0,0.0,0.0,0.8399,0.7321,0.5973,0.4343,0.351,0.2544,0.1524,0.0672,-0.0134,-0.0853,-0.1544,-0.2283,-0.3066,-0.3965,-0.4854,-0.5668,-0.6055,-0.6213,-0.6213,-0.5609,-0.5058,-0.4395,-0.3788,-0.3458,-0.3236,0.0,0.0,0.0,0.0,0.0,0.0,0.0,0.0,0.0,0.0,0.0,0.0,0.0,0.0,0.0,0.0,0.0,0.0,0.0,0.0,0.0,0.0,0.0,0.6274,0.6425,0.734,0.7604,0.7199,0.3533,0.1042,-0.044,0.0,0.0,0.0,0.0,0.0,0.0,0.0,0.0,0.0,0.8053,0.9511,0.0,0.0,0.0,0.0,0.0,0.0,0.0,0.0,1.1828,1.256,1.2278,1.2839,1.3656,1.3531,1.3622,1.3846,1.462,1.56,1.6846,1.8585,0.0,0.0,2.1671,2.2465,2.3658,2.525,2.6116,0.0,0.0,0.0,0.0,0.0,0.0,0.0,0.0,0.0,0.0,0.0,0.0,0.0,0.0,0.0,0.0,0.0,0.0,0.0,0.0,0.0,0.0,0.0,0.7036,0.576,0.4299,0.3379,0.2413,0.1507,0.0786,0.0046,-0.064,-0.1334,-0.2078,-0.2766,-0.3568,-0.4271,-0.4846,-0.5234,-0.5289,-0.5014,-0.4349,-0.3907,-0.3627,-0.2961,-0.2685,-0.2517,0.0,0.0,0.0,0.0,0.0,0.0,0.0,0.0,0.0,0.0,0.0,0.0,0.0,0.0,0.0,0.0,0.0,0.0,0.0,0.0,0.0,0.0,0.0,0.6919,0.7576,0.8685,0.9254,0.917,0.5311,0.2481,0.0637,0.0,0.0,0.0,0.0,0.0,0.0,0.0,0.0,0.0,0.8212,0.971,1.1316,0.0,0.0,0.0,0.0,0.0,0.0,0.0,1.2352,1.3184,1.3038,0.0,0.0,1.401,1.4233,1.4663,1.5351,1.6664,1.8238,1.9909,0.0,0.0,2.4254,2.4613,2.5065,2.6327,0.0,2.8086,2.8081,0.0,0.0,0.0,0.0,0.0,0.0,0.0,0.0,0.0,0.0,0.0,0.0,0.0,0.0,0.0,0.0,0.0,0.0,0.0,0.0,0.0,0.6501,0.5427,0.4299,0.3244,0.2375,0.167,0.0892,0.0148,-0.0524,-0.124,-0.1906,-0.2446,-0.3237,-0.3836,-0.4233,-0.4677,-0.4515,-0.391,-0.3299,-0.3023,-0.2916,-0.2521,-0.213,-0.1797,0.0,0.0,0.0,0.0,0.0,0.0,0.0,0.0,0.0,0.0,0.0,0.0,0.0,0.0,0.0,0.0,0.0,0.0,0.0,0.0,0.0,0.0,0.0,0.0,0.0,0.0,0.7994,0.858,0.5226,0.2886,0.0,0.0,0.0,-0.4428,0.0,0.0,0.0,0.0,0.0,0.0,0.0,0.971,1.1316,0.0,0.0,0.0,0.0,0.0,0.0,0.0,0.0,0.0,1.2521,0.0,1.3373,1.3475,1.4395,1.568,1.7119,1.8686,2.0289,2.209,0.0,0.0,0.0,2.5066,0.0,0.0,0.0,2.6335,0.0,0.0,0.0,0.0,0.0,0.0,0.0,0.0,0.0,0.0,0.0,0.0,0.0,0.0,0.0,0.0,0.0,0.0,0.0,0.0,0.0,0.0,0.6287,0.5164,0.3982,0.3297,0.2529,0.1638,0.1185,0.0566,-0.0298,-0.0979,-0.1687,-0.245,-0.3162,-0.3652,-0.3904,-0.3738,-0.3408,-0.3023,-0.2573,-0.2298,-0.2077,-0.157,-0.1289,-0.1122,0.0,0.0,0.0,0.0,0.0,0.0,0.0,0.0,0.0,0.0,0.0,0.0,0.0,0.0,0.0,0.0,0.0,0.0,0.0,0.0,0.0,0.0,0.0,0.0,0.0,0.6999,0.6533,0.0,0.0,0.0,0.0,0.0,0.0,-0.4609,0.0,-0.1172,0.0,0.0,0.0,0.0,0.0,0.9524,1.106,0.0,0.0,0.0,0.0,0.0,0.0,0.0,0.0,0.0,1.2841,0.0,1.357,1.42,1.5433,1.699,1.903,2.0494,0.0,2.362,2.4267,2.4633,2.5195,0.0,0.0,0.0,0.0,2.5601,0.0,0.0,0.0,0.0,0.0,0.0,0.0,0.0,0.0,0.0,0.0,0.0,0.0,0.0,0.0,0.0,0.0,0.0,0.0,0.0,0.0,0.0,0.5918,0.4815,0.3771,0.3129,0.2423,0.1601,0.123,0.0591,-0.0264,-0.097,-0.1631,-0.2282,-0.2994,-0.3463,-0.3685,-0.3244,-0.2856,-0.2521,-0.213,-0.1906,-0.1741,-0.1122,-0.0729,-0.0505,0.0,0.0,-0.1406,-0.1059,0.0,0.0,0.0,0.0,0.0,0.0,0.0,0.3297,0.0,0.0,0.0,0.3638,0.0,0.0,0.0,0.0,0.0,0.0,0.0,0.0,0.0,0.0,0.0,0.0,0.0,0.0,0.0,0.0,-0.4348,-0.3684,0.0,-0.1701,0.0,0.0,0.0,0.0,0.7505,0.9219,1.0702,1.1856,0.0,0.0,0.0,0.0,0.0,0.0,0.0,0.0,1.3621,1.3763,1.4273,1.5566,1.6983,1.8573,2.0846,2.2213,2.3352,2.4724,2.503,0.0,2.543,2.5505,2.5498,2.543,0.0,0.0,0.0,0.0,0.0,0.0,0.0,0.0,0.0,0.0,0.0,0.0,0.0,0.0,0.0,0.0,0.0,0.0,0.0,0.0,0.0,0.0,0.0,0.675,0.5545,0.4469,0.3683,0.2831,0.214,0.0,0.1106,0.0449,-0.0336,-0.1178,-0.1738,-0.2127,-0.2852,-0.3297,-0.3516,-0.3137,-0.2691,-0.2298,-0.1852,-0.1741,-0.1629,-0.1066,-0.0449,0.0,0.0,0.0,-0.2111,-0.1677,0.0,0.0,0.0,0.0,0.1457,0.1958,0.2627,0.3244,0.3583,0.3688,0.0,0.3913,0.3799,0.0,0.0,0.0,0.0,0.0,0.0,0.0,0.0,0.0,0.0,0.0,0.0,0.0,0.0,0.0,0.0,-0.4056,0.0,-0.265,0.0,0.0,0.0,0.5109,0.7062,0.8827,1.0389,1.1345,1.212,0.0,0.0,0.0,0.0,0.0,0.0,0.0,1.3314,1.3705,1.4326,1.5256,1.747,2.003,2.1957,2.3969,0.0,2.6263,2.5916,2.5465,2.5562,2.5584,2.5566,2.5486,2.5535,0.0,0.0,0.0,0.0,0.0,0.0,0.0,0.0,0.0,0.0,0.0,0.0,0.0,0.0,0.0,0.0,0.0,0.0,0.0,0.0,0.0,0.0,0.6272,0.5288,0.4285,0.3412,0.2884,0.2106,0.0,0.095,0.0449,-0.0393,-0.1347,-0.213,-0.2907,-0.3302,-0.3299,-0.3016,-0.2687,-0.2186,-0.1628,-0.1234,-0.1066,-0.101,-0.0393,-0.0112,0.0,0.0,0.0,0.0,0.0,0.0,0.0,0.0,0.0,0.1065,0.1734,0.246,0.313,0.3635,0.3799,0.0,0.0,0.402,0.3896,0.0,0.0,0.0,0.0,0.0,0.0,0.0,0.0,0.0,0.0,0.0,0.0,0.0,0.0,0.0,-0.39,0.0,-0.3036,0.0,0.0,0.0,0.4756,0.6889,0.858,0.9929,1.1064,1.1777,1.2215,1.2393,0.0,0.0,0.0,0.0,0.0,0.0,0.0,1.4534,1.5849,1.8031,2.0529,2.3029,2.4871,0.0,2.6569,0.0,2.5554,2.5546,2.5547,2.5546,2.5519,2.5547,0.0,0.0,0.0,0.0,0.0,0.0,0.0,0.0,0.0,0.0,0.0,0.0,0.0,0.0,0.0,0.0,0.0,0.0,0.0,0.0,0.7664,0.6884,0.6191,0.5035,0.4123,0.3377,0.2779,0.1908,0.0898,0.0505,-0.0112,-0.0842,-0.1626,-0.2408,-0.313,-0.3244,-0.3077,-0.2685,-0.2298,-0.1738,-0.1178,-0.0673,-0.0449,-0.0449,-0.0112,0.0,0.0,0.0,0.0,0.0,0.0,0.0,0.0,0.0,0.0,0.0,0.1623,0.2291,0.2952,0.36,0.3886,0.4124,0.0,0.0,0.0,0.3558,0.0,0.0,0.0,0.0,0.0,0.0,0.0,0.0,0.0,0.0,0.0,0.0,0.0,0.0,-0.3463,0.0,0.0,0.0,0.0,0.215,0.439,0.6713,0.832,0.9549,1.0827,1.1358,1.1519,1.1669,1.1877,1.2076,1.2431,0.0,0.0,0.0,0.0,1.4706,1.6459,1.8356,2.0528,2.3503,2.5035,2.5899,2.6484,2.6033,0.0,2.5442,2.5457,2.5437,2.5429,0.0,0.0,0.0,0.0,0.0,0.0,0.0,0.0,0.0,0.0,0.0,0.0,0.0,0.0,0.0,0.0,0.0,0.0,0.0,0.0,0.8353,0.7394,0.6608,0.6095,0.4838,0.3904,0.3357,0.2581,0.1741,0.0898,0.0,-0.0673,-0.1234,-0.1793,-0.2406,-0.2965,-0.2852,-0.2685,-0.241,-0.1964,-0.1459,-0.0842,-0.0224,0.0,-0.0,-0.0112,-0.0168,-0.0168,0.0,0.0,0.0,0.0,0.0,0.0,0.0,0.0,0.0,0.0,0.2125,0.2817,0.3164,0.367,0.4043,0.4245,0.4009,0.3651,0.0,0.0,0.0,0.0,0.0,0.0,0.0,0.0,0.0,0.0,0.0,0.0,0.0,0.0,0.0,-0.3013,0.0,0.0,0.0,0.0,0.1803,0.3955,0.6086,0.7913,0.9471,1.0197,1.0516,1.0626,1.0913,1.0964,1.0956,1.1719,1.2175,0.0,0.0,0.0,0.0,1.5932,1.8004,2.0318,2.22,0.0,2.5886,0.0,2.6209,2.5232,0.0,0.0,2.5219,0.0,0.0,0.0,0.0,0.0,0.0,0.0,0.0,0.0,0.0,0.0,0.0,0.0,0.0,0.0,0.0,0.0,0.0,0.0,0.0,0.0,0.8029,0.7405,0.6617,0.5727,0.4732,0.3846,0.3132,0.2525,0.1741,0.0898,0.0,-0.0617,-0.0954,-0.1234,-0.1793,-0.2577,-0.2577,-0.2408,-0.2128,-0.1908,-0.1459,-0.0842,-0.0224,0.0,-0.0056,-0.0561,-0.0785,-0.0729,0.0,0.0,0.0,0.0,0.0,0.0,0.0,0.0,0.0,0.0,0.0,0.2149,0.2821,0.3232,0.3634,0.4036,0.37,0.0,0.0,0.0,0.0,0.0,0.0,0.0,0.0,0.0,0.0,0.0,0.0,0.0,0.0,0.034,-0.1132,0.0,0.0,0.0,0.0,0.0,0.0,0.408,0.6007,0.7684,0.9047,0.0,0.9941,0.9865,1.0079,0.0,1.0387,1.1267,1.1877,1.2421,1.3025,0.0,0.0,0.0,1.753,1.9649,2.2684,2.4566,2.5952,0.0,2.6465,2.5479,2.5487,0.0,2.4791,0.0,0.0,0.0,0.0,0.0,0.0,0.0,0.0,0.0,0.0,0.0,0.0,0.0,0.0,0.0,0.0,0.0,0.0,0.0,0.0,0.8514,0.7706,0.6912,0.6109,0.5344,0.446,0.3627,0.2905,0.2411,0.1572,0.0393,0.0,-0.0449,-0.0898,-0.101,-0.1401,-0.2127,-0.224,-0.2073,-0.1738,-0.1797,-0.1459,-0.0842,-0.0224,0.0,-0.0056,-0.0673,-0.1122,-0.1347,0.0,0.0,0.0,0.0,0.0,0.0,0.0,0.0,0.0,0.0,0.0,0.1544,0.2342,0.0,0.0,0.0,0.3399,0.0,0.0,0.0,0.0,0.0,0.0,0.0,0.0,0.0,0.0,0.0,0.0,0.0,0.2696,0.1452,-0.0,0.0,-0.243,0.0,0.0,0.0,0.0,0.3843,0.5752,0.728,0.847,0.9261,0.9354,0.9099,0.0,0.0,0.0,0.0,0.0,0.0,0.0,0.0,0.0,0.0,0.0,1.9295,0.0,0.0,2.5049,2.639,2.5897,2.5134,0.0,0.0,2.4292,0.0,0.0,0.0,0.0,0.0,0.0,0.0,0.0,0.0,0.0,0.0,0.0,0.0,0.0,0.0,0.0,0.0,0.0,0.0,0.0,0.7931,0.7278,0.6426,0.5673,0.5069,0.4184,0.3405,0.2681,0.213,0.1234,0.0,0.0,-0.0224,-0.0673,-0.0842,-0.1121,-0.1512,-0.1736,-0.1681,-0.1347,-0.1459,-0.1178,-0.0617,-0.0168,0.0,-0.0056,-0.0561,-0.1178,-0.1628,0.0,0.0,0.0,0.0,0.0,0.0,0.0,0.0,0.0,0.0,0.0,0.1269,0.1599,0.2413,0.3022,0.3298,0.3121,0.0,0.0,0.0,0.0,0.0,0.0,0.0,0.0,0.0,0.0,0.0,0.0,0.0,0.3307,0.2094,0.0895,-0.0358,-0.1867,-0.2477,-0.2265,0.0,0.0,0.2686,0.488,0.6533,0.7812,0.856,0.8567,0.8209,0.0,0.0,0.0,0.0,0.0,0.0,0.0,1.3684,1.4674,0.0,0.0,0.0,0.0,2.2024,0.0,2.3901,2.3916,0.0,0.0,0.0,0.0,0.0,0.0,0.0,0.0,0.0,0.0,0.0,0.0,0.0,0.0,0.0,0.0,0.0,0.0,0.0,0.0,0.0,0.0,0.0,0.0,0.7283,0.6696,0.61,0.5555,0.4956,0.4067,0.3292,0.2681,0.1568,0.0617,0.0,0.0,-0.0,-0.0056,-0.0617,-0.0785,-0.0673,-0.1065,-0.1122,-0.0898,-0.0729,-0.0393,-0.0056,-0.0,0.0,-0.0056,-0.0336,-0.0785,-0.1291,0.0,0.0,0.0,0.0,0.0,0.0,0.0,0.0,0.0,0.0,0.0,0.0,0.0,0.1386,0.2029,0.2483,0.2107,0.0,0.0,0.0,0.0,0.0,0.0,0.0,0.0,0.0,0.0,0.0,0.0,0.464,0.4036,0.2776,0.1558,0.0447,-0.1388,-0.2236,-0.2325,-0.1445,0.0,0.177,0.3805,0.5295,0.0,0.7219,0.7331,0.7069,0.0,0.0,0.0,0.0,0.0,0.0,1.2463,1.3484,1.4663,1.6145,1.7491,1.8874,0.0,0.0,0.0,2.3466,2.3505,2.3301,2.3597,2.3305,0.0,0.0,0.0,0.0,0.0,0.0,0.0,0.0,0.0,0.0,0.0,0.0,0.0,0.0,0.0,0.0,0.0,0.0,0.0,0.0,0.0,0.0,0.61,0.5449,0.4846,0.4353,0.3572,0.2796,0.213,0.129,0.0617,0.0,0.0,0.0,-0.0,-0.0224,-0.0393,-0.0505,-0.0842,-0.0954,-0.0898,-0.0842,-0.0729,-0.0561,-0.0168,0.0,-0.0056,-0.028,-0.0673,-0.1066,0.0,0.0,0.0,0.1169,0.0,0.358,0.3583,0.1618,0.0,0.0,0.0,0.0,0.0,0.0,0.0852,0.0,0.0,0.0,0.0,0.0,0.0,0.0,0.0,0.0,0.0,0.0,0.0,0.0,0.0,0.0,0.0,0.3463,0.231,0.1205,-0.063,-0.181,0.0,0.0,0.0,0.0721,0.0,0.0,0.4816,0.0,0.5914,0.0,0.0,0.0,0.0,0.0,0.0,0.0,0.0,1.3253,1.4926,1.6386,1.7284,1.8069,1.929,0.0,0.0,0.0,0.0,2.2325,2.2765,0.0,0.0,0.0,0.0,0.0,0.0,0.0,0.0,0.0,0.0,0.0,0.0,0.0,0.0,0.0,0.0,0.0,0.0,0.0,0.0,0.0,0.0,0.0,0.5614,0.4959,0.4298,0.3574,0.2961,0.2294,0.1515,0.1122,0.0617,0.0,0.0,0.0,0.0,0.0,-0.0168,-0.0393,-0.0729,-0.0898,-0.0898,-0.0898,-0.0898,-0.0842,-0.0336,-0.0056,-0.0,-0.0224,-0.0561,-0.0898,-0.2689,-0.1734,-0.0112,0.2287,0.4144,0.5345,0.5302,0.2512,-0.0612,0.0,0.0,0.0,0.0,0.0,0.0,0.0,0.0,0.0,0.0,0.0,0.0,0.0,0.0,0.0,0.0,0.0,0.0,0.0,0.0,0.0,0.0,0.0,0.3105,0.1962,0.0339,-0.1055,-0.2276,0.0,-0.1563,-0.0389,0.0,0.2218,0.3106,0.0,0.0,0.0,0.5425,0.6018,0.0,0.7481,0.0,0.0,0.0,1.3002,1.532,1.6194,1.682,1.7282,0.0,0.0,0.0,0.0,0.0,0.0,2.1209,0.0,0.0,0.0,0.0,0.0,0.0,0.0,0.0,0.0,0.0,0.0,0.0,0.0,0.0,0.0,0.0,0.0,0.0,0.0,0.0,0.0,0.0,0.5454,0.5124,0.4684,0.3904,0.2736,0.2293,0.1736,0.0898,0.0898,0.0561,0.0,0.0,0.0,0.0,0.0,-0.0168,-0.0393,-0.0729,-0.0898,-0.0898,-0.0898,-0.0898,-0.0842,-0.0561,-0.0224,0.0,0.0,-0.0393,-0.0898,-0.2738,-0.1729,-0.0,0.2843,0.4768,0.5925,0.593,0.228,-0.1333,0.0,0.0,0.0,0.0,0.0,0.0,0.0,0.0,0.0,0.0,0.0,0.0,0.0,0.0,0.0,0.0,0.0,0.0,0.0,0.0,0.0,0.0,0.0,0.0,0.0,0.1211,-0.0151,-0.1565,-0.2175,0.0,0.0,-0.0556,0.0222,0.0,0.0,0.0,0.0,0.0,0.3254,0.3687,0.0,0.5346,0.6865,0.0,0.0,1.447,1.5522,1.6207,1.6693,1.7047,0.0,0.0,0.0,0.0,0.0,0.0,0.0,0.0,0.0,0.0,0.0,0.0,0.0,0.0,0.0,0.0,0.0,0.0,0.0,0.0,0.0,0.0,0.0,0.0,0.0,0.0,0.0,0.5344,0.4853,0.4684,0.3849,0.3016,0.2293,0.2018,0.157,0.0898,0.0449,0.0168,0.0,0.0,0.0,0.0,0.0,-0.0056,-0.0112,-0.0673,-0.0785,-0.0561,-0.0785,-0.0898,-0.0898,-0.0785,-0.0449,0.0,0.0,-0.0112,-0.028,-0.313,-0.1113,0.1389,0.3855,0.4761,0.4754,0.3616,0.0497,-0.2548,0.0,0.0,0.0,0.0,0.0,0.0,0.0,0.0,0.0,0.0,0.0,0.0,-0.2043,-0.0801,0.0577,0.0,0.0,0.0,0.0,0.0,0.0,0.0,0.0,0.0,0.0,0.2142,0.0718,-0.0825,-0.1804,0.0,0.0,-0.2004,0.0,0.0,-0.0939,-0.0662,0.0,0.0,0.0,0.0271,0.0647,0.2088,0.0,0.0,1.0727,1.2969,1.438,1.5506,0.0,0.0,0.0,0.0,0.0,0.0,0.0,0.0,1.9645,0.0,0.0,0.0,0.0,0.0,0.0,0.0,0.0,0.0,0.0,0.0,0.0,0.0,0.0,0.0,0.0,0.0,0.0,0.0,0.55,0.4849,0.4298,0.3849,0.3072,0.2406,0.1962,0.1626,0.1234,0.0898,0.028,0.0,0.0,0.0,0.0,0.0,0.0,0.0,-0.0,-0.0393,-0.0505,-0.0393,-0.0617,-0.0785,-0.0898,-0.0898,-0.0505,0.0,0.0,0.0,-0.0,0.0,-0.0166,0.3229,0.4938,0.4187,0.2378,-0.0439,-0.2254,-0.4252,0.0,0.0,0.0,0.0,0.0,0.0,0.0,0.0,0.0,0.0,0.0,-0.4936,-0.4153,-0.2702,-0.0986,0.0928,0.0,0.0,0.0,0.0,0.0,0.0,0.0,0.0,0.0,0.301,0.1479,-0.0106,-0.1323,-0.2348,-0.3183,-0.3231,-0.339,0.0,0.0,-0.3507,-0.3436,-0.3458,-0.3534,-0.3612,-0.351,-0.145,0.0,0.0,0.7685,1.0776,1.2742,1.4555,0.0,1.6056,1.6315,0.0,0.0,0.0,0.0,1.7866,1.8709,1.9123,0.0,0.0,0.0,0.0,0.0,0.0,0.0,0.0,0.0,0.0,0.0,0.0,0.0,0.0,0.0,0.0,0.6792,0.5804,0.4982,0.4418,0.3744,0.2905,0.2406,0.2018,0.1797,0.1234,0.0842,0.0785,0.028,0.0,0.0,0.0,0.0,0.0,0.0,0.0,0.0,0.0,-0.0112,-0.0336,-0.0336,-0.0505,-0.0785,-0.0785,-0.0449,0.0,0.0,0.0,0.0,-0.3222,0.011,0.3159,0.4705,0.3174,0.0441,-0.3348,-0.5043,-0.6742,0.0,0.0,0.0,0.0,0.0,0.0,0.0,0.0,0.0,0.0,0.0,-0.7354,-0.6101,-0.4645,-0.2805,-0.0533,0.1428,0.0,0.0,0.0,0.0,0.0,0.0,0.0,0.0,0.3428,0.1902,0.0266,-0.1378,0.0,-0.3843,-0.4058,0.0,-0.5458,-0.6012,-0.6506,-0.699,-0.756,-0.8117,-0.8595,-0.8568,-0.6883,-0.4174,0.0,0.0,0.7018,1.0046,1.2443,1.4163,1.4819,1.5343,1.567,1.5804,0.0,0.0,1.6633,1.7377,1.7926,0.0,0.0,0.0,0.0,0.0,0.0,0.0,0.0,0.0,0.0,0.0,0.0,0.0,0.0,0.0,0.0,0.6726,0.5726,0.5159,0.4023,0.3077,0.2519,0.213,0.1853,0.1797,0.1234,0.0673,0.0168,0.0056,0.0,0.0,0.0,0.0,0.0,0.0,0.0,0.0,0.0,-0.0056,-0.0056,-0.0056,-0.0112,-0.0168,-0.0168,-0.0112,0.0,0.0,0.0,0.0,-0.388,-0.0935,0.1818,0.3627,0.2558,0.0275,-0.3133,-0.5637,-0.8049,0.0,0.0,0.0,0.0,0.0,0.0,0.0,0.0,0.0,0.0,0.0,-0.9707,-0.8521,-0.6927,-0.4879,-0.2386,-0.0245,0.0,0.0,0.0,0.0,0.0,0.0,0.0,0.0,0.0,0.2387,0.0599,-0.1108,-0.2728,-0.4168,-0.4988,0.0,-0.7222,-0.8391,-0.9365,-1.0202,-1.1325,-1.2513,-1.3628,-1.3586,-1.2048,0.0,0.0,-0.1918,0.2503,0.0,0.9769,1.2804,1.3129,1.3793,1.4419,1.4553,0.0,0.0,0.0,1.579,1.6116,1.6083,0.0,0.0,0.0,0.0,0.0,0.0,0.0,0.0,0.0,0.0,0.0,0.0,0.0,0.0,0.0,0.6493,0.5405,0.4222,0.3415,0.2679,0.1964,0.157,0.1347,0.1347,0.1066,0.0617,0.0,0.0,0.0,0.0,0.0,0.0,0.0,0.0,-0.0168,-0.0449,-0.0449,-0.0336,-0.0168,-0.0056,0.0,0.0,0.0,0.0,0.0,0.0,0.0,0.0,-0.4937,-0.2309,0.0275,0.2228,0.1887,0.0327,-0.2542,-0.6018,0.0,0.0,0.0,0.0,0.0,0.0,0.0,0.0,0.0,0.0,0.0,0.0,0.0,-1.0998,-0.9299,-0.7116,-0.4483,-0.2171,-0.0053,0.0,0.0,0.0,0.0,0.0,0.0,0.0,0.0,0.0,0.0,0.0,0.0,-0.4597,0.0,-0.7494,-0.8808,-1.0505,-1.1886,-1.3176,-1.4943,-1.67,-1.8209,-1.8197,-1.6825,-1.4563,-1.1366,-0.698,0.0,0.0,0.0,0.0,0.0,0.0,0.0,0.0,0.0,1.3422,0.0,0.0,0.0,1.4272,0.0,0.0,0.0,0.0,0.0,0.0,0.0,0.0,0.0,0.0,0.0,0.0,0.0,0.0,0.0,0.6115,0.4756,0.3146,0.2834,0.2387,0.1418,0.107,0.0842,0.0729,0.0729,0.0505,0.0,0.0,0.0,0.0,0.0,-0.0056,-0.0168,-0.0168,-0.0449,-0.0898,-0.0954,-0.0842,-0.0561,-0.028,-0.0112,0.0,0.0,0.0,0.0,0.0,0.0,0.0,-0.5914,-0.3078,-0.055,0.0892,0.061,-0.0924,-0.4189,-0.7983,0.0,0.0,0.0,0.0,0.0,0.0,0.0,0.0,0.0,0.0,-1.505,0.0,0.0,-1.3114,-1.1516,-0.9392,-0.6772,-0.4361,-0.2187,0.0,0.0,0.0,0.0,0.0,0.5164,0.5109,0.4563,0.0,0.0,0.0,-0.3657,0.0,-0.7874,-0.9233,0.0,-1.2166,-1.3998,-1.5952,-1.8797,-2.055,-2.1583,0.0,-2.0721,-1.8872,0.0,-1.1726,-0.7072,-0.267,0.0,0.0,0.0,0.0,0.0,0.0,1.0318,0.0,0.0,0.0,1.2366,1.2589,0.0,0.0,0.0,0.0,0.0,0.0,0.0,0.0,0.0,0.0,0.0,0.0,0.0,0.0,0.0,0.0,0.3854,0.2759,0.2448,0.188,0.0997,0.0912,0.0673,0.0112,0.0112,0.0056,0.0,0.0,0.0,0.0,0.0,-0.028,-0.0785,-0.0785,-0.0842,-0.0898,-0.1178,-0.1234,-0.1178,-0.0898,-0.0505,0.0,0.0,0.0,0.0,0.0,0.0,0.0,-0.6587,-0.3784,-0.1538,-0.0278,-0.0665,-0.2224,-0.5486,-1.0944,-1.5538,0.0,0.0,0.0,0.0,0.0,0.0,0.0,0.0,-1.6448,0.0,0.0,0.0,-1.5549,-1.4059,-1.209,-0.9668,-0.723,-0.4956,-0.2786,-0.0765,0.0,0.0,0.0,0.4061,0.4343,0.379,0.0,0.0389,0.0,-0.4293,0.0,0.0,0.0,0.0,-1.4317,-1.6596,-1.9311,-2.1256,-2.254,-2.335,0.0,-2.2874,0.0,0.0,0.0,0.0,0.0,0.0,0.0,0.0,0.0,0.0,0.0,0.0,0.0,0.8882,0.0,1.0066,0.0,0.0,0.0,0.0,0.0,0.0,0.0,0.0,0.0,0.0,0.0,0.0,0.0,0.0,0.0,0.0,0.0,0.0,0.0,0.0,0.1836,0.0945,0.0582,0.0286,0.0,0.0,0.0,0.0,0.0,0.0,-0.0,-0.0336,-0.0842,-0.1403,-0.1403,-0.1458,-0.1624,-0.1849,-0.1849,-0.1681,-0.14,-0.1008,-0.0673,-0.0561,-0.028,0.0,0.0,0.0,0.0,-0.8494,-0.5473,-0.3118,-0.1988,-0.242,-0.43,-0.8301,-1.4087,-1.8418,0.0,0.0,0.0,-1.8281,-1.7804,0.0,0.0,-1.7855,-1.8252,0.0,0.0,-1.8567,-1.7838,-1.6567,-1.4806,-1.2639,-1.0287,-0.7987,-0.5672,-0.3379,0.0,0.0,0.0,0.0,0.3461,0.0,0.2063,0.0111,0.0,-0.5139,-0.7466,-1.0582,-1.3671,-1.6481,-1.7151,-1.911,-2.1617,-2.2914,-2.3657,-2.4102,-2.4495,-2.41,0.0,-2.1126,0.0,0.0,0.0,0.0,0.0,-0.3261,0.0,0.0,0.0,0.0,0.0,0.0,0.0,0.0,0.0,0.0,0.0,0.0,0.0,0.0,0.0,0.0,0.0,0.0,0.0,0.0,0.0,0.0,0.0,0.0,0.0,0.0,0.0,0.0,0.0,0.0849,0.0297,0.0,0.0,0.0,0.0,0.0,0.0,-0.0056,-0.028,-0.0842,-0.1347,-0.1741,-0.1852,-0.2018,-0.224,-0.2406,-0.2406,-0.2237,-0.1956,-0.1679,-0.1401,-0.1233,-0.0897,-0.0449,-0.0224,-0.0056,0.0,-1.2511,-0.865,0.0,0.0,-0.4962,-0.7445,-1.3619,-1.7219,-1.9657,0.0,0.0,0.0,0.0,0.0,0.0,0.0,0.0,-2.0222,-2.0495,0.0,-2.0607,-1.994,-1.8853,-1.7435,0.0,-1.3438,-1.1247,-0.8947,-0.6487,-0.4072,0.0,0.0,0.0,0.0,0.3302,0.2232,-0.0222,-0.3747,-0.6473,-0.8741,-1.2035,-1.6219,-2.0564,0.0,-2.1404,-2.2088,-2.3693,0.0,0.0,-2.453,-2.4418,0.0,0.0,0.0,0.0,0.0,0.0,0.0,0.0,0.0,0.0,-0.3562,0.0,0.0,0.0,0.0,0.4085,0.0,0.0,0.0,0.0,0.0,0.0,0.0,0.0,0.0,0.0,0.0,0.0,0.0,0.0,0.0,0.0,0.0,0.0,0.0,0.0,0.0,0.0515,0.0183,0.0,0.0,0.0,0.0,0.0,0.0,-0.028,-0.0898,-0.1459,-0.1685,-0.1515,-0.1905,-0.224,-0.2521,-0.2627,-0.2736,-0.285,-0.2736,-0.2404,-0.2071,-0.1846,-0.1737,-0.1628,-0.0729,-0.0224,0.0,0.0,0.0,0.0,0.0,0.0,-1.0326,-1.5306,-1.8212,0.0,0.0,0.0,0.0,0.0,-2.1613,-2.1535,0.0,0.0,-2.1883,-2.2099,-2.271,0.0,0.0,0.0,-2.107,0.0,-1.7115,-1.4871,-1.2182,-0.9872,-0.7599,0.0,0.0,0.0,0.0,0.0,0.0724,0.0,0.0,0.0,0.0,0.0,-1.9569,-2.2187,0.0,0.0,-2.281,-2.3667,-2.3884,0.0,-2.3939,-2.4004,-2.3797,-2.2716,-2.1172,-1.939,-1.7484,-1.56,0.0,0.0,0.0,-0.9532,-0.7904,0.0,0.0,0.0,0.0,0.0,0.0,0.0,0.0,0.0,0.0,0.0,0.0,0.0,0.0,0.0,0.0,0.0,0.0,0.0,0.0,0.0,0.0,0.0,0.0,0.0,0.0,0.0,0.0326,0.0,0.0,0.0,0.0,0.0,0.0,-0.028,-0.0898,-0.1515,-0.1852,-0.1905,-0.2298,-0.2689,-0.3135,-0.3352,-0.3461,-0.3461,-0.3347,-0.3183,-0.2965,-0.274,-0.2517,-0.213,-0.1121,-0.0673,-0.0561,-1.7921,0.0,0.0,0.0,0.0,0.0,-1.7142,0.0,0.0,0.0,-2.2895,0.0,-2.3204,0.0,-2.3199,0.0,-2.3252,-2.3324,-2.3452,-2.4233,0.0,-2.4424,-2.4269,0.0,0.0,0.0,-1.7796,-1.5558,-1.3411,-1.1333,0.0,0.0,0.0,0.0,0.0,-0.1107,-0.1828,-0.4348,-0.7508,0.0,0.0,-2.1814,0.0,0.0,-2.3517,-2.3042,0.0,-2.3463,-2.2928,-2.3056,-2.3321,-2.3432,-2.264,-2.181,-2.0857,-1.9642,-1.8352,-1.7153,-1.6153,-1.4931,0.0,-1.1931,-0.9921,0.0,-0.6224,0.0,0.0,0.0,0.0,0.0,0.0,0.0,0.0,0.0,0.0,0.0,0.0,0.0,0.0,0.0,0.0,0.0,0.0,0.0,0.2854,0.2513,0.0,0.0,0.0,0.0,0.0261,0.0,0.0,0.0,0.0,0.0,-0.028,-0.0898,-0.1515,-0.1964,-0.224,-0.2633,-0.3135,-0.3635,-0.3855,-0.3965,-0.391,-0.3852,-0.3688,-0.3522,-0.3408,-0.3077,-0.2631,-0.1681,-0.1065,-0.0673,0.0,0.0,0.0,0.0,-1.6692,0.0,0.0,0.0,-2.2212,0.0,-2.3868,-2.4266,-2.4321,-2.4456,-2.4512,-2.4447,-2.4502,-2.4545,-2.453,-2.5304,0.0,0.0,-2.511,-2.4505,-2.3692,0.0,0.0,0.0,-1.705,-1.5191,0.0,0.0,0.0,0.0,-0.3847,0.0,-0.3416,-0.546,-0.8629,-1.2824,-1.9439,-2.2978,-2.4408,-2.5138,-2.4296,-2.2811,-2.3644,-2.2813,-2.1384,-2.1958,-2.2425,-2.2646,-2.2121,-2.2031,-2.201,-2.1332,-2.0512,-1.9682,-1.9146,-1.8134,-1.685,-1.5435,0.0,0.0,0.0,0.0,-0.7257,0.0,0.0,0.0,0.0,0.0,0.0,0.0,0.0,0.0,0.0,0.0,0.0,0.0,0.0,0.0,0.0,0.3222,0.2993,0.294,0.2805,0.0,0.0,0.0,0.0799,0.0065,0.0,0.0,0.0,0.0,-0.028,-0.0898,-0.1515,-0.2076,-0.2521,-0.2965,-0.3463,-0.4024,-0.4138,-0.4193,-0.4193,-0.4193,-0.4079,-0.3852,-0.3852,-0.3519,-0.3019,-0.2406,-0.14,-0.0336,-2.3738,-2.3933,-2.3932,0.0,-2.1835,-2.1215,0.0,0.0,0.0,0.0,-2.4433,-2.4764,-2.4888,-2.5008,-2.5057,-2.4924,-2.5113,0.0,0.0,0.0,0.0,-2.6511,-2.6973,-2.6468,-2.4829,-2.3742,0.0,-2.1233,0.0,0.0,-1.7358,0.0,0.0,0.0,0.0,0.0,-0.5712,-0.739,-1.1618,-1.7659,-2.1493,-2.379,0.0,0.0,-2.4452,-2.2944,-2.3119,-2.2395,-2.1349,-2.1268,-2.1572,-2.1899,-2.1402,-2.1198,-2.0991,-2.0518,-2.011,-1.9677,-1.9158,-1.8759,-1.8183,-1.6745,-1.5591,-1.4428,0.0,0.0,0.0,0.0,0.0,0.0,0.0,0.0,0.0,0.0,0.0,0.0,0.0,0.0,0.0,0.0,0.0,0.0,0.3291,0.3226,0.3359,0.3734,0.3602,0.0,0.0,0.0,0.0,0.084,0.0311,0.0,0.0,0.0,-0.028,-0.0898,-0.1741,-0.23,-0.2683,-0.3244,-0.3691,-0.4138,-0.4356,-0.4411,-0.4411,-0.4411,-0.4408,-0.4298,-0.4298,-0.391,-0.3188,-0.2069,-0.1119,-0.0336,-2.6236,0.0,0.0,-2.7791,0.0,0.0,-2.4173,0.0,0.0,-2.443,-2.4825,0.0,-2.5175,-2.5197,-2.5211,-2.5195,-2.5359,0.0,-2.5391,0.0,0.0,-2.6794,-2.7128,-2.6774,-2.5627,-2.4663,0.0,-2.3063,0.0,0.0,-2.0692,0.0,0.0,0.0,0.0,-0.9481,-0.8575,-1.0892,-1.4902,-2.0003,-2.2615,0.0,0.0,-2.5476,-2.4732,-2.3519,-2.3088,-2.2034,-2.0785,-2.0476,-2.073,-2.1128,-2.0824,-2.0843,-2.0958,-2.0665,-2.042,-2.0133,-1.967,-1.939,-1.892,-1.7781,-1.7089,-1.632,-1.5012,-1.4105,-1.3246,0.0,0.0,0.0,0.0,0.0,0.0,0.0,0.0,0.0,0.0,0.0,0.0,0.0,0.2843,0.0,0.2622,0.2958,0.3421,0.3994,0.4121,0.0,0.0,0.0,0.0,0.1448,0.0631,0.012,0.0,0.0,-0.028,-0.0898,-0.1797,-0.2411,-0.2905,-0.3357,-0.386,-0.4356,-0.4463,-0.4519,-0.4519,-0.4519,-0.4519,-0.4519,-0.4408,-0.4021,-0.3352,-0.2458,-0.1511,-0.0673,-2.827,0.0,0.0,0.0,0.0,0.0,0.0,-2.4737,0.0,-2.4812,0.0,-2.5244,-2.5284,-2.5172,-2.5148,-2.5235,0.0,-2.5414,-2.5511,-2.6211,-2.6614,-2.6521,-2.6285,-2.6149,-2.6148,-2.512,0.0,0.0,0.0,0.0,0.0,0.0,0.0,0.0,0.0,0.0,0.0,-1.4882,-1.7945,-2.0924,-2.3183,-2.4611,-2.5414,-2.5454,-2.4991,-2.4186,-2.3437,-2.194,-2.0233,-1.985,-2.0014,-2.0383,-2.029,-2.0662,-2.1094,-2.096,-2.0738,-2.046,-2.0125,-1.9673,-1.9143,-1.8444,-1.802,-1.7512,-1.668,-1.6169,-1.5615,-1.4665,-1.3888,-1.2862,0.0,0.0,0.0,0.0,0.0,0.0,0.0,0.0,0.0,0.0,0.0,0.0,0.0,0.2554,0.333,0.3908,0.4427,0.0,0.0,0.0,0.0,0.1955,0.1018,0.0,0.0,0.0,-0.028,-0.0842,-0.1741,-0.2467,-0.3019,-0.3357,-0.3802,-0.4408,-0.4408,-0.4405,-0.4405,-0.4463,-0.4463,-0.4463,-0.4301,-0.3965,-0.3572,-0.3128,-0.2294,-0.129,0.0,0.0,0.0,0.0,0.0,-2.9062,-2.7653,-2.5999,-2.4985,-2.5254,-2.5347,-2.5356,-2.5299,-2.5175,-2.5069,-2.4989,-2.5177,0.0,0.0,0.0,0.0,-2.5638,-2.5487,-2.5725,-2.6412,-2.6111,-2.6003,0.0,-2.5989,-2.5564,0.0,0.0,0.0,0.0,0.0,0.0,-1.492,-1.7001,0.0,-2.1968,-2.3829,-2.4918,-2.5396,-2.5415,-2.4917,-2.42,-2.4113,-2.2851,-2.1116,-2.0183,-1.9818,-1.9736,-1.9612,-1.9573,-1.9571,-1.9486,-1.9273,-1.9009,-1.8732,-1.8808,-1.8843,-1.8195,-1.8033,-1.7939,-1.7612,-1.7123,-1.6559,-1.6095,-1.552,-1.4695,-1.3452,0.0,0.0,0.0,0.0,0.0,0.0,0.0,0.0,0.0,0.0,0.0,0.0,0.0,0.3053,0.404,0.0,0.0,0.0,0.0,0.0,0.0,0.0,0.0,0.0,0.0,-0.0168,-0.0505,-0.1403,-0.2132,-0.2633,-0.291,-0.3299,-0.3749,-0.3855,-0.3907,-0.3962,-0.4135,-0.4356,-0.4463,-0.4301,-0.4079,-0.3855,-0.3469,-0.2968,-0.2298,0.0,0.0,0.0,0.0,0.0,0.0,0.0,-2.5936,0.0,-2.5338,-2.5324,-2.5277,-2.5245,-2.5182,-2.5126,-2.5069,-2.5206,-2.5371,-2.554,-2.5588,-2.5579,-2.5513,-2.5401,0.0,-2.6592,-2.6502,-2.6504,-2.6593,-2.6602,-2.6204,0.0,0.0,0.0,-2.2368,0.0,-1.802,0.0,0.0,0.0,-2.2854,-2.428,-2.511,-2.5447,-2.5422,-2.5178,-2.4813,-2.4432,-2.3718,-2.2724,-2.1199,-2.0234,-1.9688,-1.9596,-1.9413,-1.923,-1.9137,-1.8896,-1.8585,-1.833,-1.8314,-1.8266,-1.7798,-1.7823,-1.785,-1.7567,-1.7557,-1.7502,-1.7035,-1.6749,-1.6064,-1.443,-1.2026,0.0,0.0,0.0,0.0,0.0,0.0,0.0,0.0,0.0,0.0,0.0,0.0,0.0,0.0,0.0,0.0,0.0,0.0,0.0,0.0,0.0,0.0,0.0,0.0,0.0,-0.0393,-0.101,-0.1682,-0.2352,-0.2575,-0.291,-0.3357,-0.3411,-0.3519,-0.3633,-0.3968,-0.419,-0.4356,-0.4356,-0.4245,-0.4079,-0.3744,-0.3299,-0.2742,0.0,-3.5433,0.0,0.0,-3.2552,0.0,-2.6543,-2.5964,-2.5758,-2.5364,-2.526,-2.5226,-2.5244,-2.5212,-2.522,-2.5243,-2.5293,-2.5379,-2.5508,-2.5568,-2.5602,-2.5598,-2.5731,-2.618,-2.6975,-2.714,-2.7224,0.0,0.0,0.0,0.0,-2.5461,-2.4598,-2.3309,0.0,0.0,0.0,0.0,-2.2149,-2.364,-2.4667,-2.5258,-2.5485,-2.5441,-2.5449,-2.5415,-2.4798,-2.4469,-2.4074,-2.2513,-2.1158,-2.0063,-1.9807,-1.9541,-1.9289,-1.9152,-1.8861,-1.8547,-1.829,-1.8061,-1.7816,-1.7502,-1.7541,-1.757,-1.7335,-1.7633,-1.7875,-1.7462,-1.7408,-1.6889,-1.5129,-1.3501,0.0,0.0,0.0,0.0,0.0,0.0,0.0,0.0,0.0,0.0,0.0,0.0,0.0,0.0,0.0,0.0,0.0,0.0,0.0,0.0,0.0,0.0793,0.0,0.0,-0.0112,0.0,-0.0729,-0.1233,-0.1959,-0.2242,-0.2577,-0.291,-0.2852,-0.3019,-0.3355,-0.3799,-0.4079,-0.4193,-0.4411,-0.4408,-0.4245,-0.3965,-0.363,-0.313,0.0,0.0,0.0,0.0,0.0,0.0,0.0,-2.7183,-2.6701,-2.5549,-2.5329,-2.5313,-2.536,-2.5282,-2.5253,-2.5369,-2.5401,-2.5446,-2.5571,-2.5609,-2.5603,-2.56,-2.635,-2.7155,-2.7949,-2.8747,-2.9136,0.0,0.0,-2.7623,0.0,-2.5887,-2.4637,-2.3103,0.0,0.0,0.0,-2.244,-2.3356,-2.4443,-2.5105,-2.5421,-2.5498,-2.5492,-2.5485,-2.5502,-2.5478,-2.5015,-2.4333,-2.4042,-2.2697,-2.1004,-2.0081,-1.9612,-1.9365,-1.9232,-1.8913,-1.8547,-1.8351,-1.8082,-1.7839,-1.7572,-1.7273,-1.7123,-1.7412,-1.724,-1.7056,-1.7194,-1.7046,-1.6745,-1.6291,-1.5498,-1.4352,0.0,0.0,0.0,0.0,0.0,-0.7226,-0.562,0.0,0.0,0.0,0.0,0.0,0.0,0.0,0.0,0.0,0.0,0.0,0.2214,0.0,0.1046,0.0,0.0,0.0,-0.0056,-0.0617,-0.0954,-0.1065,-0.1628,-0.2021,-0.2247,-0.2017,-0.2404,-0.3186,-0.363,-0.3965,-0.4193,-0.4411,-0.4463,-0.4463,-0.4245,-0.4079,-0.3799,0.0,0.0,0.0,0.0,0.0,0.0,0.0,-2.7639,-2.7289,-2.5727,-2.5466,-2.5432,-2.5453,-2.5415,-2.5401,-2.5464,-2.5499,-2.556,-2.5655,-2.5668,-2.5644,-2.5595,-2.6431,-2.7303,-2.8143,-2.9012,-2.9452,0.0,0.0,0.0,0.0,0.0,0.0,0.0,0.0,-2.3212,-2.3382,-2.3757,-2.4326,-2.5007,-2.5375,-2.5541,-2.5558,-2.5512,-2.5523,-2.5553,-2.5585,-2.5393,-2.5028,-2.4416,-2.3261,-2.1905,-2.0903,-2.0367,-1.9994,-1.9279,-1.8843,-1.8542,-1.8301,-1.8095,-1.79,-1.7635,-1.7368,-1.7158,-1.7104,-1.7099,-1.712,-1.6979,-1.7182,-1.7363,-1.7221,-1.6627,-1.5712,0.0,0.0,0.0,0.0,0.0,0.0,-0.7737,0.0,-0.4499,0.0,0.0,0.0,0.0,0.0,0.4156,0.4495,0.0,0.0,0.282,0.0,0.1109,0.0309,0.0116,0.0,-0.0,-0.0393,-0.0617,-0.0617,-0.0842,-0.1122,-0.1459,-0.168,-0.2181,-0.2798,-0.3413,-0.3858,-0.4135,-0.4408,-0.4519,-0.4463,-0.4249,-0.4193,-0.4024,-3.4018,0.0,-3.2953,0.0,-3.1052,-3.0252,-2.834,-2.814,-2.7698,-2.622,-2.5746,-2.5538,-2.5531,-2.5517,-2.5518,-2.5523,-2.556,-2.5639,-2.569,-2.5705,-2.5682,-2.5631,-2.6715,0.0,-2.8217,-2.9314,-2.9878,-2.9877,-2.9017,0.0,0.0,-2.6462,0.0,0.0,-2.4606,-2.4425,-2.4543,-2.4741,-2.5058,-2.5406,-2.5537,-2.5598,-2.5584,-2.5545,-2.5559,-2.5603,-2.5593,-2.5593,-2.5464,-2.4775,-2.3989,-2.308,-2.1832,-2.1213,-2.0772,-1.9884,-1.9287,-1.8874,-1.8603,-1.828,-1.7939,-1.7658,-1.7432,-1.7175,-1.6866,-1.6894,-1.6932,-1.6759,-1.725,-1.7683,-1.7735,-1.7437,-1.6802,-1.5584,0.0,0.0,0.0,0.0,0.0,0.0,-0.7822,-0.5951,-0.4048,0.0,0.0,0.0,0.0,0.3553,0.4359,0.0,0.0,0.0,0.0,0.0,0.0,0.0231,0.0,-0.0,-0.0168,-0.028,-0.028,-0.028,-0.0449,-0.0785,-0.1513,-0.2017,-0.2464,-0.3249,-0.3749,-0.4021,-0.4353,-0.4519,-0.4463,-0.4356,-0.4301,-0.4245,-3.4757,-3.3944,-3.3119,-3.2246,-3.1426,-3.0605,-2.9707,-2.8846,-2.7982,-2.7095,-2.6225,-2.5675,-2.5615,-2.5549,-2.5523,-2.558,-2.5595,-2.5624,-2.5697,-2.5698,-2.5698,0.0,0.0,-2.8283,-2.8291,-2.9923,-3.0774,-3.0782,0.0,0.0,-2.9337,-2.7532,-2.6663,-2.655,-2.5667,-2.5283,-2.529,-2.536,-2.5473,-2.5591,-2.5605,-2.5601,-2.56,-2.5604,-2.559,-2.5596,-2.5593,-2.5554,-2.5492,-2.5422,-2.5197,-2.4648,-2.2773,-2.2006,-2.1691,-2.1274,-2.0479,-1.9629,-1.9364,-1.8675,-1.7939,-1.7658,-1.7384,-1.7142,-1.6866,-1.6506,-1.6281,-1.6547,-1.7028,-1.749,-1.7741,-1.7963,-1.7814,-1.6912,0.0,0.0,0.0,0.0,0.0,-1.1241,-0.9675,-0.7809,-0.5669,0.0,0.0,0.0,0.0,0.0,0.3961,0.0,0.0,0.3407,0.2754,0.0,0.1002,0.0342,0.0,-0.0,-0.0,-0.0,-0.0,-0.0,-0.0168,-0.0449,-0.1403,-0.1964,-0.2294,-0.319,-0.3749,-0.4021,-0.4353,-0.4519,-0.4519,-0.4519,-0.4519,-0.4463,-3.4742,-3.3914,-3.3063,-3.2246,-3.1394,-3.0538,-2.9658,-2.9309,-2.8608,-2.7184,-2.6758,-2.6346,-2.5736,-2.5606,-2.5593,0.0,-2.564,-2.5632,0.0,-2.5698,-2.5693,-2.5703,-2.7361,-2.8289,-2.8226,-2.9916,-3.0802,-3.0808,0.0,0.0,0.0,-2.7038,-2.6764,-2.6706,-2.5873,-2.5485,-2.5439,-2.5453,-2.5473,-2.5466,-2.5401,-2.5406,-2.5395,-2.5398,-2.5393,-2.5406,-2.5404,-2.5385,-2.5348,-2.5225,-2.5077,-2.4784,-2.3914,-2.3083,-2.23,-2.1294,-2.0661,-2.0261,-1.9979,-1.9314,-1.8642,-1.8397,-1.7804,-1.7175,-1.6866,-1.6436,-1.6302,-1.7113,-1.7403,-1.7758,-1.8475,-1.8579,-1.833,-1.753,-1.6995,0.0,0.0,0.0,0.0,-1.2967,-1.1311,-0.9551,0.0,-0.552,0.0,0.0,0.0,0.0,0.0,0.0,0.0,0.0,0.3247,0.0,0.1412,0.0855,0.0393,0.0,0.0,0.0,0.0,0.0,-0.0168,-0.0449,-0.1178,-0.1738,-0.2238,-0.3135,-0.3691,-0.4021,-0.4353,-0.4519,-0.4519,-0.4519,-0.4519,-0.4477,-3.4668,-3.3835,-3.3015,-3.219,-3.1344,-3.0586,-3.0069,-2.9718,-2.911,-2.8076,-2.7374,-2.6759,-2.6212,-2.584,0.0,-2.571,-2.5668,-2.5651,-2.5696,-2.5693,-2.5709,-2.5703,-2.734,-2.8244,-2.8189,0.0,0.0,-3.0242,-2.8793,-2.7939,-2.7655,-2.7024,-2.6889,-2.7133,-2.5994,-2.5459,-2.5418,-2.5403,-2.5363,-2.5311,-2.5255,-2.5216,-2.5224,-2.5222,-2.5231,-2.5231,-2.5231,-2.5201,-2.516,-2.5068,-2.4904,-2.4689,-2.4353,-2.3674,-2.2883,-2.1994,-2.1406,-2.0986,-2.0695,-2.0025,-1.9333,-1.9144,-1.8526,-1.7864,-1.7381,-1.6789,-1.6577,-1.7473,-1.7843,-1.8174,-1.8746,-1.8956,-1.8822,-1.8252,-1.7827,-1.7313,-1.6591,0.0,0.0,0.0,0.0,0.0,0.0,-0.7869,0.0,0.0,0.0,0.0,0.0,0.0,0.0,0.4232,0.3597,0.0,0.1963,0.1301,0.0728,0.0168,0.0056,0.0,0.0,0.0,-0.0112,-0.028,-0.101,-0.1569,-0.2127,-0.2965,-0.3524,-0.3858,-0.4187,-0.4353,-0.4415,-0.4472,-0.4548,-0.4568,-3.4623,-3.3824,0.0,0.0,-3.1359,0.0,-3.0794,-3.0107,-2.9557,-2.9499,-2.8071,-2.7011,-2.6919,-2.6213,-2.5748,-2.5701,0.0,0.0,0.0,-2.5696,-2.5691,-2.5683,-2.7292,-2.82,-2.8199,-2.9765,-3.0132,-2.9206,-2.8326,-2.827,-2.8972,-2.7412,-2.7074,-2.7719,-2.6092,-2.534,-2.5283,-2.5216,-2.5186,-2.516,-2.5099,-2.5061,-2.5076,-2.5076,-2.5076,-2.5076,-2.5076,-2.5032,-2.4968,-2.4902,-2.4712,-2.4439,-2.4174,-2.3801,-2.3432,-2.3175,-2.2489,-2.1777,-2.1455,-2.0738,-2.0018,-1.981,-1.9411,-1.8898,-1.8254,-1.7501,-1.7105,-1.7655,-1.8283,-1.8683,-1.8654,-1.9102,-1.9288,-1.8983,-1.8602,-1.8161,-1.7652,0.0,0.0,0.0,0.0,0.0,0.0,-1.0719,-0.8064,0.0,0.0,0.0,0.0,0.0,0.4362,0.452,0.3865,0.3235,0.2521,0.1679,0.0951,0.0393,0.0112,0.0,0.0,0.0,0.0,-0.0056,-0.0898,-0.1457,-0.1846,-0.274,-0.3299,-0.3638,-0.3913,-0.4086,-0.4222,-0.4407,-0.4578,-0.4728,0.0,0.0,-3.379,-3.2984,-3.2167,-3.1398,-3.075,-3.0479,-3.011,-2.9423,-2.8985,-2.8235,-2.6967,-2.6654,-2.6296,-2.569,-2.5677,-2.5703,-2.5703,-2.5703,-2.5683,-2.5631,-2.7285,-2.8174,-2.8126,-2.9741,-2.9803,-2.8154,-2.7881,-2.7816,-2.7955,-2.7558,-2.7455,-2.7608,-2.6581,-2.5734,-2.5069,-2.5049,-2.4968,-2.4828,-2.4804,-2.4764,-2.4723,-2.4723,-2.4723,-2.4723,-2.4723,-2.4707,-2.4673,-2.4556,-2.4442,-2.4302,-2.3979,-2.3671,-2.3364,-2.3035,-2.2678,-2.2348,-2.2122,-2.1437,-2.0723,-2.0506,-1.9544,-1.8558,-1.8192,-1.7835,-1.7751,-1.8328,-1.8597,-1.8832,-1.9284,-1.9471,-1.945,-1.9087,-1.886,-1.8683,-1.859,-1.7899,0.0,0.0,-1.6888,-1.5858,-1.5071,-1.2947,-1.0172,0.0,0.0,0.0,0.0,0.3652,0.4523,0.48,0.4178,0.3548,0.2796,0.2068,0.1119,0.0112,0.0056,0.0,0.0,0.0,0.0,-0.0,-0.0449,-0.1064,-0.1846,-0.2514,-0.313,-0.3638,-0.3913,-0.4198,-0.441,-0.45,-0.4644,-0.4887,-3.5534,-3.4858,-3.4005,-3.3237,-3.2406,-3.1564,-3.0692,-3.0557,-3.0382,-2.9909,-2.9522,-2.8949,-2.8043,-2.7237,-2.6579,-2.6137,-2.5827,-2.5661,-2.5693,-2.5696,-2.5668,-2.5609,-2.7243,-2.8126,-2.8058,-2.966,-2.974,-2.8204,-2.7758,-2.7671,-2.7953,-2.7566,-2.7551,-2.7843,-2.7032,-2.6397,-2.5895,-2.5495,-2.5268,-2.5115,-2.4708,-2.4545,-2.4512,-2.4512,-2.4513,-2.4498,-2.4498,-2.4445,-2.4374,-2.4302,-2.4173,-2.3979,-2.3735,-2.3473,-2.3146,-2.2902,-2.2712,-2.2569,-2.2349,-2.1877,-2.1283,-2.0861,-1.9827,-1.8905,-1.8873,-1.854,-1.8377,-1.9016,-1.9151,-1.9271,-1.9609,-1.9632,-1.9664,-1.9736,-1.946,-1.9308,-1.9502,-1.8839,0.0,-1.8833,-1.8056,-1.7285,-1.6749,-1.4592,-1.1862,-0.8585,0.0,0.0,0.134,0.3108,0.4295,0.4862,0.4396,0.3799,0.313,0.2071,0.112,0.0168,0.0056,0.0,0.0,0.0,0.0,-0.0,-0.028,-0.0953,-0.1852,-0.2446,-0.2976,-0.3499,-0.3837,-0.4133,-0.4436,-0.4502,-0.4758,-0.5036,-3.5432,-3.4859,-3.4058,-3.3176,-3.2436,-3.1598,-3.0607,-3.0452,-3.0452,-3.0452,-2.9854,-2.939,-2.9284,-2.795,-2.702,-2.6912,-2.6203,-2.5746,-2.5678,-2.5673,-2.5707,-2.5749,-2.7258,-2.8105,-2.8161,-2.947,-2.9658,-2.8644,-2.7711,-2.7631,-2.8352,-2.7603,-2.7587,-2.8166,-2.7475,-2.7084,-2.6916,-2.6172,-2.5856,-2.5782,-2.5059,-2.4744,-2.4726,-2.4596,-2.4524,-2.4487,-2.4377,-2.4192,-2.4039,-2.4019,-2.384,-2.3646,-2.3455,-2.3212,-2.2944,-2.2738,-2.2623,-2.2515,-2.2338,-2.2061,-2.1675,-2.0974,-2.0141,-1.9564,-1.9783,-1.9291,-1.9016,-1.957,-1.969,-1.969,-1.969,-1.9765,-1.9997,-2.0374,-2.0171,-2.0043,-2.0314,0.0,-1.9118,-1.9287,-1.8697,-1.8172,-1.7817,-1.5683,-1.3061,-1.0198,-0.623,-0.2683,0.0,0.2198,0.3732,0.4567,0.4301,0.3858,0.3188,0.1962,0.1066,0.0393,0.0112,0.0,0.0,0.0,0.0,-0.0,-0.028,-0.0956,-0.187,-0.2387,-0.289,-0.3382,-0.3774,-0.4189,-0.4467,-0.4583,-0.483,-0.5182,-3.5226,-3.5127,-3.455,-3.303,-3.2647,-3.2034,-3.0483,-3.0253,-3.0247,-3.0241,-3.0126,-2.9819,-2.9209,-2.8893,-2.8482,-2.7855,-2.7011,-2.6258,-2.557,-2.5531,-2.5829,-2.6505,-2.7481,-2.8308,-2.8925,-2.8951,-2.8783,-2.8459,-2.751,-2.7419,-2.8124,-2.8013,-2.8013,-2.8104,-2.7974,-2.7528,-2.6821,-2.6691,-2.6595,-2.6534,-2.6385,-2.6309,-2.6176,-2.5438,-2.5141,-2.4967,-2.4174,-2.3837,-2.3735,-2.3642,-2.3526,-2.3389,-2.3151,-2.2952,-2.279,-2.2579,-2.2432,-2.2338,-2.231,-2.1945,-2.1432,-2.0909,-2.0483,-2.0097,-1.9854,-1.9687,-1.9555,-1.966,-1.969,-1.969,-1.969,-2.0168,-2.0474,-2.0279,-2.0454,-2.0599,-2.0493,0.0,-1.9608,-1.9241,-1.8896,-1.835,-1.7416,-1.5745,-1.3561,-1.0862,-0.7478,-0.4281,-0.1333,0.0889,0.2452,0.3294,0.3685,0.3352,0.2238,0.1906,0.129,0.0393,0.0112,0.0,0.0,0.0,0.0,-0.0,-0.028,-0.1025,-0.2044,-0.2349,-0.2926,-0.3663,-0.3992,-0.4436,-0.4855,-0.4877,-0.509,-0.5328,-3.5037,-3.507,-3.4571,-3.2874,-3.2588,-3.2035,-3.0357,-3.009,-3.009,-3.0085,-3.0118,-3.0013,-2.9685,-2.9251,-2.8854,-2.8518,-2.7723,-2.7082,-2.6708,-2.6356,-2.63,-2.6683,-2.795,-2.8954,-2.9621,-2.9376,-2.9151,-2.8989,-2.8481,-2.838,-2.8645,-2.8645,-2.8624,-2.8581,-2.8581,-2.8359,-2.7969,-2.7509,-2.7301,-2.7196,-2.6756,-2.653,-2.6388,-2.5983,-2.5477,-2.491,-2.4442,-2.3934,-2.3417,-2.3319,-2.3199,-2.3045,-2.2893,-2.2738,-2.2605,-2.2487,-2.2366,-2.2197,-2.1978,-2.1648,-2.1261,-2.0712,-2.0392,-2.0115,-1.9797,-1.9726,-1.969,-1.969,-1.969,-1.969,-1.969,-1.9944,-2.0318,-2.0744,-2.0773,0.0,0.0,-2.061,-1.9985,-1.969,-1.9118,-1.8442,-1.7642,-1.6071,-1.4094,-1.1731,-0.8519,-0.5562,-0.2968,-0.0884,0.0556,0.1228,0.2852,0.3251,0.2413,0.2303,0.1741,0.0673,0.0224,0.0,0.0,0.0,0.0,-0.0,-0.0343,-0.1103,-0.2122,-0.2377,-0.3051,-0.3848,-0.4232,-0.4681,-0.4997,-0.4997,-0.517,-0.5428,-3.4772,-3.4832,-3.4377,-3.2899,-3.2482,-3.1857,-3.0379,-3.0016,-2.9883,-2.9899,-2.995,-3.0,-3.0064,-2.9489,-2.9136,-2.915,-2.8414,-2.795,-2.7963,-2.7465,-2.72,-2.7229,-2.8636,-2.9613,-3.0032,-2.9803,-2.9589,-2.9433,-2.9326,-2.9197,-2.9085,-2.9085,-2.9062,-2.8994,-2.8994,-2.8994,-2.8957,-2.8315,-2.8013,-2.789,-2.7246,-2.6923,-2.6789,-2.6542,-2.5973,-2.5213,-2.4741,-2.4056,-2.3348,-2.3072,-2.2893,-2.2738,-2.2659,-2.2569,-2.246,-2.2394,-2.2254,-2.2024,-2.1634,-2.1419,-2.1151,-2.0512,-2.0239,-2.003,-1.9747,-1.969,-1.969,-1.969,-1.969,-1.969,-1.969,-1.9809,-2.0184,-2.0906,0.0,0.0,0.0,-2.0844,-2.022,-1.9655,-1.8989,-1.8331,-1.7672,-1.6162,-1.443,-1.2443,-0.9504,-0.6887,-0.4671,-0.2872,-0.161,-0.1004,0.1453,0.2523,0.2021,0.2079,0.1629,0.0673,0.0224,0.0,0.0,0.0,-0.0113,-0.0284,-0.0529,-0.1255,-0.2233,-0.2526,-0.3163,-0.4035,-0.4455,-0.4891,-0.5156,-0.5156,-0.5292,-0.5428,-3.4409,-3.4431,-3.4151,-3.3212,-3.2449,-3.1663,-3.0783,-3.0018,-2.9551,-2.9626,-2.9626,-2.9716,-2.9888,-2.9848,-2.9858,-2.9897,-2.9174,-2.8713,-2.8722,-2.8679,-2.8695,-2.8835,-2.9601,-3.0003,-2.9921,-2.97,-2.951,-2.9304,-2.9175,-2.9085,-2.9017,-2.9017,-2.9017,-2.8994,-2.8994,-2.897,-2.8887,-2.8832,-2.8724,-2.8603,-2.8474,-2.8406,-2.824,-2.7315,-2.6863,-2.6526,-2.4752,-2.4077,-2.3815,-2.2936,-2.2649,-2.2579,-2.246,-2.2422,-2.2377,-2.2338,-2.2077,-2.1768,-2.1479,-2.1293,-2.1071,-2.046,-2.0185,-2.003,-1.9747,-1.969,-1.969,-1.969,-1.969,-1.969,-1.969,-2.0213,-2.0548,-2.0314,0.0,0.0,-2.0237,-2.0415,-2.0107,-1.8605,-1.8315,-1.7848,-1.6888,-1.5703,-1.4297,-1.2599,-1.0404,-0.8306,-0.6323,-0.498,-0.3947,-0.3345,-0.1004,0.0168,0.0,0.0336,0.0336,0.0056,0.0,0.0,0.0,0.0,-0.0352,-0.1,-0.1033,-0.1625,-0.25,-0.2763,-0.3396,-0.4276,-0.4625,-0.503,-0.5362,-0.5362,-0.5362,-0.5428,-3.4105,-3.4197,-3.398,-3.3185,-3.2794,-3.2125,-3.0785,-3.0528,-3.0253,-2.9565,-2.9435,-2.9437,-2.9514,-2.9608,-2.9663,-2.9681,-2.9451,-2.9297,-2.9314,-2.9412,-2.954,-2.9674,-2.9859,-2.9921,-2.9841,-2.9551,-2.939,-2.9302,-2.913,-2.9017,-2.8994,-2.8994,-2.8994,-2.8994,-2.897,-2.8905,-2.8834,-2.8761,-2.8612,-2.8458,-2.8362,-2.8228,-2.7954,-2.7586,-2.7038,-2.6376,-2.5611,-2.4965,-2.4373,-2.3955,-2.3505,-2.3085,-2.3045,-2.2694,-2.2293,-2.2106,-2.1915,-2.1617,-2.1166,-2.0942,-2.0697,-2.022,-2.0025,-1.9869,-1.9726,-1.969,-1.969,-1.969,-1.969,-1.969,-1.969,-1.9899,-2.0139,-2.0351,0.0,-2.0828,-2.0542,-2.0331,-1.995,-1.9239,-1.8713,-1.8113,-1.7447,-1.6361,-1.5027,-1.3465,-1.1518,-0.9519,-0.7659,-0.5964,-0.478,-0.4284,-0.3279,-0.2336,-0.1454,-0.1287,-0.112,-0.0785,-0.0785,-0.0624,-0.0289,-0.0293,-0.0476,-0.0729,-0.1129,-0.1854,-0.2779,-0.289,-0.3588,-0.4492,-0.4694,-0.503,-0.5428,-0.5428,-0.5428,-0.5428,-3.3698,-3.3842,-3.3755,-3.3246,-3.321,-3.2847,-3.17,-3.1131,-3.0543,-2.9786,-2.9418,-2.9254,-2.9314,-2.9373,-2.9451,-2.9453,-2.9456,-2.9494,-2.9532,-2.9699,-2.9855,-3.0034,-2.9891,-2.9771,-2.9719,-2.9414,-2.9246,-2.9259,-2.9085,-2.8994,-2.8994,-2.8994,-2.8994,-2.897,-2.8905,-2.881,-2.8712,-2.8562,-2.838,-2.8146,-2.8035,-2.7864,-2.7582,-2.7552,-2.707,-2.645,-2.6103,-2.5552,-2.4968,-2.4669,-2.4184,-2.3748,-2.3748,-2.3363,-2.2866,-2.2345,-2.2068,-2.1742,-2.094,-2.0579,-2.0361,-2.0025,-1.9884,-1.9762,-1.9726,-1.969,-1.969,-1.969,-1.969,-1.969,-1.969,-1.969,-1.9803,-2.0169,-2.0292,-2.0382,-2.0404,-2.0179,-1.9883,-1.9534,-1.8963,-1.8436,-1.7962,-1.6925,-1.566,-1.4277,-1.2425,-1.0511,-0.8521,-0.6838,-0.5764,-0.5382,-0.505,-0.4336,-0.3181,-0.2738,-0.2293,-0.1793,-0.1587,-0.1325,-0.0943,-0.0902,-0.092,-0.1129,-0.1681,-0.229,-0.3013,-0.3201,-0.3825,-0.4694,-0.4827,-0.5093,-0.5428,-0.5428,-0.5428,-0.5428,-3.319,-3.3357,-3.3509,-3.3509,-3.3652,-3.3797,-3.3797,-3.1751,-3.0233,-3.0286,-2.9605,-2.9152,-2.928,-2.9302,-2.9304,-2.9293,-2.9237,-2.9258,-2.9392,-2.9453,-2.9626,-2.9891,-2.9701,-2.9569,-2.9492,-2.9307,-2.9156,-2.9108,-2.904,-2.9012,-2.9012,-2.9012,-2.897,-2.8905,-2.8852,-2.8705,-2.8528,-2.8371,-2.8109,-2.7806,-2.7647,-2.7526,-2.7373,-2.7166,-2.7103,-2.6967,-2.6024,-2.5705,-2.5586,-2.4777,-2.4523,-2.4523,-2.4506,-2.4447,-2.4204,-2.3185,-2.267,-2.2134,-2.085,-2.0323,-2.0045,-1.9833,-1.9797,-1.9762,-1.9726,-1.969,-1.969,-1.969,-1.969,-1.969,-1.969,-1.969,-1.969,-1.9611,-2.0109,-2.0226,-1.9427,-1.9806,-1.9929,-1.9174,-1.8936,-1.8644,-1.8228,-1.7258,-1.6096,-1.4914,-1.3165,-1.1123,-0.8725,-0.7771,-0.7182,-0.6907,-0.6322,-0.5778,-0.5336,-0.4009,-0.3181,-0.2907,-0.2315,-0.2,-0.2005,-0.1756,-0.1934,-0.2521,-0.2795,-0.3029,-0.3226,-0.3761,-0.4295,-0.4827,-0.5024,-0.5223,-0.5428,-0.5428,-0.5428,-0.5428,-3.2876,-3.3024,-3.3188,-3.3322,-3.3531,-3.3647,-3.3597,-3.3004,-3.1798,-2.9617,-2.9759,-2.9824,-2.9113,-2.9062,-2.9085,-2.9089,-2.9097,-2.9181,-2.9326,-2.9307,-2.959,-3.0292,-2.9731,-2.9372,-2.9368,-2.9218,-2.9388,-2.9936,-2.9866,-3.0112,-3.0595,-3.0027,-3.0015,-3.0418,-2.9743,-2.9611,-2.9891,-2.9609,-2.9334,-2.8995,-2.8313,-2.7942,-2.7758,-2.7162,-2.6892,-2.6757,-2.6504,-2.6403,-2.6369,-2.6067,-2.5612,-2.509,-2.4488,-2.4242,-2.408,-2.3605,-2.3241,-2.2689,-2.1452,-2.0983,-2.0624,-1.9918,-1.9726,-1.9726,-1.969,-1.969,-1.969,-1.969,-1.969,-1.969,-1.969,-1.969,-1.969,-1.9654,-1.9818,-1.9841,-1.9611,-1.9745,-1.9768,-1.956,-1.9325,-1.9064,-1.8644,-1.7801,-1.6718,-1.5528,-1.306,-1.1007,-0.9503,-0.8672,-0.8037,-0.7605,-0.7241,-0.6947,-0.6651,-0.5174,-0.4152,-0.3694,-0.3522,-0.3254,-0.2761,-0.2682,-0.2669,-0.2656,-0.2882,-0.3226,-0.3625,-0.3894,-0.4425,-0.5024,-0.509,-0.5223,-0.5428,-0.5428,-0.5428,-0.5428,-3.2419,-3.2659,-3.2862,-3.292,-3.3096,-3.3201,-3.3196,-3.3031,-3.2244,-3.0387,-3.0404,-3.0301,-2.9537,-2.9489,-2.9514,-2.9514,-2.9759,-2.9923,-3.0018,-3.0023,-3.0268,-3.0793,-3.0356,-3.012,-3.0179,-3.0023,-3.0215,-3.0693,-3.0613,-3.0775,-3.1224,-3.0636,-3.0549,-3.0884,-3.0248,-3.0053,-3.0207,-2.9954,-2.9692,-2.9386,-2.8802,-2.8305,-2.786,-2.7419,-2.7013,-2.6691,-2.6691,-2.6691,-2.6691,-2.664,-2.6235,-2.5698,-2.518,-2.4862,-2.4626,-2.409,-2.3658,-2.3117,-2.2009,-2.1528,-2.1167,-2.0295,-1.9884,-1.969,-1.969,-1.969,-1.969,-1.969,-1.969,-1.969,-1.969,-1.969,-1.969,-1.969,-1.969,-1.9669,-1.9669,-1.9617,-1.9581,-1.9581,-1.9398,-1.9101,-1.8707,-1.7974,-1.6857,-1.5262,-1.3127,-1.1416,-1.0328,-0.9458,-0.8778,-0.8362,-0.8099,-0.7793,-0.7491,-0.6452,-0.5541,-0.4647,-0.4497,-0.4107,-0.3601,-0.3517,-0.3436,-0.3353,-0.3489,-0.3758,-0.4225,-0.4359,-0.4758,-0.5223,-0.5223,-0.5292,-0.5428,-0.5428,-0.5428,-0.5428,-3.1858,-3.2213,-3.2459,-3.2389,-3.2433,-3.2538,-3.2592,-3.2232,-3.1924,-3.1912,-3.1312,-3.0718,-3.035,-3.0323,-3.0341,-3.0341,-3.0776,-3.1057,-3.1084,-3.1198,-3.1294,-3.1386,-3.1386,-3.1474,-3.1648,-3.14,-3.1313,-3.1367,-3.1228,-3.1202,-3.1229,-3.1,-3.0812,-3.0755,-3.0485,-3.0237,-2.9965,-2.9833,-2.9627,-2.9363,-2.9221,-2.8725,-2.7975,-2.784,-2.7385,-2.6793,-2.6725,-2.6691,-2.6691,-2.6589,-2.6417,-2.6208,-2.617,-2.5901,-2.5443,-2.4595,-2.4008,-2.346,-2.2517,-2.2063,-2.1708,-2.0961,-2.0333,-1.9839,-1.972,-1.969,-1.969,-1.969,-1.969,-1.969,-1.969,-1.969,-1.969,-1.969,-1.9632,-1.9611,-1.9611,-1.9501,-1.9376,-1.9376,-1.9176,-1.8898,-1.85,-1.7828,-1.6587,-1.4527,-1.3321,-1.2218,-1.115,-1.0182,-0.9532,-0.9148,-0.8825,-0.8477,-0.8068,-0.7814,-0.7059,-0.5783,-0.5276,-0.4836,-0.4513,-0.4243,-0.4225,-0.4353,-0.4353,-0.4558,-0.4831,-0.5024,-0.5223,-0.5428,-0.5428,-0.5428,-0.5428,-0.5428,-0.5428,-0.5428,-3.1637,-3.164,-3.1768,-3.2124,-3.1933,-3.1795,-3.1969,-3.2019,-3.1872,-3.1376,-3.1369,-3.1166,-3.0451,-3.0532,-3.0607,-3.0607,-3.0707,-3.0818,-3.0856,-3.0884,-3.1256,-3.1964,-3.201,-3.2254,-3.2814,-3.1701,-3.1402,-3.1928,-3.1844,-3.2025,-3.2419,-3.1798,-3.1667,-3.1892,-3.1161,-3.1028,-3.1355,-3.1153,-3.0987,-3.0806,-3.0149,-2.977,-2.9482,-2.8245,-2.7688,-2.7503,-2.6911,-2.6691,-2.6657,-2.6435,-2.6118,-2.5811,-2.5754,-2.5438,-2.5028,-2.4784,-2.4436,-2.3933,-2.3056,-2.2712,-2.24,-2.1689,-2.1365,-2.0976,-1.9929,-1.969,-1.969,-1.969,-1.969,-1.969,-1.969,-1.969,-1.969,-1.969,-1.9632,-1.9611,-1.9611,-1.9465,-1.9339,-1.9339,-1.9064,-1.8745,-1.8383,-1.738,-1.6238,-1.4994,-1.3946,-1.289,-1.1823,-1.0889,-1.0254,-1.0041,-0.9631,-0.9402,-0.9209,-0.8839,-0.7933,-0.6644,-0.627,-0.5902,-0.5574,-0.5213,-0.5027,-0.4888,-0.4758,-0.4824,-0.5024,-0.509,-0.5223,-0.5428,-0.5428,-0.5428,-0.5428,-0.5428,-0.5428,-0.5428,-3.1406,-3.1359,-3.138,-3.1651,-3.1674,-3.1662,-3.1699,-3.1809,-3.1794,-3.1498,-3.1618,-3.1612,-3.1276,-3.1303,-3.1317,-3.1317,-3.1399,-3.1462,-3.1507,-3.166,-3.196,-3.2451,-3.2487,-3.2667,-3.3001,-3.212,-3.1936,-3.2433,-3.2237,-3.2293,-3.2553,-3.2031,-3.1898,-3.2038,-3.1531,-3.1403,-3.1542,-3.1445,-3.1368,-3.1218,-3.0806,-3.0412,-3.0023,-2.9211,-2.8687,-2.8315,-2.7926,-2.7519,-2.7111,-2.6864,-2.629,-2.5589,-2.5362,-2.5013,-2.4695,-2.4533,-2.4287,-2.3975,-2.3516,-2.3269,-2.3035,-2.2364,-2.2158,-2.1904,-2.0887,-2.0647,-2.0647,-2.0647,-2.0647,-2.0543,-2.0243,-2.0117,-1.9975,-1.9713,-1.9487,-1.9339,-1.9317,-1.913,-1.8965,-1.8822,-1.8644,-1.8333,-1.7828,-1.6934,-1.6044,-1.5334,-1.4548,-1.3646,-1.2707,-1.2043,-1.1502,-1.1044,-1.0767,-1.0443,-1.0053,-0.9624,-0.8994,-0.8112,-0.7339,-0.6675,-0.6284,-0.602,-0.5752,-0.5617,-0.5289,-0.5289,-0.5488,-0.5352,-0.5484,-0.5752,-0.5752,-0.5752,-0.5752,-0.5752,-0.5752,-0.5822,-3.119,-3.1218,-3.1257,-3.1499,-3.1654,-3.1696,-3.1781,-3.1668,-3.1605,-3.1785,-3.1821,-3.1929,-3.2089,-3.202,-3.1985,-3.1985,-3.2109,-3.2214,-3.2214,-3.2486,-3.2634,-3.2666,-3.2666,-3.2666,-3.2634,-3.2369,-3.2369,-3.2716,-3.2369,-3.2214,-3.2179,-3.1966,-3.1802,-3.1709,-3.1579,-3.1466,-3.1257,-3.1257,-3.1252,-3.119,-3.119,-3.0835,-3.0277,-3.0159,-2.9719,-2.9144,-2.9025,-2.8424,-2.7668,-2.7499,-2.6651,-2.5577,-2.5171,-2.4708,-2.4317,-2.412,-2.3909,-2.3782,-2.3782,-2.3696,-2.3475,-2.2966,-2.2832,-2.2697,-2.2143,-2.1859,-2.1655,-2.1655,-2.1655,-2.1436,-2.0899,-2.0688,-2.0419,-1.9916,-1.9549,-1.9306,-1.9219,-1.8938,-1.8658,-1.8393,-1.8164,-1.7788,-1.7199,-1.6708,-1.6203,-1.5688,-1.5185,-1.4566,-1.3708,-1.3262,-1.2793,-1.2035,-1.1868,-1.145,-1.0856,-1.0477,-1.0021,-0.9652,-0.849,-0.7587,-0.6999,-0.6745,-0.6478,-0.6346,-0.5947,-0.5885,-0.5954,-0.5815,-0.6013,-0.6276,-0.6342,-0.6342,-0.6342,-0.6276,-0.628,-0.6346,-3.119,-3.119,-3.1467,-3.236,-3.1811,-3.1557,-3.2434,-3.1862,-3.1355,-3.1372,-3.1524,-3.1654,-3.1671,-3.1783,-3.1819,-3.1819,-3.1856,-3.1893,-3.193,-3.2002,-3.2056,-3.2109,-3.2092,-3.2074,-3.202,-3.1912,-3.1984,-3.2266,-3.2073,-3.1858,-3.1674,-3.1654,-3.1542,-3.1372,-3.1334,-3.1274,-3.123,-3.123,-3.119,-3.119,-3.119,-3.114,-3.097,-3.0345,-2.9985,-2.9707,-2.9046,-2.8557,-2.8169,-2.7981,-2.7017,-2.5901,-2.5686,-2.4806,-2.3882,-2.3839,-2.3739,-2.3638,-2.3638,-2.3595,-2.358,-2.349,-2.3475,-2.3445,-2.3355,-2.2405,-2.152,-2.152,-2.144,-2.1315,-2.1226,-2.1116,-2.0965,-2.0756,-2.0522,-2.03,-2.0049,-1.9461,-1.8976,-1.8685,-1.7864,-1.724,-1.696,-1.7118,-1.6979,-1.6313,-1.6247,-1.5774,-1.4696,-1.4125,-1.357,-1.3024,-1.2729,-1.2325,-1.1789,-1.1461,-1.0919,-1.0174,-0.9849,-0.9139,-0.8231,-0.7652,-0.7265,-0.7068,-0.6675,-0.6478,-0.635,-0.6478,-0.6609,-0.6675,-0.6732,-0.6798,-0.6793,-0.6671,-0.6675,-0.6881,-3.1799,-3.1799,-3.2093,-3.294,-3.2964,-3.2913,-3.3059,-3.2507,-3.2021,-3.1879,-3.1584,-3.1368,-3.1368,-3.1423,-3.1445,-3.1445,-3.1521,-3.1542,-3.1562,-3.1674,-3.1765,-3.1785,-3.1785,-3.1785,-3.1711,-3.1579,-3.1579,-3.1694,-3.16,-3.1524,-3.1411,-3.1389,-3.1329,-3.1252,-3.1252,-3.123,-3.119,-3.119,-3.1151,-3.1112,-3.1112,-3.1015,-3.0878,-3.0543,-3.0329,-3.0182,-2.9769,-2.9204,-2.8576,-2.8329,-2.7412,-2.6376,-2.6032,-2.5452,-2.4912,-2.4822,-2.4762,-2.4717,-2.4717,-2.4717,-2.4642,-2.4268,-2.4178,-2.4073,-2.3684,-2.299,-2.242,-2.2505,-2.2335,-2.2047,-2.1598,-2.1355,-2.1126,-2.0571,-2.0302,-2.0,-1.9795,-1.9358,-1.8976,-1.8742,-1.8221,-1.7824,-1.7734,-1.7723,-1.7535,-1.7086,-1.6977,-1.6539,-1.5627,-1.5239,-1.4809,-1.4203,-1.3794,-1.3339,-1.2834,-1.229,-1.174,-1.1115,-1.0681,-0.9907,-0.8947,-0.8436,-0.8112,-0.7907,-0.7391,-0.7199,-0.7269,-0.7199,-0.7391,-0.7712,-0.7772,-0.7772,-0.7772,-0.7521,-0.7526,-0.7657]}]]